XC49 / EC-HDS 7700 Squawk Report (14th of September, 2017)

Aircraft B752 Reg No. EC-HDS Age 17 years old
Model 757 Jet engines 2 First flight 18-11-99
Registered 18-10-15 Rollout N/A Delivered 02-12-99
Construction No. 26252 Line No. 0900 Series 256
ADSHEX 3412D3 Airline name Privilege Style Owner N/A
Airfield based Madrid-Barajas~Madrid~EC First tracked 2011-04-07 10:01:01

Flight history for EC-HDS

Route Flight No Date Playback
???? N/A 2017-09-21 12:07:00
???? N/A 2017-09-20 22:24:00
???? N/A 2017-09-18 21:01:00
Eindhoven (EIN) - Antalya (AYT) XC40 2017-09-18 12:59:00
???? N/A 2017-09-18 06:56:00
???? N/A 2017-09-17 19:41:00
???? N/A 2017-09-17 16:38:00
???? N/A 2017-09-17 11:19:00
???? N/A 2017-09-17 07:42:00
???? N/A 2017-09-17 04:05:00
???? N/A 2017-09-17 00:47:00
???? N/A 2017-09-16 19:13:00
???? N/A 2017-09-16 15:21:00
Warsaw Chopin (WAW) - Antalya (AYT) XC1672 2017-09-16 11:38:00
???? N/A 2017-09-16 07:37:00
Tirana Rinas (TIA) - Antalya (AYT) XC5088 2017-09-16 03:44:00
Antalya (AYT) - Tirana Rinas (TIA) XC5087 2017-09-16 02:21:00
???? N/A 2017-09-15 21:10:00
???? N/A 2017-09-15 18:20:00
Eindhoven (EIN) - Maastricht (MST) - Antalya (AYT) XC40 2017-09-15 14:08:00
Time Lat Lon Altitude Heading Speed Vertical Rate
2017-09-14 07:07:02 GMT 53.13617 6.57718 600 233 125 -512
2017-09-14 07:07:00 GMT 53.13689 6.57877 600 232 124 -576
2017-09-14 07:06:54 GMT 53.13913 6.58348 675 233 122 -704
2017-09-14 07:06:50 GMT 53.14026 6.58598 700 232 122 -704
2017-09-14 07:06:44 GMT 53.14250 6.59058 775 232 123 -896
2017-09-14 07:06:40 GMT 53.14389 6.59352 850 232 123 -704
2017-09-14 07:06:33 GMT 53.14613 6.59834 900 232 123 -704
2017-09-14 07:06:28 GMT 53.14801 6.60215 975 233 122 -704
2017-09-14 07:06:24 GMT 53.14970 6.60569 1,025 233 122 -640
2017-09-14 07:06:20 GMT 53.15111 6.60908 1,075 233 121 -768
2017-09-14 07:06:14 GMT 53.15318 6.61330 1,150 234 120 -704
2017-09-14 07:06:09 GMT 53.15451 6.61652 1,175 233 118 -640
2017-09-14 07:06:07 GMT 53.15538 6.61816 1,200 233 118 -640
2017-09-14 07:06:02 GMT 53.15679 6.62136 1,250 232 116 -576
2017-09-14 07:05:59 GMT 53.15813 6.62389 1,300 232 115 -576
2017-09-14 07:05:57 GMT 53.15868 6.62538 1,325 232 114 -576
2017-09-14 07:05:52 GMT 53.16056 6.62928 1,375 233 114 -640
2017-09-14 07:05:46 GMT 53.16206 6.63253 1,425 233 112 -512
2017-09-14 07:05:42 GMT 53.16331 6.63510 1,450 232 110 -576
2017-09-14 07:05:40 GMT 53.16380 6.63629 1,475 232 110 -576
2017-09-14 07:05:36 GMT 53.16536 6.63938 1,500 233 109 -576
2017-09-14 07:05:33 GMT 53.16657 6.64212 1,550 233 109 -640
2017-09-14 07:05:28 GMT 53.16792 6.64500 1,600 233 109 -640
2017-09-14 07:05:26 GMT 53.16843 6.64608 1,625 233 109 -640
2017-09-14 07:05:22 GMT 53.16985 6.64924 1,650 233 109 -576
2017-09-14 07:05:20 GMT 53.17017 6.64963 1,675 233 109 -576
2017-09-14 07:05:18 GMT 53.17104 6.65175 1,700 233 109 -576
2017-09-14 07:05:16 GMT 53.17172 6.65316 1,725 233 109 -576
2017-09-14 07:05:12 GMT 53.17294 6.65553 1,750 233 109 -576
2017-09-14 07:05:10 GMT 53.17355 6.65699 1,775 233 109 -576
2017-09-14 07:05:08 GMT 53.17425 6.65876 1,800 233 109 -640
2017-09-14 07:05:06 GMT 53.17479 6.65968 1,800 233 109 -640
2017-09-14 07:05:01 GMT 53.17616 6.66289 1,850 233 111 -576
2017-09-14 07:04:59 GMT 53.17703 6.66446 1,875 233 111 -512
2017-09-14 07:04:57 GMT 53.17740 6.66548 1,900 233 112 -576
2017-09-14 07:04:55 GMT 53.17806 6.66684 1,900 233 114 -576
2017-09-14 07:04:51 GMT 53.17946 6.66959 1,950 233 117 -640
2017-09-14 07:04:49 GMT 53.18007 6.67104 1,975 233 120 -640
2017-09-14 07:04:46 GMT 53.18151 6.67411 2,025 232 123 -704
2017-09-14 07:04:40 GMT 53.18303 6.67749 2,075 233 125 -704
2017-09-14 07:04:38 GMT 53.18408 6.67953 2,100 233 126 -704
2017-09-14 07:04:35 GMT 53.18509 6.68179 2,125 232 128 -640
2017-09-14 07:04:30 GMT 53.18710 6.68612 2,200 233 131 -640
2017-09-14 07:04:25 GMT 53.18884 6.68981 2,250 233 134 -704
2017-09-14 07:04:21 GMT 53.19054 6.69350 2,300 233 137 -704
2017-09-14 07:04:15 GMT 53.19282 6.69836 2,375 233 141 -768
2017-09-14 07:04:11 GMT 53.19466 6.70244 2,425 233 144 -640
2017-09-14 07:04:04 GMT 53.19713 6.70770 2,475 235 148 -512
2017-09-14 07:03:58 GMT 53.19933 6.71304 2,475 236 148 64
2017-09-14 07:03:55 GMT 53.20102 6.71704 2,475 235 147 576
2017-09-14 07:03:50 GMT 53.20274 6.72137 2,425 236 147 576
2017-09-14 07:03:48 GMT 53.20363 6.72324 2,425 238 146 640
2017-09-14 07:03:45 GMT 53.20502 6.72686 2,375 238 146 640
2017-09-14 07:03:40 GMT 53.20656 6.73117 2,325 242 145 640
2017-09-14 07:03:34 GMT 53.20811 6.73682 2,275 251 145 640
2017-09-14 07:03:28 GMT 53.20916 6.74326 2,200 258 145 640
2017-09-14 07:03:24 GMT 53.20985 6.74765 2,150 258 144 576
2017-09-14 07:03:20 GMT 53.21054 6.75290 2,125 258 143 576
2017-09-14 07:03:18 GMT 53.21070 6.75409 2,100 258 143 576
2017-09-14 07:03:14 GMT 53.21121 6.75885 2,050 258 144 640
2017-09-14 07:03:06 GMT 53.21223 6.76645 2,000 258 145 64
2017-09-14 07:03:03 GMT 53.21279 6.77016 2,000 257 145 0
2017-09-14 07:02:58 GMT 53.21382 6.77703 2,000 258 146 0
2017-09-14 07:02:53 GMT 53.21434 6.78131 2,000 258 146 64
2017-09-14 07:02:49 GMT 53.21503 6.78616 2,000 258 146 64
2017-09-14 07:02:46 GMT 53.21567 6.79049 2,000 258 146 64
2017-09-14 07:02:43 GMT 53.21585 6.79214 2,000 258 146 0
2017-09-14 07:02:38 GMT 53.21672 6.79810 2,000 258 144 -64
2017-09-14 07:02:36 GMT 53.21686 6.79991 2,000 258 144 -512
2017-09-14 07:02:33 GMT 53.21741 6.80368 2,025 258 144 -512
2017-09-14 07:02:27 GMT 53.21828 6.80987 2,100 258 146 -1024
2017-09-14 07:02:23 GMT 53.21894 6.81500 2,175 259 145 -1152
2017-09-14 07:02:18 GMT 53.21950 6.82033 2,250 261 145 -1088
2017-09-14 07:02:12 GMT 53.22015 6.82647 2,375 262 145 -1088
2017-09-14 07:02:06 GMT 53.22070 6.83404 2,500 266 145 -1152
2017-09-14 07:02:02 GMT 53.22070 6.83742 2,550 272 146 -1216
2017-09-14 07:01:56 GMT 53.22019 6.84464 2,700 288 149 -1280
2017-09-14 07:01:52 GMT 53.21922 6.84901 2,775 298 153 -1216
2017-09-14 07:01:48 GMT 53.21735 6.85393 2,875 317 163 -1088
2017-09-14 07:01:45 GMT 53.21663 6.85531 2,900 319 163 -1088
2017-09-14 07:01:42 GMT 53.21411 6.85876 2,975 327 168 -1088
2017-09-14 07:01:34 GMT 53.20848 6.86300 3,100 339 177 -1024
2017-09-14 07:01:31 GMT 53.20641 6.86371 3,150 355 189 -896
2017-09-14 07:01:27 GMT 53.20232 6.86387 3,200 3 197 -768
2017-09-14 07:01:21 GMT 53.19678 6.86242 3,275 18 210 -704
2017-09-14 07:01:17 GMT 53.19259 6.85943 3,325 28 218 -704
2017-09-14 07:01:13 GMT 53.19040 6.85712 3,375 34 223 -704
2017-09-14 07:01:10 GMT 53.18761 6.85369 3,400 40 226 -768
2017-09-14 07:01:05 GMT 53.18335 6.84605 3,500 52 234 -1024
2017-09-14 07:01:03 GMT 53.18258 6.84456 3,500 51 234 -960
2017-09-14 07:01:00 GMT 53.18079 6.84017 3,575 55 235 -1216
2017-09-14 07:00:54 GMT 53.17718 6.83115 3,700 56 235 -1472
2017-09-14 07:00:51 GMT 53.17520 6.82651 3,775 56 235 -1472
2017-09-14 07:00:49 GMT 53.17397 6.82337 3,825 56 235 -1472
2017-09-14 07:00:44 GMT 53.17131 6.81653 3,925 56 234 -1472
2017-09-14 07:00:41 GMT 53.16907 6.81082 4,025 56 233 -1536
2017-09-14 07:00:39 GMT 53.16811 6.80854 4,075 56 233 -1536
2017-09-14 07:00:35 GMT 53.16540 6.80179 4,200 56 231 -1472
2017-09-14 07:00:31 GMT 53.16307 6.79553 4,300 56 231 -1408
2017-09-14 07:00:29 GMT 53.16206 6.79324 4,325 55 231 -1344
2017-09-14 07:00:25 GMT 53.15936 6.78688 4,425 52 230 -1152
2017-09-14 07:00:21 GMT 53.15653 6.78131 4,500 46 229 -1088
2017-09-14 07:00:19 GMT 53.15497 6.77880 4,525 42 228 -1088
2017-09-14 07:00:15 GMT 53.15148 6.77444 4,600 33 226 -1088
2017-09-14 07:00:11 GMT 53.14810 6.77135 4,675 23 223 -1024
2017-09-14 07:00:09 GMT 53.14618 6.76993 4,700 20 222 -1024
2017-09-14 07:00:07 GMT 53.14362 6.76871 4,750 13 220 -1024
2017-09-14 07:00:05 GMT 53.14208 6.76798 4,775 11 219 -1024
2017-09-14 07:00:03 GMT 53.14003 6.76742 4,825 3 217 -896
2017-09-14 07:00:00 GMT 53.13761 6.76693 4,850 5 217 -960
2017-09-14 06:59:58 GMT 53.13602 6.76656 4,875 4 217 -896
2017-09-14 06:59:55 GMT 53.13176 6.76624 4,950 3 218 -896
2017-09-14 06:59:50 GMT 53.12742 6.76572 5,000 3 220 -832
2017-09-14 06:59:47 GMT 53.12315 6.76538 5,050 3 222 -704
2017-09-14 06:59:44 GMT 53.12105 6.76499 5,075 3 223 -704
2017-09-14 06:59:40 GMT 53.11711 6.76468 5,125 3 225 -768
2017-09-14 06:59:38 GMT 53.11513 6.76451 5,150 3 226 -768
2017-09-14 06:59:34 GMT 53.11066 6.76419 5,200 3 228 -832
2017-09-14 06:59:32 GMT 53.10907 6.76402 5,225 2 229 -832
2017-09-14 06:59:30 GMT 53.10645 6.76365 5,250 2 230 -896
2017-09-14 06:59:28 GMT 53.10406 6.76350 5,300 2 231 -960
2017-09-14 06:59:26 GMT 53.10155 6.76334 5,325 2 232 -1152
2017-09-14 06:59:22 GMT 53.09821 6.76295 5,400 2 232 -1152
2017-09-14 06:59:20 GMT 53.09557 6.76265 5,450 2 233 -1088
2017-09-14 06:59:18 GMT 53.09320 6.76248 5,475 2 233 -1152
2017-09-14 06:59:14 GMT 53.08814 6.76208 5,575 2 233 -1280
2017-09-14 06:59:09 GMT 53.08412 6.76177 5,650 2 233 -1280
2017-09-14 06:59:07 GMT 53.08184 6.76161 5,700 2 233 -1280
2017-09-14 06:59:05 GMT 53.07912 6.76140 5,750 2 234 -1216
2017-09-14 06:59:03 GMT 53.07677 6.76107 5,800 2 234 -1216
2017-09-14 06:59:00 GMT 53.07335 6.76086 5,850 2 234 -1216
2017-09-14 06:58:57 GMT 53.07079 6.76071 5,900 2 234 -1216
2017-09-14 06:58:53 GMT 53.06652 6.76036 5,975 2 234 -1152
2017-09-14 06:58:49 GMT 53.06206 6.76004 6,075 2 234 -1216
2017-09-14 06:58:47 GMT 53.06003 6.75987 6,100 2 234 -1216
2017-09-14 06:58:42 GMT 53.05507 6.75950 6,200 2 235 -1216
2017-09-14 06:58:39 GMT 53.05115 6.75934 6,275 2 235 -1216
2017-09-14 06:58:36 GMT 53.04846 6.75918 6,325 2 235 -1216
2017-09-14 06:58:32 GMT 53.04369 6.75880 6,425 2 235 -1536
2017-09-14 06:58:28 GMT 53.03827 6.75847 6,550 2 245 -1216
2017-09-14 06:58:25 GMT 53.03659 6.75832 6,575 2 237 -1472
2017-09-14 06:58:22 GMT 53.03252 6.75812 6,675 1 238 -1408
2017-09-14 06:58:19 GMT 53.02890 6.75781 6,750 2 240 -1344
2017-09-14 06:58:15 GMT 53.02483 6.75766 6,825 2 243 -1216
2017-09-14 06:58:10 GMT 53.01855 6.75713 6,950 2 246 -1216
2017-09-14 06:58:08 GMT 53.01625 6.75698 6,975 1 249 -1152
2017-09-14 06:58:06 GMT 53.01392 6.75698 7,025 1 249 -1152
2017-09-14 06:58:05 GMT 53.01338 6.75697 7,025 0 249 -1152
2017-09-14 06:58:02 GMT 53.01006 6.75675 7,075 0 251 -1088
2017-09-14 06:57:58 GMT 53.00592 6.75690 7,150 358 253 -1088
2017-09-14 06:57:56 GMT 53.00166 6.75728 7,225 356 255 -1088
2017-09-14 06:57:51 GMT 52.99677 6.75812 7,275 355 256 -1024
2017-09-14 06:57:48 GMT 52.99370 6.75858 7,325 353 257 -1024
2017-09-14 06:57:45 GMT 52.98971 6.75957 7,375 351 258 -832
2017-09-14 06:57:41 GMT 52.98580 6.76075 7,425 350 259 -768
2017-09-14 06:57:37 GMT 52.98017 6.76271 7,475 346 261 -896
2017-09-14 06:57:35 GMT 52.97780 6.76381 7,525 346 261 -896
2017-09-14 06:57:31 GMT 52.97398 6.76554 7,575 344 262 -960
2017-09-14 06:57:28 GMT 52.96994 6.76750 7,625 343 262 -1024
2017-09-14 06:57:26 GMT 52.96616 6.76954 7,675 342 263 -1152
2017-09-14 06:57:24 GMT 52.96560 6.76978 7,700 342 263 -1216
2017-09-14 06:57:21 GMT 52.96164 6.77205 7,775 342 264 -1344
2017-09-14 06:57:21 GMT 52.96164 6.77205 7,775 342 264 -1280
2017-09-14 06:57:19 GMT 52.95914 6.77345 7,825 342 264 -1408
2017-09-14 06:57:16 GMT 52.95493 6.77582 7,900 342 264 -1344
2017-09-14 06:57:13 GMT 52.95369 6.77635 7,925 342 265 -1152
2017-09-14 06:57:10 GMT 52.94959 6.77864 7,975 342 265 -832
2017-09-14 06:57:08 GMT 52.94651 6.78045 8,000 342 266 -320
2017-09-14 06:57:05 GMT 52.94224 6.78276 8,025 342 266 -64
2017-09-14 06:57:03 GMT 52.94156 6.78322 8,025 342 266 -64
2017-09-14 06:57:00 GMT 52.93799 6.78516 8,025 342 266 -64
2017-09-14 06:56:57 GMT 52.93433 6.78711 8,025 342 266 -64
2017-09-14 06:56:53 GMT 52.92984 6.78955 8,025 342 266 -128
2017-09-14 06:56:51 GMT 52.92586 6.79184 8,050 342 267 -256
2017-09-14 06:56:49 GMT 52.92403 6.79293 8,050 342 269 -320
2017-09-14 06:56:47 GMT 52.92224 6.79390 8,050 342 269 -320
2017-09-14 06:56:44 GMT 52.91756 6.79646 8,075 342 270 -448
2017-09-14 06:56:42 GMT 52.91693 6.79680 8,075 342 270 -512
2017-09-14 06:56:39 GMT 52.91169 6.79975 8,125 342 271 -768
2017-09-14 06:56:37 GMT 52.91044 6.80038 8,150 342 271 -768
2017-09-14 06:56:35 GMT 52.90741 6.80226 8,175 342 271 -896
2017-09-14 06:56:32 GMT 52.90494 6.80344 8,200 342 270 -1024
2017-09-14 06:56:30 GMT 52.90154 6.80540 8,250 342 270 -1088
2017-09-14 06:56:27 GMT 52.89798 6.80756 8,325 342 270 -1472
2017-09-14 06:56:25 GMT 52.89517 6.80901 8,375 342 270 -1920
2017-09-14 06:56:23 GMT 52.89281 6.81038 8,450 342 271 -2176
2017-09-14 06:56:19 GMT 52.88924 6.81229 8,575 342 271 -2368
2017-09-14 06:56:17 GMT 52.88548 6.81450 8,700 342 271 -2432
2017-09-14 06:56:16 GMT 52.88548 6.81450 8,700 342 271 -2432
2017-09-14 06:56:14 GMT 52.88301 6.81572 8,775 342 271 -2432
2017-09-14 06:56:12 GMT 52.88115 6.81694 8,850 342 272 -2432
2017-09-14 06:56:10 GMT 52.87701 6.81923 8,975 342 273 -2432
2017-09-14 06:56:07 GMT 52.87533 6.82008 9,025 342 273 -2432
2017-09-14 06:56:05 GMT 52.87222 6.82180 9,150 342 274 -2432
2017-09-14 06:56:02 GMT 52.86854 6.82392 9,275 342 275 -2432
2017-09-14 06:56:00 GMT 52.86667 6.82503 9,325 342 276 -2432
2017-09-14 06:55:58 GMT 52.86295 6.82698 9,450 342 276 -2432
2017-09-14 06:55:56 GMT 52.86053 6.82823 9,525 342 277 -2368
2017-09-14 06:55:53 GMT 52.85779 6.82991 9,600 342 277 -2368
2017-09-14 06:55:51 GMT 52.85467 6.83161 9,725 342 278 -2368
2017-09-14 06:55:49 GMT 52.85276 6.83287 9,775 342 279 -2368
2017-09-14 06:55:44 GMT 52.84717 6.83585 9,975 342 280 -2432
2017-09-14 06:55:40 GMT 52.84003 6.83968 10,200 342 282 -2304
2017-09-14 06:55:37 GMT 52.83769 6.84105 10,275 342 283 -2240
2017-09-14 06:55:34 GMT 52.83453 6.84265 10,350 342 284 -2176
2017-09-14 06:55:31 GMT 52.83032 6.84509 10,475 342 285 -2112
2017-09-14 06:55:28 GMT 52.82689 6.84700 10,575 342 286 -2048
2017-09-14 06:55:25 GMT 52.82259 6.84929 10,700 342 289 -1856
2017-09-14 06:55:23 GMT 52.81966 6.85097 10,775 342 291 -1792
2017-09-14 06:55:19 GMT 52.81365 6.85421 10,900 342 295 -1536
2017-09-14 06:55:17 GMT 52.81170 6.85515 10,925 342 295 -1536
2017-09-14 06:55:14 GMT 52.80853 6.85696 10,975 342 298 -1344
2017-09-14 06:55:12 GMT 52.80597 6.85837 11,025 342 301 -1280
2017-09-14 06:55:10 GMT 52.80346 6.85963 11,075 342 302 -1216
2017-09-14 06:55:07 GMT 52.79814 6.86256 11,150 342 308 -1280
2017-09-14 06:55:04 GMT 52.79594 6.86371 11,175 342 310 -1280
2017-09-14 06:55:02 GMT 52.79257 6.86551 11,225 342 311 -1344
2017-09-14 06:55:00 GMT 52.78963 6.86716 11,275 342 316 -1536
2017-09-14 06:54:58 GMT 52.78675 6.86873 11,325 342 317 -1536
2017-09-14 06:54:55 GMT 52.78149 6.87163 11,425 342 321 -1792
2017-09-14 06:54:52 GMT 52.77768 6.87355 11,525 342 326 -2048
2017-09-14 06:54:50 GMT 52.77506 6.87501 11,575 342 330 -2432
2017-09-14 06:54:48 GMT 52.77115 6.87713 11,675 342 329 -2304
2017-09-14 06:54:44 GMT 52.76715 6.87935 11,800 342 331 -2560
2017-09-14 06:54:41 GMT 52.76207 6.88215 11,950 342 332 -3008
2017-09-14 06:54:39 GMT 52.75923 6.88362 12,050 342 334 -3392
2017-09-14 06:54:36 GMT 52.75571 6.88576 12,175 342 335 -3648
2017-09-14 06:54:33 GMT 52.74971 6.88904 12,425 342 335 -3648
2017-09-14 06:54:30 GMT 52.74625 6.89086 12,575 342 335 -3648
2017-09-14 06:54:27 GMT 52.74152 6.89339 12,775 342 336 -3584
2017-09-14 06:54:24 GMT 52.73721 6.89604 12,950 342 338 -3520
2017-09-14 06:54:24 GMT 52.73721 6.89604 12,950 342 338 -3520
2017-09-14 06:54:22 GMT 52.73484 6.89737 13,025 342 338 -3456
2017-09-14 06:54:20 GMT 52.73186 6.89880 13,150 342 339 -3392
2017-09-14 06:54:18 GMT 52.72838 6.90094 13,275 341 340 -3328
2017-09-14 06:54:15 GMT 52.72390 6.90350 13,450 340 340 -3264
2017-09-14 06:54:13 GMT 52.72102 6.90530 13,550 339 341 -3136
2017-09-14 06:54:11 GMT 52.71890 6.90674 13,625 338 341 -3072
2017-09-14 06:54:09 GMT 52.71436 6.90993 13,775 336 341 -3008
2017-09-14 06:54:07 GMT 52.71278 6.91118 13,825 335 341 -2944
2017-09-14 06:54:05 GMT 52.70847 6.91490 13,975 332 342 -2944
2017-09-14 06:54:03 GMT 52.70537 6.91762 14,100 331 342 -2880
2017-09-14 06:54:00 GMT 52.70233 6.92032 14,200 329 341 -2816
2017-09-14 06:53:58 GMT 52.70021 6.92256 14,275 327 341 -2688
2017-09-14 06:53:56 GMT 52.69751 6.92547 14,375 327 341 -2688
2017-09-14 06:53:54 GMT 52.69373 6.92986 14,500 324 340 -2688
2017-09-14 06:53:52 GMT 52.69107 6.93321 14,600 323 340 -2624
2017-09-14 06:53:50 GMT 52.68852 6.93622 14,675 322 339 -2560
2017-09-14 06:53:48 GMT 52.68740 6.93771 14,725 321 338 -2560
2017-09-14 06:53:46 GMT 52.68466 6.94163 14,825 320 338 -2560
2017-09-14 06:53:43 GMT 52.67991 6.94877 15,000 315 335 -2688
2017-09-14 06:53:41 GMT 52.67821 6.95152 15,075 315 335 -2688
2017-09-14 06:53:38 GMT 52.67532 6.95625 15,175 313 334 -2752
2017-09-14 06:53:36 GMT 52.67288 6.96094 15,300 308 332 -2880
2017-09-14 06:53:34 GMT 52.67130 6.96408 15,375 309 332 -2880
2017-09-14 06:53:32 GMT 52.66978 6.96732 15,450 309 332 -2880
2017-09-14 06:53:30 GMT 52.66785 6.97130 15,550 307 331 -2880
2017-09-14 06:53:28 GMT 52.66571 6.97594 15,650 306 331 -2752
2017-09-14 06:53:25 GMT 52.66392 6.98021 15,750 306 330 -2752
2017-09-14 06:53:22 GMT 52.66031 6.98809 15,925 306 330 -2688
2017-09-14 06:53:19 GMT 52.65706 6.99577 16,100 306 331 -2688
2017-09-14 06:53:16 GMT 52.65505 7.00064 16,200 306 331 -2688
2017-09-14 06:53:11 GMT 52.65109 7.00959 16,400 306 331 -2624
2017-09-14 06:53:09 GMT 52.64876 7.01532 16,500 306 332 -2560
2017-09-14 06:53:07 GMT 52.64690 7.01932 16,600 306 332 -2560
2017-09-14 06:53:05 GMT 52.64566 7.02232 16,650 306 332 -2496
2017-09-14 06:53:03 GMT 52.64448 7.02505 16,725 306 332 -2496
2017-09-14 06:53:01 GMT 52.64234 7.02984 16,800 306 333 -2368
2017-09-14 06:52:59 GMT 52.64015 7.03510 16,900 306 334 -2304
2017-09-14 06:52:57 GMT 52.63773 7.04059 17,000 306 334 -2240
2017-09-14 06:52:55 GMT 52.63652 7.04357 17,050 306 335 -2176
2017-09-14 06:52:51 GMT 52.63275 7.05236 17,200 306 336 -2048
2017-09-14 06:52:48 GMT 52.62977 7.05911 17,325 306 341 -1920
2017-09-14 06:52:46 GMT 52.62826 7.06230 17,375 306 340 -1984
2017-09-14 06:52:44 GMT 52.62694 7.06566 17,425 306 340 -1984
2017-09-14 06:52:42 GMT 52.62501 7.07008 17,475 306 341 -1920
2017-09-14 06:52:40 GMT 52.62323 7.07428 17,550 306 342 -1920
2017-09-14 06:52:37 GMT 52.61925 7.08343 17,675 306 344 -2112
2017-09-14 06:52:35 GMT 52.61837 7.08547 17,725 306 344 -2240
2017-09-14 06:52:33 GMT 52.61697 7.08861 17,775 306 344 -2304
2017-09-14 06:52:31 GMT 52.61501 7.09317 17,850 306 346 -2560
2017-09-14 06:52:28 GMT 52.61197 7.10030 18,000 306 347 -2624
2017-09-14 06:52:26 GMT 52.60994 7.10501 18,075 306 346 -2560
2017-09-14 06:52:24 GMT 52.60761 7.11012 18,200 306 347 -2624
2017-09-14 06:52:22 GMT 52.60629 7.11319 18,250 307 347 -2688
2017-09-14 06:52:20 GMT 52.60333 7.11953 18,400 307 347 -2688
2017-09-14 06:52:16 GMT 52.59993 7.12707 18,550 307 347 -2752
2017-09-14 06:52:14 GMT 52.59844 7.13036 18,625 308 347 -2752
2017-09-14 06:52:11 GMT 52.59598 7.13554 18,750 308 347 -2752
2017-09-14 06:52:09 GMT 52.59380 7.14058 18,850 308 347 -2752
2017-09-14 06:52:08 GMT 52.59270 7.14271 18,900 308 346 -2944
2017-09-14 06:52:06 GMT 52.59087 7.14691 18,975 308 347 -2816
2017-09-14 06:52:04 GMT 52.58848 7.15186 19,100 308 346 -2880
2017-09-14 06:52:01 GMT 52.58647 7.15637 19,200 308 346 -2944
2017-09-14 06:51:59 GMT 52.58290 7.16385 19,375 308 345 -2752
2017-09-14 06:51:56 GMT 52.58121 7.16744 19,475 308 346 -2816
2017-09-14 06:51:56 GMT 52.58121 7.16744 19,475 308 345 -2816
2017-09-14 06:51:54 GMT 52.57961 7.17094 19,550 308 345 -2816
2017-09-14 06:51:52 GMT 52.57663 7.17751 19,675 308 345 -2752
2017-09-14 06:51:47 GMT 52.57278 7.18605 19,875 308 346 -2560
2017-09-14 06:51:45 GMT 52.56977 7.19236 20,000 308 346 -2560
2017-09-14 06:51:43 GMT 52.56761 7.19681 20,100 308 346 -2496
2017-09-14 06:51:41 GMT 52.56665 7.19864 20,150 308 346 -2496
2017-09-14 06:51:38 GMT 52.56269 7.20742 20,300 308 347 -2304
2017-09-14 06:51:35 GMT 52.56006 7.21306 20,425 308 347 -2112
2017-09-14 06:51:33 GMT 52.55905 7.21504 20,450 308 347 -2048
2017-09-14 06:51:31 GMT 52.55653 7.22046 20,525 308 349 -1920
2017-09-14 06:51:27 GMT 52.55254 7.22885 20,650 309 351 -1792
2017-09-14 06:51:25 GMT 52.55081 7.23221 20,700 309 351 -1792
2017-09-14 06:51:23 GMT 52.54886 7.23662 20,775 309 352 -1792
2017-09-14 06:51:21 GMT 52.54619 7.24197 20,825 309 352 -1728
2017-09-14 06:51:19 GMT 52.54491 7.24457 20,875 309 353 -1728
2017-09-14 06:51:17 GMT 52.54183 7.25082 20,950 310 356 -1728
2017-09-14 06:51:14 GMT 52.53969 7.25514 21,025 310 357 -1664
2017-09-14 06:51:12 GMT 52.53795 7.25861 21,050 310 357 -1728
2017-09-14 06:51:10 GMT 52.53584 7.26288 21,125 310 357 -1664
2017-09-14 06:51:08 GMT 52.53383 7.26683 21,175 310 358 -1728
2017-09-14 06:51:06 GMT 52.53172 7.27089 21,225 311 359 -1728
2017-09-14 06:51:04 GMT 52.52866 7.27699 21,325 311 361 -1792
2017-09-14 06:51:02 GMT 52.52708 7.28009 21,350 311 361 -1856
2017-09-14 06:51:00 GMT 52.52508 7.28346 21,425 312 364 -1984
2017-09-14 06:50:58 GMT 52.52252 7.28864 21,500 313 367 -1984
2017-09-14 06:50:55 GMT 52.51884 7.29555 21,600 312 364 -1984
2017-09-14 06:50:53 GMT 52.51607 7.30034 21,675 312 366 -1984
2017-09-14 06:50:50 GMT 52.51320 7.30575 21,775 313 367 -1984
2017-09-14 06:50:48 GMT 52.51158 7.30881 21,825 313 368 -2048
2017-09-14 06:50:46 GMT 52.50860 7.31399 21,900 313 368 -2048
2017-09-14 06:50:44 GMT 52.50627 7.31831 21,975 313 369 -2048
2017-09-14 06:50:42 GMT 52.50380 7.32254 22,050 314 370 -2112
2017-09-14 06:50:40 GMT 52.50054 7.32812 22,150 314 371 -2112
2017-09-14 06:50:38 GMT 52.49872 7.33131 22,200 314 372 -2112
2017-09-14 06:50:35 GMT 52.49561 7.33667 22,300 314 372 -2176
2017-09-14 06:50:33 GMT 52.49268 7.34169 22,375 315 374 -2176
2017-09-14 06:50:31 GMT 52.49135 7.34398 22,425 314 373 -2176
2017-09-14 06:50:29 GMT 52.48886 7.34836 22,500 314 373 -2176
2017-09-14 06:50:27 GMT 52.48560 7.35362 22,600 315 374 -2240
2017-09-14 06:50:25 GMT 52.48398 7.35664 22,650 315 374 -2240
2017-09-14 06:50:23 GMT 52.48150 7.36076 22,725 315 374 -2304
2017-09-14 06:50:21 GMT 52.47908 7.36461 22,800 315 374 -2304
2017-09-14 06:50:21 GMT 52.47908 7.36461 22,800 315 375 -2304
2017-09-14 06:50:19 GMT 52.47656 7.36893 22,875 315 376 -2304
2017-09-14 06:50:17 GMT 52.47415 7.37308 22,950 315 377 -2304
2017-09-14 06:50:14 GMT 52.47002 7.37999 23,075 315 377 -2368
2017-09-14 06:50:12 GMT 52.46690 7.38487 23,175 315 377 -2368
2017-09-14 06:50:09 GMT 52.46363 7.39019 23,275 316 379 -2304
2017-09-14 06:50:05 GMT 52.45869 7.39819 23,450 316 379 -2368
2017-09-14 06:50:03 GMT 52.45678 7.40133 23,500 316 379 -2304
2017-09-14 06:50:01 GMT 52.45450 7.40518 23,575 316 379 -2304
2017-09-14 06:49:59 GMT 52.45248 7.40814 23,625 316 379 -2240
2017-09-14 06:49:57 GMT 52.45015 7.41219 23,725 316 379 -2240
2017-09-14 06:49:55 GMT 52.44585 7.41905 23,825 316 380 -2112
2017-09-14 06:49:53 GMT 52.44440 7.42126 23,875 316 380 -2112
2017-09-14 06:49:50 GMT 52.44049 7.42754 23,975 316 381 -1984
2017-09-14 06:49:48 GMT 52.43843 7.43080 24,025 316 381 -1920
2017-09-14 06:49:46 GMT 52.43565 7.43531 24,100 316 382 -1792
2017-09-14 06:49:43 GMT 52.43109 7.44245 24,225 316 383 -1600
2017-09-14 06:49:40 GMT 52.42781 7.44782 24,275 316 384 -1536
2017-09-14 06:49:38 GMT 52.42511 7.45209 24,325 316 385 -1408
2017-09-14 06:49:36 GMT 52.42255 7.45628 24,375 316 386 -1344
2017-09-14 06:49:33 GMT 52.41801 7.46345 24,450 316 391 -1408
2017-09-14 06:49:31 GMT 52.41687 7.46513 24,475 316 389 -1344
2017-09-14 06:49:29 GMT 52.41380 7.47017 24,525 316 391 -1408
2017-09-14 06:49:26 GMT 52.40922 7.47742 24,625 316 393 -1600
2017-09-14 06:49:23 GMT 52.40447 7.48489 24,725 316 395 -1792
2017-09-14 06:49:23 GMT 52.40447 7.48489 24,725 316 396 -1984
2017-09-14 06:49:20 GMT 52.40103 7.49039 24,800 316 395 -1984
2017-09-14 06:49:18 GMT 52.39980 7.49222 24,825 316 396 -2048
2017-09-14 06:49:16 GMT 52.39710 7.49676 24,900 316 396 -2240
2017-09-14 06:49:14 GMT 52.39430 7.50122 24,975 316 397 -2304
2017-09-14 06:49:12 GMT 52.39045 7.50719 25,100 316 397 -2432
2017-09-14 06:49:10 GMT 52.38927 7.50938 25,125 316 398 -2432
2017-09-14 06:49:08 GMT 52.38657 7.51343 25,225 316 398 -2368
2017-09-14 06:49:06 GMT 52.38332 7.51884 25,325 316 398 -2368
2017-09-14 06:49:04 GMT 52.38044 7.52344 25,400 316 398 -2304
2017-09-14 06:49:02 GMT 52.37846 7.52655 25,450 316 398 -2240
2017-09-14 06:49:00 GMT 52.37592 7.53074 25,525 316 398 -2240
2017-09-14 06:48:58 GMT 52.37350 7.53458 25,600 316 399 -2240
2017-09-14 06:48:58 GMT 52.37299 7.53544 25,600 316 399 -2240
2017-09-14 06:48:56 GMT 52.36959 7.54086 25,700 316 400 -2240
2017-09-14 06:48:54 GMT 52.36764 7.54392 25,750 316 400 -2240
2017-09-14 06:48:51 GMT 52.36345 7.55059 25,875 316 401 -2304
2017-09-14 06:48:49 GMT 52.36028 7.55585 25,975 316 401 -2304
2017-09-14 06:48:47 GMT 52.35841 7.55875 26,025 316 402 -2304
2017-09-14 06:48:45 GMT 52.35594 7.56271 26,100 316 403 -2304
2017-09-14 06:48:43 GMT 52.35255 7.56801 26,200 316 403 -2240
2017-09-14 06:48:40 GMT 52.34839 7.57461 26,300 316 403 -2240
2017-09-14 06:48:38 GMT 52.34587 7.57881 26,375 316 404 -2240
2017-09-14 06:48:36 GMT 52.34376 7.58240 26,450 316 404 -2240
2017-09-14 06:48:34 GMT 52.34161 7.58567 26,500 316 405 -2176
2017-09-14 06:48:31 GMT 52.33598 7.59453 26,650 316 406 -2240
2017-09-14 06:48:29 GMT 52.33379 7.59838 26,700 316 406 -2176
2017-09-14 06:48:27 GMT 52.33184 7.60136 26,775 316 407 -2176
2017-09-14 06:48:27 GMT 52.33184 7.60136 26,775 316 407 -2176
2017-09-14 06:48:25 GMT 52.32928 7.60568 26,825 316 408 -2112
2017-09-14 06:48:23 GMT 52.32495 7.61276 26,950 315 409 -2112
2017-09-14 06:48:19 GMT 52.32132 7.61871 27,050 315 409 -2112
2017-09-14 06:48:17 GMT 52.31717 7.62522 27,150 315 410 -2048
2017-09-14 06:48:15 GMT 52.31515 7.62856 27,200 315 410 -2048
2017-09-14 06:48:12 GMT 52.31154 7.63474 27,300 315 412 -2048
2017-09-14 06:48:10 GMT 52.30940 7.63825 27,350 315 412 -2048
2017-09-14 06:48:08 GMT 52.30522 7.64504 27,450 315 412 -2048
2017-09-14 06:48:05 GMT 52.30214 7.65017 27,525 315 414 -2048
2017-09-14 06:48:02 GMT 52.29939 7.65488 27,600 315 415 -2048
2017-09-14 06:48:00 GMT 52.29511 7.66179 27,700 315 417 -2048
2017-09-14 06:47:58 GMT 52.29176 7.66746 27,800 315 417 -2048
2017-09-14 06:47:56 GMT 52.29050 7.66948 27,825 315 417 -2048
2017-09-14 06:47:54 GMT 52.28838 7.67303 27,875 315 417 -2048
2017-09-14 06:47:51 GMT 52.28314 7.68172 28,000 315 421 -2112
2017-09-14 06:47:49 GMT 52.28046 7.68608 28,075 315 421 -2112
2017-09-14 06:47:49 GMT 52.28046 7.68608 28,075 315 422 -2304
2017-09-14 06:47:48 GMT 52.27840 7.68936 28,125 315 420 -2048
2017-09-14 06:47:46 GMT 52.27643 7.69287 28,175 315 421 -2176
2017-09-14 06:47:44 GMT 52.27416 7.69655 28,225 315 422 -2240
2017-09-14 06:47:42 GMT 52.27137 7.70118 28,325 315 423 -2432
2017-09-14 06:47:40 GMT 52.26764 7.70746 28,425 315 424 -2496
2017-09-14 06:47:38 GMT 52.26541 7.71115 28,500 315 424 -2560
2017-09-14 06:47:35 GMT 52.26178 7.71719 28,625 315 424 -2880
2017-09-14 06:47:34 GMT 52.26047 7.71931 28,650 315 424 -3008
2017-09-14 06:47:33 GMT 52.25954 7.72057 28,700 315 424 -2944
2017-09-14 06:47:33 GMT 52.25954 7.72057 28,700 316 424 -3136
2017-09-14 06:47:30 GMT 52.25456 7.72880 28,875 316 424 -3456
2017-09-14 06:47:28 GMT 52.25247 7.73218 28,975 316 423 -3584
2017-09-14 06:47:26 GMT 52.24809 7.73924 29,150 316 423 -3648
2017-09-14 06:47:24 GMT 52.24618 7.74238 29,250 316 422 -3584
2017-09-14 06:47:22 GMT 52.24429 7.74551 29,325 316 422 -3584
2017-09-14 06:47:20 GMT 52.23962 7.75305 29,525 316 421 -3520
2017-09-14 06:47:18 GMT 52.23798 7.75543 29,600 316 420 -3456
2017-09-14 06:47:16 GMT 52.23518 7.76001 29,700 316 420 -3456
2017-09-14 06:47:14 GMT 52.23180 7.76553 29,850 316 420 -3456
2017-09-14 06:47:12 GMT 52.22891 7.77023 29,975 316 419 -3328
2017-09-14 06:47:10 GMT 52.22534 7.77580 30,100 316 418 -3264
2017-09-14 06:47:08 GMT 52.22392 7.77817 30,175 316 418 -3264
2017-09-14 06:47:05 GMT 52.22035 7.78389 30,300 316 417 -3200
2017-09-14 06:47:03 GMT 52.21710 7.78923 30,425 316 417 -3008
2017-09-14 06:47:01 GMT 52.21435 7.79366 30,525 316 417 -2816
2017-09-14 06:46:58 GMT 52.20894 7.80225 30,700 315 417 -2368
2017-09-14 06:46:56 GMT 52.20657 7.80618 30,775 315 417 -2368
2017-09-14 06:46:54 GMT 52.20598 7.80708 30,800 315 416 -2368
2017-09-14 06:46:52 GMT 52.20186 7.81380 30,925 315 417 -2240
2017-09-14 06:46:50 GMT 52.19815 7.82005 31,025 315 417 -2176
2017-09-14 06:46:48 GMT 52.19744 7.82125 31,050 315 417 -2176
2017-09-14 06:46:46 GMT 52.19421 7.82669 31,125 314 420 -1984
2017-09-14 06:46:44 GMT 52.19105 7.83157 31,200 315 418 -2048
2017-09-14 06:46:41 GMT 52.18716 7.83836 31,325 315 419 -1984
2017-09-14 06:46:39 GMT 52.18403 7.84369 31,400 315 420 -1984
2017-09-14 06:46:39 GMT 52.18403 7.84369 31,400 314 420 -2048
2017-09-14 06:46:37 GMT 52.18098 7.84882 31,475 314 420 -1984
2017-09-14 06:46:35 GMT 52.18017 7.85020 31,500 314 420 -2048
2017-09-14 06:46:33 GMT 52.17664 7.85591 31,575 315 422 -3072
2017-09-14 06:46:30 GMT 52.17265 7.86255 31,675 314 420 -2112
2017-09-14 06:46:27 GMT 52.16844 7.86980 31,800 314 422 -2176
2017-09-14 06:46:25 GMT 52.16430 7.87696 31,900 314 422 -2304
2017-09-14 06:46:23 GMT 52.16281 7.87963 31,950 314 422 -2368
2017-09-14 06:46:20 GMT 52.15768 7.88811 32,100 314 422 -2496
2017-09-14 06:46:17 GMT 52.15433 7.89368 32,225 314 423 -2624
2017-09-14 06:46:15 GMT 52.15068 7.89986 32,325 315 422 -2688
2017-09-14 06:46:13 GMT 52.15005 7.90113 32,350 315 423 -2816
2017-09-14 06:46:11 GMT 52.14693 7.90631 32,475 315 423 -2880
2017-09-14 06:46:09 GMT 52.14423 7.91071 32,575 315 422 -3008
2017-09-14 06:46:07 GMT 52.14162 7.91518 32,650 315 422 -3008
2017-09-14 06:46:05 GMT 52.13896 7.91954 32,775 315 422 -3008
2017-09-14 06:46:03 GMT 52.13562 7.92511 32,900 315 421 -3072
2017-09-14 06:46:00 GMT 52.13134 7.93205 33,050 315 420 -3072
2017-09-14 06:45:58 GMT 52.12807 7.93755 33,175 315 419 -3072
2017-09-14 06:45:55 GMT 52.12328 7.94563 33,350 315 418 -3008
2017-09-14 06:45:53 GMT 52.12262 7.94670 33,375 315 418 -3008
2017-09-14 06:45:50 GMT 52.11793 7.95473 33,550 315 417 -2880
2017-09-14 06:45:48 GMT 52.11461 7.96013 33,675 314 415 -2816
2017-09-14 06:45:46 GMT 52.11174 7.96485 33,775 314 415 -2816
2017-09-14 06:45:43 GMT 52.10802 7.97127 33,900 314 414 -2752
2017-09-14 06:45:40 GMT 52.10545 7.97577 34,000 314 413 -2688
2017-09-14 06:45:38 GMT 52.10289 7.98008 34,075 313 410 -2560
2017-09-14 06:45:36 GMT 52.10023 7.98492 34,175 313 411 -2560
2017-09-14 06:45:34 GMT 52.09758 7.98973 34,250 313 410 -2560
2017-09-14 06:45:32 GMT 52.09497 7.99446 34,350 312 409 -2368
2017-09-14 06:45:30 GMT 52.09236 7.99911 34,425 311 408 -2304
2017-09-14 06:45:28 GMT 52.09085 8.00209 34,475 311 407 -2240
2017-09-14 06:45:26 GMT 52.08820 8.00713 34,550 310 405 -2112
2017-09-14 06:45:24 GMT 52.08469 8.01445 34,650 309 403 -2048
2017-09-14 06:45:21 GMT 52.08157 8.02065 34,725 307 402 -1984
2017-09-14 06:45:18 GMT 52.07785 8.02925 34,850 305 399 -1856
2017-09-14 06:45:16 GMT 52.07524 8.03535 34,925 303 397 -1792
2017-09-14 06:45:13 GMT 52.07300 8.04146 34,975 302 395 -1664
2017-09-14 06:45:11 GMT 52.07119 8.04615 35,025 300 394 -1600
2017-09-14 06:45:09 GMT 52.07021 8.04909 35,075 300 394 -1536
2017-09-14 06:45:07 GMT 52.06710 8.05855 35,150 296 390 -1472
2017-09-14 06:45:05 GMT 52.06603 8.06240 35,175 295 390 -1472
2017-09-14 06:45:03 GMT 52.06439 8.06789 35,225 294 388 -1408
2017-09-14 06:45:01 GMT 52.06348 8.07167 35,275 293 387 -1344
2017-09-14 06:45:01 GMT 52.06348 8.07167 35,275 293 387 -1344
2017-09-14 06:44:58 GMT 52.06165 8.07900 35,325 288 383 -1088
2017-09-14 06:44:56 GMT 52.06000 8.08586 35,375 289 384 -1152
2017-09-14 06:44:54 GMT 52.05881 8.09237 35,425 287 382 -1024
2017-09-14 06:44:52 GMT 52.05789 8.09647 35,450 286 382 -832
2017-09-14 06:44:50 GMT 52.05707 8.10173 35,475 284 381 -576
2017-09-14 06:44:50 GMT 52.05707 8.10173 35,475 285 381 -704
2017-09-14 06:44:48 GMT 52.05583 8.10913 35,500 279 379 -576
2017-09-14 06:44:46 GMT 52.05537 8.11340 35,525 282 380 -512
2017-09-14 06:44:43 GMT 52.05415 8.12290 35,550 281 379 -576
2017-09-14 06:44:40 GMT 52.05327 8.13090 35,575 278 379 -512
2017-09-14 06:44:36 GMT 52.05243 8.14126 35,600 277 379 -512
2017-09-14 06:44:34 GMT 52.05208 8.14552 35,625 277 379 -512
2017-09-14 06:44:31 GMT 52.05122 8.15766 35,650 277 380 -448
2017-09-14 06:44:29 GMT 52.05103 8.15900 35,650 277 380 -512
2017-09-14 06:44:27 GMT 52.05052 8.16711 35,675 277 381 -448
2017-09-14 06:44:25 GMT 52.05020 8.17296 35,700 277 382 -448
2017-09-14 06:44:22 GMT 52.04947 8.18146 35,725 277 382 -512
2017-09-14 06:44:20 GMT 52.04913 8.18748 35,725 277 383 -512
2017-09-14 06:44:17 GMT 52.04846 8.19626 35,750 277 383 -448
2017-09-14 06:44:15 GMT 52.04814 8.20091 35,775 277 383 -448
2017-09-14 06:44:13 GMT 52.04778 8.20553 35,775 277 383 -448
2017-09-14 06:44:11 GMT 52.04727 8.21312 35,800 277 383 -448
2017-09-14 06:44:09 GMT 52.04708 8.21762 35,825 277 383 -448
2017-09-14 06:44:06 GMT 52.04640 8.22624 35,850 277 383 -448
2017-09-14 06:44:04 GMT 52.04605 8.23237 35,850 277 383 -448
2017-09-14 06:44:02 GMT 52.04553 8.23822 35,875 277 382 -448
2017-09-14 06:44:00 GMT 52.04503 8.24692 35,900 277 382 -448
2017-09-14 06:43:58 GMT 52.04484 8.24995 35,900 277 382 -448
2017-09-14 06:43:55 GMT 52.04433 8.25779 35,925 277 381 -448
2017-09-14 06:43:53 GMT 52.04379 8.26393 35,950 277 380 -448
2017-09-14 06:43:51 GMT 52.04331 8.27200 35,950 277 380 -512
2017-09-14 06:43:49 GMT 52.04297 8.27652 35,975 277 379 -512
2017-09-14 06:43:45 GMT 52.04228 8.28651 36,000 277 378 -512
2017-09-14 06:43:43 GMT 52.04192 8.29224 36,025 277 376 0
2017-09-14 06:43:41 GMT 52.04140 8.29790 36,025 277 377 -384
2017-09-14 06:43:39 GMT 52.04107 8.30315 36,050 277 376 0
2017-09-14 06:43:37 GMT 52.04093 8.30637 36,050 277 376 -128
2017-09-14 06:43:34 GMT 52.04004 8.31703 36,050 277 376 0
2017-09-14 06:43:32 GMT 52.03949 8.32544 36,050 277 376 64
2017-09-14 06:43:30 GMT 52.03935 8.32795 36,050 277 376 0
2017-09-14 06:43:29 GMT 52.03899 8.33252 36,050 277 376 0
2017-09-14 06:43:28 GMT 52.03899 8.33252 36,050 277 376 0
2017-09-14 06:43:26 GMT 52.03851 8.33988 36,050 277 375 64
2017-09-14 06:43:24 GMT 52.03798 8.34724 36,050 277 375 0
2017-09-14 06:43:22 GMT 52.03766 8.35243 36,050 277 375 64
2017-09-14 06:43:19 GMT 52.03697 8.36075 36,050 277 375 0
2017-09-14 06:43:17 GMT 52.03679 8.36357 36,050 277 375 0
2017-09-14 06:43:14 GMT 52.03628 8.37237 36,050 277 375 0
2017-09-14 06:43:12 GMT 52.03577 8.37817 36,050 277 375 0
2017-09-14 06:43:10 GMT 52.03544 8.38367 36,050 277 375 0
2017-09-14 06:43:08 GMT 52.03488 8.38947 36,050 277 375 0
2017-09-14 06:43:06 GMT 52.03473 8.39333 36,050 277 374 0
2017-09-14 06:43:03 GMT 52.03386 8.40469 36,050 277 374 0
2017-09-14 06:43:01 GMT 52.03336 8.41110 36,050 277 374 0
2017-09-14 06:42:59 GMT 52.03299 8.41713 36,050 277 373 0
2017-09-14 06:42:56 GMT 52.03232 8.42573 36,050 277 373 0
2017-09-14 06:42:54 GMT 52.03195 8.43099 36,050 277 373 0
2017-09-14 06:42:52 GMT 52.03166 8.43559 36,050 277 374 0
2017-09-14 06:42:52 GMT 52.03181 8.43405 36,050 277 374 0
2017-09-14 06:42:50 GMT 52.03130 8.44001 36,050 277 373 0
2017-09-14 06:42:48 GMT 52.03097 8.44551 36,050 277 373 0
2017-09-14 06:42:46 GMT 52.03043 8.45337 36,050 277 373 -64
2017-09-14 06:42:42 GMT 52.02976 8.46159 36,050 277 372 0
2017-09-14 06:42:39 GMT 52.02925 8.46881 36,050 277 372 0
2017-09-14 06:42:37 GMT 52.02887 8.47458 36,050 277 372 0
2017-09-14 06:42:35 GMT 52.02836 8.48145 36,050 277 371 0
2017-09-14 06:42:33 GMT 52.02785 8.48929 36,050 277 371 0
2017-09-14 06:42:31 GMT 52.02768 8.49091 36,050 277 371 0
2017-09-14 06:42:29 GMT 52.02734 8.49730 36,050 277 371 0
2017-09-14 06:42:27 GMT 52.02683 8.50357 36,050 277 371 0
2017-09-14 06:42:25 GMT 52.02649 8.50883 36,050 277 371 0
2017-09-14 06:42:23 GMT 52.02599 8.51433 36,050 277 371 0
2017-09-14 06:42:21 GMT 52.02562 8.51935 36,050 277 370 0
2017-09-14 06:42:19 GMT 52.02512 8.52722 36,050 277 370 0
2017-09-14 06:42:19 GMT 52.02497 8.52869 36,050 277 370 0
2017-09-14 06:42:17 GMT 52.02478 8.53159 36,050 277 370 0
2017-09-14 06:42:15 GMT 52.02443 8.53714 36,050 277 370 0
2017-09-14 06:42:13 GMT 52.02408 8.54124 36,050 277 370 0
2017-09-14 06:42:11 GMT 52.02338 8.54987 36,050 277 370 64
2017-09-14 06:42:08 GMT 52.02306 8.55560 36,050 277 369 0
2017-09-14 06:42:06 GMT 52.02236 8.56431 36,050 277 368 0
2017-09-14 06:42:04 GMT 52.02219 8.56735 36,050 277 368 -64
2017-09-14 06:42:01 GMT 52.02132 8.57841 36,050 277 369 0
2017-09-14 06:41:58 GMT 52.02101 8.58291 36,050 277 369 0
2017-09-14 06:41:56 GMT 52.02064 8.58888 36,050 277 369 0
2017-09-14 06:41:54 GMT 52.02031 8.59352 36,050 277 368 -64
2017-09-14 06:41:52 GMT 52.01980 8.60018 36,050 277 368 -64
2017-09-14 06:41:52 GMT 52.01980 8.60018 36,050 277 368 -64
2017-09-14 06:41:50 GMT 52.01930 8.60550 36,050 277 368 -64
2017-09-14 06:41:48 GMT 52.01896 8.61101 36,050 277 368 -64
2017-09-14 06:41:46 GMT 52.01859 8.61634 36,050 277 368 0
2017-09-14 06:41:44 GMT 52.01808 8.62356 36,050 277 368 0
2017-09-14 06:41:42 GMT 52.01775 8.62749 36,050 277 368 0
2017-09-14 06:41:40 GMT 52.01738 8.63388 36,050 277 367 0
2017-09-14 06:41:38 GMT 52.01705 8.63831 36,050 277 367 0
2017-09-14 06:41:36 GMT 52.01654 8.64522 36,050 277 367 0
2017-09-14 06:41:34 GMT 52.01601 8.65082 36,050 277 367 0
2017-09-14 06:41:31 GMT 52.01564 8.65631 36,050 277 367 0
2017-09-14 06:41:28 GMT 52.01500 8.66577 36,050 277 367 0
2017-09-14 06:41:26 GMT 52.01449 8.67221 36,050 277 366 0
2017-09-14 06:41:24 GMT 52.01393 8.67920 36,050 277 366 0
2017-09-14 06:41:22 GMT 52.01376 8.68301 36,050 277 366 0
2017-09-14 06:41:20 GMT 52.01328 8.68885 36,050 277 366 0
2017-09-14 06:41:18 GMT 52.01309 8.69152 36,050 277 366 0
2017-09-14 06:41:16 GMT 52.01258 8.69725 36,050 277 366 0
2017-09-14 06:41:14 GMT 52.01221 8.70329 36,050 277 366 0
2017-09-14 06:41:12 GMT 52.01175 8.71048 36,050 277 366 0
2017-09-14 06:41:10 GMT 52.01137 8.71498 36,050 277 365 0
2017-09-14 06:41:08 GMT 52.01088 8.72200 36,050 277 365 0
2017-09-14 06:41:06 GMT 52.01051 8.72604 36,050 277 365 0
2017-09-14 06:41:04 GMT 52.01015 8.73039 36,050 277 365 0
2017-09-14 06:41:02 GMT 52.00970 8.73711 36,050 277 365 0
2017-09-14 06:41:00 GMT 52.00914 8.74405 36,050 277 365 0
2017-09-14 06:40:58 GMT 52.00896 8.74779 36,050 277 365 0
2017-09-14 06:40:56 GMT 52.00844 8.75320 36,050 277 365 -64
2017-09-14 06:40:54 GMT 52.00813 8.75824 36,050 277 364 0
2017-09-14 06:40:52 GMT 52.00740 8.76694 36,050 277 364 0
2017-09-14 06:40:50 GMT 52.00742 8.76827 36,050 277 364 0
2017-09-14 06:40:48 GMT 52.00672 8.77643 36,050 277 364 0
2017-09-14 06:40:46 GMT 52.00658 8.77914 36,050 277 364 0
2017-09-14 06:40:44 GMT 52.00589 8.78769 36,050 277 364 0
2017-09-14 06:40:42 GMT 52.00552 8.79318 36,050 277 363 0
2017-09-14 06:40:39 GMT 52.00518 8.79879 36,050 277 363 0
2017-09-14 06:40:36 GMT 52.00453 8.80774 36,050 277 363 0
2017-09-14 06:40:33 GMT 52.00383 8.81577 36,050 277 363 0
2017-09-14 06:40:29 GMT 52.00296 8.82729 36,050 277 363 0
2017-09-14 06:40:26 GMT 52.00246 8.83484 36,050 277 363 0
2017-09-14 06:40:24 GMT 52.00177 8.84262 36,050 277 363 0
2017-09-14 06:40:22 GMT 52.00160 8.84541 36,050 277 363 0
2017-09-14 06:40:20 GMT 52.00127 8.85082 36,050 277 362 0
2017-09-14 06:40:18 GMT 52.00071 8.85655 36,050 277 362 0
2017-09-14 06:40:16 GMT 52.00025 8.86314 36,050 277 362 0
2017-09-14 06:40:15 GMT 52.00040 8.86192 36,050 277 362 0
2017-09-14 06:40:12 GMT 51.99934 8.87436 36,050 277 362 0
2017-09-14 06:40:10 GMT 51.99918 8.87844 36,050 277 362 0
2017-09-14 06:40:08 GMT 51.99866 8.88412 36,050 277 362 0
2017-09-14 06:40:05 GMT 51.99783 8.89508 36,050 275 361 0
2017-09-14 06:40:02 GMT 51.99745 8.90057 36,050 277 361 0
2017-09-14 06:39:59 GMT 51.99696 8.90755 36,050 277 361 0
2017-09-14 06:39:59 GMT 51.99696 8.90617 36,050 277 361 0
2017-09-14 06:39:57 GMT 51.99628 8.91502 36,050 277 361 0
2017-09-14 06:39:55 GMT 51.99610 8.91784 36,050 277 361 0
2017-09-14 06:39:53 GMT 51.99559 8.92471 36,050 277 361 0
2017-09-14 06:39:51 GMT 51.99527 8.92859 36,050 277 361 0
2017-09-14 06:39:48 GMT 51.99489 8.93440 36,050 277 361 0
2017-09-14 06:39:46 GMT 51.99438 8.94185 36,050 278 360 0
2017-09-14 06:39:44 GMT 51.99387 8.94852 36,050 275 359 0
2017-09-14 06:39:42 GMT 51.99336 8.95362 36,050 277 360 0
2017-09-14 06:39:40 GMT 51.99316 8.95767 36,050 277 360 0
2017-09-14 06:39:38 GMT 51.99271 8.96271 36,050 278 360 0
2017-09-14 06:39:38 GMT 51.99271 8.96271 36,050 277 360 0
2017-09-14 06:39:36 GMT 51.99216 8.96988 36,050 277 360 0
2017-09-14 06:39:33 GMT 51.99165 8.97659 36,050 277 359 0
2017-09-14 06:39:31 GMT 51.99126 8.98140 36,050 277 359 0
2017-09-14 06:39:29 GMT 51.99078 8.98834 36,050 277 359 0
2017-09-14 06:39:29 GMT 51.99078 8.98834 36,050 277 359 0
2017-09-14 06:39:26 GMT 51.99024 8.99521 36,050 277 359 0
2017-09-14 06:39:24 GMT 51.98973 9.00306 36,050 275 357 0
2017-09-14 06:39:21 GMT 51.98927 9.00871 36,050 277 358 0
2017-09-14 06:39:18 GMT 51.98872 9.01642 36,050 277 358 0
2017-09-14 06:39:14 GMT 51.98767 9.02908 36,050 278 357 0
2017-09-14 06:39:12 GMT 51.98754 9.03076 36,050 277 357 0
2017-09-14 06:39:10 GMT 51.98698 9.03767 36,050 278 357 0
2017-09-14 06:39:08 GMT 51.98665 9.04316 36,050 278 357 0
2017-09-14 06:39:06 GMT 51.98598 9.05113 36,050 277 356 0
2017-09-14 06:39:04 GMT 51.98582 9.05352 36,050 277 357 0
2017-09-14 06:39:02 GMT 51.98549 9.05823 36,050 277 356 0
2017-09-14 06:39:02 GMT 51.98530 9.06035 36,050 278 356 0
2017-09-14 06:39:02 GMT 51.98530 9.06035 36,050 275 355 0
2017-09-14 06:38:59 GMT 51.98461 9.06992 36,050 278 356 0
2017-09-14 06:38:57 GMT 51.98442 9.07127 36,050 278 356 0
2017-09-14 06:38:57 GMT 51.98442 9.07127 36,050 278 356 0
2017-09-14 06:38:54 GMT 51.98373 9.08058 36,050 278 356 0
2017-09-14 06:38:52 GMT 51.98325 9.08616 36,050 275 355 0
2017-09-14 06:38:50 GMT 51.98288 9.09119 36,050 278 356 0
2017-09-14 06:38:47 GMT 51.98236 9.09752 36,050 278 356 0
2017-09-14 06:38:47 GMT 51.98236 9.09752 36,050 278 356 0
2017-09-14 06:38:43 GMT 51.98153 9.10947 36,050 278 356 64
2017-09-14 06:38:40 GMT 51.98083 9.11748 36,050 278 356 64
2017-09-14 06:38:38 GMT 51.98048 9.12300 36,050 278 356 64
2017-09-14 06:38:36 GMT 51.97995 9.12830 36,050 278 356 64
2017-09-14 06:38:35 GMT 51.97998 9.12979 36,050 278 356 0
2017-09-14 06:38:35 GMT 51.97998 9.12979 36,050 278 356 64
2017-09-14 06:38:33 GMT 51.97930 9.13796 36,050 278 356 0
2017-09-14 06:38:31 GMT 51.97911 9.14086 36,050 275 355 0
2017-09-14 06:38:29 GMT 51.97841 9.14957 36,050 278 356 0
2017-09-14 06:38:27 GMT 51.97824 9.15093 36,050 278 356 0
2017-09-14 06:38:25 GMT 51.97755 9.15878 36,050 278 356 64
2017-09-14 06:38:22 GMT 51.97701 9.16710 36,050 275 355 0
2017-09-14 06:38:20 GMT 51.97655 9.17252 36,050 278 356 0
2017-09-14 06:38:18 GMT 51.97618 9.17751 36,050 278 356 0
2017-09-14 06:38:17 GMT 51.97604 9.18010 36,050 278 356 0
2017-09-14 06:38:16 GMT 51.97604 9.18010 36,050 278 355 0
2017-09-14 06:38:16 GMT 51.97604 9.18010 36,050 278 355 0
2017-09-14 06:38:13 GMT 51.97534 9.18771 36,050 278 355 0
2017-09-14 06:38:11 GMT 51.97481 9.19617 36,050 275 354 0
2017-09-14 06:38:08 GMT 51.97449 9.20006 36,050 278 355 0
2017-09-14 06:38:06 GMT 51.97376 9.20764 36,050 278 355 -64
2017-09-14 06:38:03 GMT 51.97307 9.21608 36,050 278 354 0
2017-09-14 06:38:01 GMT 51.97278 9.22161 36,050 275 353 0
2017-09-14 06:37:59 GMT 51.97222 9.22828 36,050 278 354 0
2017-09-14 06:37:59 GMT 51.97222 9.22828 36,050 278 354 0
2017-09-14 06:37:59 GMT 51.97222 9.22718 36,050 278 354 0
2017-09-14 06:37:56 GMT 51.97174 9.23500 36,050 278 354 0
2017-09-14 06:37:54 GMT 51.97119 9.24034 36,050 278 354 0
2017-09-14 06:37:51 GMT 51.97069 9.24727 36,050 275 352 0
2017-09-14 06:37:48 GMT 51.97018 9.25430 36,050 278 353 0
2017-09-14 06:37:46 GMT 51.96966 9.26006 36,050 278 353 0
2017-09-14 06:37:44 GMT 51.96934 9.26532 36,050 278 353 -64
2017-09-14 06:37:42 GMT 51.96882 9.27058 36,050 278 352 0
2017-09-14 06:37:40 GMT 51.96845 9.27615 36,075 278 352 0
2017-09-14 06:37:38 GMT 51.96794 9.28211 36,050 278 352 0
2017-09-14 06:37:38 GMT 51.96794 9.28211 36,050 278 352 0
2017-09-14 06:37:35 GMT 51.96761 9.28721 36,050 278 351 0
2017-09-14 06:37:33 GMT 51.96693 9.29504 36,050 278 351 -64
2017-09-14 06:37:31 GMT 51.96643 9.30244 36,050 275 350 -64
2017-09-14 06:37:28 GMT 51.96606 9.30656 36,050 278 351 -64
2017-09-14 06:37:26 GMT 51.96570 9.31061 36,075 278 350 -64
2017-09-14 06:37:23 GMT 51.96501 9.32057 36,050 278 350 64
2017-09-14 06:37:20 GMT 51.96435 9.32739 36,050 275 349 0
2017-09-14 06:37:18 GMT 51.96384 9.33548 36,050 278 349 0
2017-09-14 06:37:16 GMT 51.96346 9.33922 36,050 278 349 0
2017-09-14 06:37:14 GMT 51.96328 9.34175 36,050 278 349 0
2017-09-14 06:37:12 GMT 51.96277 9.34842 36,050 278 349 0
2017-09-14 06:37:10 GMT 51.96227 9.35478 36,050 275 348 0
2017-09-14 06:37:06 GMT 51.96158 9.36363 36,050 278 348 0
2017-09-14 06:37:06 GMT 51.96158 9.36363 36,050 278 348 0
2017-09-14 06:37:04 GMT 51.96105 9.36977 36,050 278 348 0
2017-09-14 06:37:02 GMT 51.96039 9.37797 36,050 278 348 0
2017-09-14 06:36:59 GMT 51.96007 9.38201 36,050 275 347 0
2017-09-14 06:36:56 GMT 51.95923 9.39323 36,050 278 348 0
2017-09-14 06:36:54 GMT 51.95905 9.39425 36,050 278 348 0
2017-09-14 06:36:52 GMT 51.95869 9.40002 36,050 278 348 0
2017-09-14 06:36:50 GMT 51.95835 9.40422 36,050 278 348 64
2017-09-14 06:36:48 GMT 51.95784 9.41073 36,050 275 347 0
2017-09-14 06:36:46 GMT 51.95728 9.41740 36,050 278 348 0
2017-09-14 06:36:46 GMT 51.95714 9.41872 36,050 278 347 0
2017-09-14 06:36:44 GMT 51.95696 9.42139 36,050 278 348 0
2017-09-14 06:36:42 GMT 51.95645 9.42772 36,050 278 347 0
2017-09-14 06:36:40 GMT 51.95595 9.43382 36,050 276 346 0
2017-09-14 06:36:36 GMT 51.95522 9.44168 36,050 278 347 0
2017-09-14 06:36:34 GMT 51.95490 9.44691 36,050 278 347 0
2017-09-14 06:36:30 GMT 51.95388 9.45993 36,050 276 346 0
2017-09-14 06:36:27 GMT 51.95337 9.46668 36,050 278 347 0
2017-09-14 06:36:24 GMT 51.95265 9.47456 36,050 278 346 0
2017-09-14 06:36:21 GMT 51.95215 9.48074 36,050 278 346 0
2017-09-14 06:36:19 GMT 51.95183 9.48586 36,050 276 345 64
2017-09-14 06:36:17 GMT 51.95146 9.48936 36,050 278 346 0
2017-09-14 06:36:15 GMT 51.95081 9.49752 36,050 278 346 0
2017-09-14 06:36:13 GMT 51.95059 9.50043 36,050 278 346 64
2017-09-14 06:36:11 GMT 51.95011 9.50545 36,050 278 346 64
2017-09-14 06:36:09 GMT 51.94974 9.51157 36,050 276 344 64
2017-09-14 06:36:07 GMT 51.94927 9.51659 36,050 278 345 0
2017-09-14 06:36:05 GMT 51.94890 9.52164 36,050 278 345 0
2017-09-14 06:36:03 GMT 51.94839 9.52690 36,050 278 345 -64
2017-09-14 06:35:59 GMT 51.94769 9.53731 36,050 278 345 0
2017-09-14 06:35:57 GMT 51.94718 9.54327 36,050 278 344 0
2017-09-14 06:35:54 GMT 51.94647 9.55063 36,050 278 344 0
2017-09-14 06:35:52 GMT 51.94633 9.55307 36,050 278 344 64
2017-09-14 06:35:49 GMT 51.94564 9.56101 36,050 278 344 0
2017-09-14 06:35:47 GMT 51.94513 9.56737 36,050 278 344 -64
2017-09-14 06:35:45 GMT 51.94459 9.57405 36,050 278 344 -64
2017-09-14 06:35:43 GMT 51.94424 9.57945 36,050 278 343 -64
2017-09-14 06:35:41 GMT 51.94392 9.58353 36,050 278 343 -64
2017-09-14 06:35:39 GMT 51.94340 9.58893 36,050 278 343 -64
2017-09-14 06:35:35 GMT 51.94253 9.59938 36,075 278 343 -64
2017-09-14 06:35:33 GMT 51.94203 9.60617 36,075 278 343 -64
2017-09-14 06:35:31 GMT 51.94182 9.60746 36,075 278 343 -64
2017-09-14 06:35:29 GMT 51.94153 9.61334 36,075 278 342 0
2017-09-14 06:35:26 GMT 51.94061 9.62326 36,050 278 342 0
2017-09-14 06:35:24 GMT 51.94034 9.62692 36,050 278 342 64
2017-09-14 06:35:22 GMT 51.93997 9.63173 36,050 278 342 0
2017-09-14 06:35:20 GMT 51.93942 9.63852 36,050 278 342 0
2017-09-14 06:35:16 GMT 51.93861 9.64725 36,050 278 342 0
2017-09-14 06:35:14 GMT 51.93809 9.65362 36,050 278 342 0
2017-09-14 06:35:12 GMT 51.93791 9.65738 36,050 278 342 0
2017-09-14 06:35:09 GMT 51.93736 9.66393 36,050 278 342 0
2017-09-14 06:35:07 GMT 51.93704 9.66774 36,050 278 342 0
2017-09-14 06:35:04 GMT 51.93638 9.67527 36,050 278 342 0
2017-09-14 06:35:02 GMT 51.93568 9.68406 36,050 278 342 0
2017-09-14 06:35:00 GMT 51.93553 9.68521 36,050 278 342 0
2017-09-14 06:34:57 GMT 51.93448 9.69772 36,050 278 342 0
2017-09-14 06:34:55 GMT 51.93416 9.70169 36,050 278 342 0
2017-09-14 06:34:52 GMT 51.93361 9.70955 36,050 278 341 0
2017-09-14 06:34:50 GMT 51.93347 9.71077 36,050 278 341 0
2017-09-14 06:34:48 GMT 51.93306 9.71626 36,050 278 341 0
2017-09-14 06:34:45 GMT 51.93223 9.72502 36,050 278 341 64
2017-09-14 06:34:43 GMT 51.93173 9.73267 36,050 278 341 0
2017-09-14 06:34:41 GMT 51.93135 9.73648 36,050 278 341 0
2017-09-14 06:34:39 GMT 51.93088 9.74181 36,050 278 341 0
2017-09-14 06:34:37 GMT 51.93070 9.74550 36,050 278 341 64
2017-09-14 06:34:35 GMT 51.93018 9.75075 36,050 278 341 64
2017-09-14 06:34:33 GMT 51.92986 9.75433 36,050 278 341 0
2017-09-14 06:34:31 GMT 51.92917 9.76265 36,050 278 341 0
2017-09-14 06:34:29 GMT 51.92911 9.76386 36,050 278 341 0
2017-09-14 06:34:27 GMT 51.92848 9.77058 36,050 278 341 0
2017-09-14 06:34:24 GMT 51.92795 9.77846 36,050 278 341 0
2017-09-14 06:34:22 GMT 51.92725 9.78497 36,050 278 341 0
2017-09-14 06:34:20 GMT 51.92711 9.78821 36,050 278 340 0
2017-09-14 06:34:17 GMT 51.92623 9.79894 36,050 278 340 0
2017-09-14 06:34:15 GMT 51.92569 9.80431 36,050 278 340 0
2017-09-14 06:34:13 GMT 51.92553 9.80663 36,050 278 340 0
2017-09-14 06:34:11 GMT 51.92502 9.81275 36,050 278 340 64
2017-09-14 06:34:09 GMT 51.92469 9.81628 36,050 278 340 64
2017-09-14 06:34:06 GMT 51.92418 9.82269 36,050 278 340 0
2017-09-14 06:34:04 GMT 51.92368 9.82941 36,050 278 340 0
2017-09-14 06:34:02 GMT 51.92334 9.83331 36,050 278 340 0
2017-09-14 06:34:00 GMT 51.92281 9.84047 36,050 278 340 0
2017-09-14 06:33:58 GMT 51.92227 9.84540 36,050 278 340 64
2017-09-14 06:33:56 GMT 51.92176 9.85175 36,050 278 340 0
2017-09-14 06:33:54 GMT 51.92125 9.85718 36,050 278 341 -64
2017-09-14 06:33:51 GMT 51.92074 9.86345 36,050 278 340 0
2017-09-14 06:33:49 GMT 51.92056 9.86572 36,050 278 341 0
2017-09-14 06:33:49 GMT 51.92056 9.86687 36,050 278 341 0
2017-09-14 06:33:47 GMT 51.91988 9.87396 36,050 278 341 -64
2017-09-14 06:33:43 GMT 51.91938 9.88157 36,050 278 341 -64
2017-09-14 06:33:41 GMT 51.91901 9.88548 36,050 278 339 0
2017-09-14 06:33:39 GMT 51.91836 9.89295 36,050 278 341 0
2017-09-14 06:33:37 GMT 51.91799 9.89719 36,050 278 341 0
2017-09-14 06:33:33 GMT 51.91699 9.90921 36,050 278 340 0
2017-09-14 06:33:31 GMT 51.91644 9.91447 36,050 278 341 0
2017-09-14 06:33:29 GMT 51.91608 9.91951 36,050 278 341 0
2017-09-14 06:33:28 GMT 51.91608 9.91951 36,050 278 341 0
2017-09-14 06:33:26 GMT 51.91575 9.92364 36,050 278 340 0
2017-09-14 06:33:23 GMT 51.91473 9.93541 36,075 278 340 0
2017-09-14 06:33:20 GMT 51.91422 9.94192 36,050 278 340 0
2017-09-14 06:33:18 GMT 51.91370 9.94835 36,050 278 340 0
2017-09-14 06:33:16 GMT 51.91356 9.94934 36,075 278 340 0
2017-09-14 06:33:12 GMT 51.91264 9.96086 36,075 278 339 0
2017-09-14 06:33:08 GMT 51.91184 9.96962 36,075 278 339 0
2017-09-14 06:33:08 GMT 51.91184 9.96962 36,075 278 339 0
2017-09-14 06:33:06 GMT 51.91132 9.97551 36,050 278 339 0
2017-09-14 06:33:00 GMT 51.90994 9.99222 36,050 278 339 0
2017-09-14 06:32:58 GMT 51.90976 9.99489 36,050 278 339 0
2017-09-14 06:32:56 GMT 51.90924 9.99968 36,050 278 339 0
2017-09-14 06:32:55 GMT 51.90924 10.00117 36,050 278 339 0
2017-09-14 06:32:54 GMT 51.90872 10.00580 36,050 278 339 0
2017-09-14 06:32:51 GMT 51.90820 10.01335 36,050 278 339 0
2017-09-14 06:32:49 GMT 51.90752 10.02052 36,050 278 339 0
2017-09-14 06:32:47 GMT 51.90719 10.02463 36,050 278 339 0
2017-09-14 06:32:45 GMT 51.90701 10.02724 36,050 278 339 0
2017-09-14 06:32:41 GMT 51.90619 10.03784 36,050 278 339 0
2017-09-14 06:32:39 GMT 51.90565 10.04354 36,050 278 339 0
2017-09-14 06:32:37 GMT 51.90514 10.05006 36,050 278 339 0
2017-09-14 06:32:35 GMT 51.90495 10.05233 36,050 278 339 0
2017-09-14 06:32:31 GMT 51.90408 10.06149 36,050 278 339 0
2017-09-14 06:32:29 GMT 51.90358 10.06782 36,050 278 339 0
2017-09-14 06:32:27 GMT 51.90304 10.07305 36,050 278 339 0
2017-09-14 06:32:25 GMT 51.90271 10.07812 36,050 278 339 0
2017-09-14 06:32:20 GMT 51.90169 10.09149 36,050 278 340 -64
2017-09-14 06:32:18 GMT 51.90097 10.09804 36,050 278 340 0
2017-09-14 06:32:16 GMT 51.90065 10.10300 36,050 278 340 0
2017-09-14 06:32:13 GMT 51.90015 10.10857 36,050 278 340 64
2017-09-14 06:32:10 GMT 51.89946 10.11604 36,050 278 340 64
2017-09-14 06:32:07 GMT 51.89859 10.12642 36,050 278 340 0
2017-09-14 06:32:05 GMT 51.89825 10.13002 36,050 278 340 0
2017-09-14 06:32:00 GMT 51.89723 10.14219 36,050 278 340 0
2017-09-14 06:31:58 GMT 51.89690 10.14763 36,050 278 340 0
2017-09-14 06:31:56 GMT 51.89657 10.15152 36,050 278 341 0
2017-09-14 06:31:54 GMT 51.89621 10.15541 36,050 278 341 0
2017-09-14 06:31:48 GMT 51.89467 10.17240 36,050 278 341 64
2017-09-14 06:31:48 GMT 51.89485 10.17130 36,050 278 341 64
2017-09-14 06:31:46 GMT 51.89433 10.17784 36,050 278 341 64
2017-09-14 06:31:44 GMT 51.89397 10.18174 36,050 278 341 0
2017-09-14 06:31:41 GMT 51.89346 10.18794 36,050 278 342 0
2017-09-14 06:31:36 GMT 51.89191 10.20481 36,050 278 342 0
2017-09-14 06:31:34 GMT 51.89172 10.20749 36,050 278 342 0
2017-09-14 06:31:31 GMT 51.89122 10.21362 36,050 278 343 0
2017-09-14 06:31:29 GMT 51.89052 10.22179 36,050 278 343 64
2017-09-14 06:31:27 GMT 51.89001 10.22697 36,050 278 343 64
2017-09-14 06:31:24 GMT 51.88934 10.23406 36,050 278 343 64
2017-09-14 06:31:22 GMT 51.88899 10.23941 36,050 278 344 0
2017-09-14 06:31:17 GMT 51.88782 10.25230 36,050 278 344 0
2017-09-14 06:31:15 GMT 51.88747 10.25633 36,050 278 344 0
2017-09-14 06:31:12 GMT 51.88694 10.26329 36,050 278 344 0
2017-09-14 06:31:09 GMT 51.88624 10.27214 36,050 278 344 0
2017-09-14 06:31:08 GMT 51.88624 10.27214 36,050 278 344 -64
2017-09-14 06:31:06 GMT 51.88554 10.27845 36,050 278 344 0
2017-09-14 06:31:04 GMT 51.88517 10.28328 36,050 278 344 0
2017-09-14 06:31:02 GMT 51.88467 10.28996 36,050 278 344 0
2017-09-14 06:30:59 GMT 51.88422 10.29523 36,050 278 344 0
2017-09-14 06:30:56 GMT 51.88331 10.30495 36,050 278 344 -64
2017-09-14 06:30:54 GMT 51.88298 10.30907 36,050 278 344 -64
2017-09-14 06:30:52 GMT 51.88247 10.31418 36,050 278 344 -64
2017-09-14 06:30:50 GMT 51.88211 10.31794 36,050 278 344 -64
2017-09-14 06:30:47 GMT 51.88110 10.32930 36,075 279 344 -64
2017-09-14 06:30:45 GMT 51.88092 10.33309 36,075 278 344 -64
2017-09-14 06:30:43 GMT 51.88061 10.33539 36,075 278 344 -64
2017-09-14 06:30:41 GMT 51.88023 10.34051 36,075 279 344 0
2017-09-14 06:30:38 GMT 51.87921 10.35217 36,075 279 344 0
2017-09-14 06:30:36 GMT 51.87902 10.35484 36,075 279 344 0
2017-09-14 06:30:34 GMT 51.87851 10.35980 36,075 279 344 0
2017-09-14 06:30:32 GMT 51.87786 10.36758 36,075 279 344 -64
2017-09-14 06:30:30 GMT 51.87763 10.36983 36,075 279 344 0
2017-09-14 06:30:26 GMT 51.87680 10.37918 36,075 279 343 0
2017-09-14 06:30:24 GMT 51.87614 10.38681 36,050 279 343 0
2017-09-14 06:30:21 GMT 51.87577 10.39215 36,075 279 343 0
2017-09-14 06:30:19 GMT 51.87525 10.39734 36,075 279 343 0
2017-09-14 06:30:17 GMT 51.87456 10.40591 36,075 279 343 0
2017-09-14 06:30:14 GMT 51.87392 10.41311 36,050 279 343 0
2017-09-14 06:30:12 GMT 51.87358 10.41573 36,050 279 343 0
2017-09-14 06:30:10 GMT 51.87320 10.42000 36,050 279 343 0
2017-09-14 06:30:08 GMT 51.87282 10.42387 36,050 279 345 64
2017-09-14 06:30:06 GMT 51.87213 10.43137 36,050 279 344 0
2017-09-14 06:30:04 GMT 51.87167 10.43762 36,050 279 344 0
2017-09-14 06:30:02 GMT 51.87148 10.44037 36,050 279 344 0
2017-09-14 06:30:00 GMT 51.87099 10.44592 36,050 279 344 0
2017-09-14 06:29:58 GMT 51.87065 10.44990 36,050 279 344 0
2017-09-14 06:29:55 GMT 51.86993 10.45720 36,050 279 344 0
2017-09-14 06:29:53 GMT 51.86906 10.46581 36,050 279 344 64
2017-09-14 06:29:51 GMT 51.86888 10.46837 36,050 279 344 64
2017-09-14 06:29:49 GMT 51.86842 10.47376 36,050 279 345 64
2017-09-14 06:29:47 GMT 51.86806 10.47784 36,050 279 345 64
2017-09-14 06:29:43 GMT 51.86700 10.48883 36,050 279 345 64
2017-09-14 06:29:41 GMT 51.86650 10.49513 36,050 279 345 64
2017-09-14 06:29:38 GMT 51.86600 10.50167 36,050 279 345 0
2017-09-14 06:29:34 GMT 51.86478 10.51460 36,050 279 346 0
2017-09-14 06:29:32 GMT 51.86459 10.51697 36,050 279 346 0
2017-09-14 06:29:32 GMT 51.86459 10.51697 36,050 279 346 0
2017-09-14 06:29:30 GMT 51.86408 10.52193 36,050 279 346 0
2017-09-14 06:29:28 GMT 51.86375 10.52673 36,050 279 346 0
2017-09-14 06:29:26 GMT 51.86287 10.53581 36,050 279 346 0
2017-09-14 06:29:24 GMT 51.86287 10.53688 36,050 279 346 0
2017-09-14 06:29:21 GMT 51.86201 10.54621 36,050 278 346 -64
2017-09-14 06:29:21 GMT 51.86201 10.54621 36,050 278 346 -64
2017-09-14 06:29:19 GMT 51.86133 10.55289 36,050 279 346 0
2017-09-14 06:29:17 GMT 51.86120 10.55557 36,050 279 346 0
2017-09-14 06:29:15 GMT 51.86050 10.56224 36,050 278 346 0
2017-09-14 06:29:12 GMT 51.85995 10.56915 36,050 278 346 0
2017-09-14 06:29:10 GMT 51.85943 10.57549 36,050 278 346 0
2017-09-14 06:29:07 GMT 51.85913 10.57969 36,050 278 346 0
2017-09-14 06:29:01 GMT 51.85724 10.59952 36,050 278 345 0
2017-09-14 06:28:59 GMT 51.85707 10.60322 36,050 278 345 0
2017-09-14 06:28:57 GMT 51.85670 10.60685 36,050 278 345 -64
2017-09-14 06:28:54 GMT 51.85602 10.61472 36,050 278 344 -64
2017-09-14 06:28:51 GMT 51.85519 10.62347 36,075 278 343 -64
2017-09-14 06:28:49 GMT 51.85500 10.62592 36,075 278 343 -64
2017-09-14 06:28:47 GMT 51.85449 10.63232 36,075 278 342 0
2017-09-14 06:28:45 GMT 51.85414 10.63744 36,075 278 341 0
2017-09-14 06:28:40 GMT 51.85295 10.65132 36,075 278 340 -64
2017-09-14 06:28:38 GMT 51.85263 10.65536 36,075 278 340 -64
2017-09-14 06:28:36 GMT 51.85208 10.66015 36,075 278 340 0
2017-09-14 06:28:35 GMT 51.85175 10.66498 36,050 278 340 0
2017-09-14 06:28:35 GMT 51.85175 10.66498 36,050 278 340 0
2017-09-14 06:28:33 GMT 51.85123 10.67100 36,050 278 340 0
2017-09-14 06:28:31 GMT 51.85105 10.67215 36,050 278 340 0
2017-09-14 06:28:29 GMT 51.85071 10.67745 36,050 278 340 0
2017-09-14 06:28:27 GMT 51.85016 10.68279 36,050 278 340 0
2017-09-14 06:28:25 GMT 51.84970 10.68799 36,050 278 340 0
2017-09-14 06:28:20 GMT 51.84881 10.69954 36,050 278 341 64
2017-09-14 06:28:18 GMT 51.84816 10.70702 36,050 278 341 0
2017-09-14 06:28:16 GMT 51.84760 10.71205 36,050 278 342 64
2017-09-14 06:28:16 GMT 51.84760 10.71205 36,050 278 342 64
2017-09-14 06:28:14 GMT 51.84746 10.71472 36,050 278 342 64
2017-09-14 06:28:11 GMT 51.84677 10.72236 36,050 278 343 64
2017-09-14 06:28:09 GMT 51.84609 10.73119 36,050 279 344 64
2017-09-14 06:28:07 GMT 51.84572 10.73364 36,050 279 344 64
2017-09-14 06:28:05 GMT 51.84537 10.73837 36,050 279 345 64
2017-09-14 06:28:00 GMT 51.84416 10.75161 36,050 279 347 0
2017-09-14 06:27:58 GMT 51.84369 10.75653 36,050 279 347 0
2017-09-14 06:27:58 GMT 51.84364 10.75790 36,050 279 347 0
2017-09-14 06:27:55 GMT 51.84279 10.76705 36,050 279 349 0
2017-09-14 06:27:51 GMT 51.84215 10.77402 36,050 279 361 0
2017-09-14 06:27:49 GMT 51.84146 10.78175 36,050 279 351 0
2017-09-14 06:27:47 GMT 51.84110 10.78509 36,050 279 351 0
2017-09-14 06:27:44 GMT 51.84041 10.79288 36,050 279 353 0
2017-09-14 06:27:39 GMT 51.83940 10.80520 36,050 279 354 -64
2017-09-14 06:27:37 GMT 51.83867 10.81188 36,050 279 356 -64
2017-09-14 06:27:37 GMT 51.83867 10.81188 36,050 279 355 0
2017-09-14 06:27:35 GMT 51.83834 10.81543 36,050 279 355 -64
2017-09-14 06:27:33 GMT 51.83766 10.82435 36,050 279 356 64
2017-09-14 06:27:30 GMT 51.83731 10.82825 36,050 279 357 -64
2017-09-14 06:27:27 GMT 51.83647 10.83660 36,050 279 359 -64
2017-09-14 06:27:25 GMT 51.83610 10.84198 36,050 279 360 64
2017-09-14 06:27:23 GMT 51.83545 10.84808 36,050 279 360 -64
2017-09-14 06:27:20 GMT 51.83473 10.85694 36,050 279 361 0
2017-09-14 06:27:18 GMT 51.83405 10.86380 36,050 279 361 0
2017-09-14 06:27:16 GMT 51.83373 10.86800 36,050 279 362 -64
2017-09-14 06:27:14 GMT 51.83304 10.87453 36,050 279 362 0
2017-09-14 06:27:13 GMT 51.83304 10.87453 36,050 279 365 0
2017-09-14 06:27:12 GMT 51.83303 10.87616 36,075 279 362 0
2017-09-14 06:27:10 GMT 51.83201 10.88577 36,050 279 363 64
2017-09-14 06:27:08 GMT 51.83168 10.89020 36,050 279 364 0
2017-09-14 06:27:06 GMT 51.83149 10.89294 36,050 279 364 0
2017-09-14 06:27:04 GMT 51.83080 10.90029 36,050 279 364 0
2017-09-14 06:27:02 GMT 51.83042 10.90294 36,050 279 365 0
2017-09-14 06:26:59 GMT 51.82956 10.91269 36,050 279 365 0
2017-09-14 06:26:57 GMT 51.82945 10.91553 36,050 279 365 0
2017-09-14 06:26:57 GMT 51.82945 10.91553 36,050 279 365 -64
2017-09-14 06:26:55 GMT 51.82855 10.92397 36,075 279 366 -64
2017-09-14 06:26:52 GMT 51.82787 10.93088 36,050 279 366 0
2017-09-14 06:26:48 GMT 51.82668 10.94416 36,050 279 366 64
2017-09-14 06:26:46 GMT 51.82665 10.94566 36,050 279 366 64
2017-09-14 06:26:44 GMT 51.82599 10.95248 36,050 279 367 -64
2017-09-14 06:26:42 GMT 51.82516 10.96153 36,050 279 367 -64
2017-09-14 06:26:37 GMT 51.82411 10.97148 36,050 279 368 64
2017-09-14 06:26:35 GMT 51.82356 10.97697 36,050 279 368 64
2017-09-14 06:26:33 GMT 51.82307 10.98244 36,050 279 368 0
2017-09-14 06:26:31 GMT 51.82237 10.99052 36,050 279 368 -64
2017-09-14 06:26:28 GMT 51.82167 10.99709 36,050 279 368 -64
2017-09-14 06:26:26 GMT 51.82121 11.00243 36,075 279 368 0
2017-09-14 06:26:24 GMT 51.82102 11.00502 36,050 279 368 0
2017-09-14 06:26:22 GMT 51.81995 11.01461 36,050 279 368 0
2017-09-14 06:26:19 GMT 51.81949 11.02033 36,050 279 368 0
2017-09-14 06:26:15 GMT 51.81827 11.03264 36,075 279 368 -64
2017-09-14 06:26:13 GMT 51.81761 11.03978 36,050 279 368 -64
2017-09-14 06:26:11 GMT 51.81743 11.04208 36,075 279 368 -64
2017-09-14 06:26:09 GMT 51.81674 11.04787 36,075 279 368 0
2017-09-14 06:26:06 GMT 51.81605 11.05596 36,075 279 368 0
2017-09-14 06:26:04 GMT 51.81551 11.06138 36,050 279 368 0
2017-09-14 06:26:01 GMT 51.81446 11.07117 36,050 279 368 0
2017-09-14 06:25:59 GMT 51.81399 11.07620 36,050 279 368 0
2017-09-14 06:25:55 GMT 51.81299 11.08691 36,050 279 368 64
2017-09-14 06:25:53 GMT 51.81276 11.08996 36,050 279 368 0
2017-09-14 06:25:50 GMT 51.81175 11.10072 36,050 279 368 0
2017-09-14 06:25:47 GMT 51.81107 11.10777 36,050 279 368 -64
2017-09-14 06:25:45 GMT 51.81036 11.11610 36,050 280 368 -64
2017-09-14 06:25:43 GMT 51.81003 11.11900 36,050 280 368 0
2017-09-14 06:25:41 GMT 51.80969 11.12173 36,050 280 369 0
2017-09-14 06:25:39 GMT 51.80901 11.12846 36,050 281 369 64
2017-09-14 06:25:37 GMT 51.80812 11.13503 36,050 282 369 128
2017-09-14 06:25:35 GMT 51.80766 11.14029 36,050 282 370 128
2017-09-14 06:25:35 GMT 51.80766 11.14029 36,050 282 370 128
2017-09-14 06:25:33 GMT 51.80681 11.14570 36,050 283 371 128
2017-09-14 06:25:31 GMT 51.80626 11.15031 36,050 283 371 128
2017-09-14 06:25:29 GMT 51.80507 11.15847 36,050 284 372 -128
2017-09-14 06:25:27 GMT 51.80456 11.16211 36,050 284 372 -128
2017-09-14 06:25:25 GMT 51.80375 11.16730 36,050 285 372 -128
2017-09-14 06:25:22 GMT 51.80249 11.17516 36,050 285 373 -128
2017-09-14 06:25:19 GMT 51.80132 11.18260 36,050 286 373 64
2017-09-14 06:25:17 GMT 51.79958 11.19165 36,050 287 373 64
2017-09-14 06:25:15 GMT 51.79872 11.19652 36,050 288 374 64
2017-09-14 06:25:13 GMT 51.79788 11.20019 36,050 289 375 0
2017-09-14 06:25:11 GMT 51.79655 11.20687 36,050 289 375 -64
2017-09-14 06:25:08 GMT 51.79527 11.21363 36,050 290 376 0
2017-09-14 06:25:06 GMT 51.79349 11.22164 36,050 290 376 0
2017-09-14 06:25:04 GMT 51.79304 11.22307 36,050 291 376 0
2017-09-14 06:25:02 GMT 51.79193 11.22862 36,050 291 376 0
2017-09-14 06:24:59 GMT 51.78955 11.23848 36,050 292 377 0
2017-09-14 06:24:56 GMT 51.78859 11.24243 36,050 293 377 0
2017-09-14 06:24:54 GMT 51.78644 11.25067 36,050 293 378 0
2017-09-14 06:24:52 GMT 51.78476 11.25725 36,050 294 378 0
2017-09-14 06:24:49 GMT 51.78280 11.26411 36,050 294 379 0
2017-09-14 06:24:47 GMT 51.78200 11.26715 36,050 295 379 0
2017-09-14 06:24:45 GMT 51.78094 11.27083 36,050 298 381 0
2017-09-14 06:24:43 GMT 51.77911 11.27724 36,050 297 381 0
2017-09-14 06:24:41 GMT 51.77749 11.28227 36,050 297 381 0
2017-09-14 06:24:39 GMT 51.77554 11.28838 36,050 297 381 64
2017-09-14 06:24:37 GMT 51.77386 11.29372 36,050 298 381 0
2017-09-14 06:24:36 GMT 51.77271 11.29721 36,050 298 381 0
2017-09-14 06:24:35 GMT 51.77307 11.29617 36,050 298 381 0
2017-09-14 06:24:32 GMT 51.76991 11.30608 36,050 298 381 0
2017-09-14 06:24:30 GMT 51.76921 11.30859 36,050 298 381 0
2017-09-14 06:24:28 GMT 51.76739 11.31386 36,050 298 381 0
2017-09-14 06:24:26 GMT 51.76543 11.32007 36,050 298 381 0
2017-09-14 06:24:24 GMT 51.76311 11.32767 36,050 298 381 64
2017-09-14 06:24:21 GMT 51.76050 11.33522 36,050 298 381 64
2017-09-14 06:24:18 GMT 51.75901 11.34003 36,050 298 381 64
2017-09-14 06:24:15 GMT 51.75586 11.34984 36,050 298 381 -64
2017-09-14 06:24:13 GMT 51.75445 11.35391 36,050 298 380 -64
2017-09-14 06:24:10 GMT 51.75152 11.36307 36,050 298 380 -64
2017-09-14 06:24:08 GMT 51.75077 11.36574 36,050 298 380 -64
2017-09-14 06:24:06 GMT 51.74793 11.37413 36,050 298 379 64
2017-09-14 06:24:04 GMT 51.74698 11.37731 36,050 298 379 64
2017-09-14 06:24:02 GMT 51.74589 11.38069 36,050 298 379 64
2017-09-14 06:23:59 GMT 51.74254 11.39089 36,050 298 379 128
2017-09-14 06:23:57 GMT 51.74130 11.39498 36,050 298 379 128
2017-09-14 06:23:55 GMT 51.74007 11.39861 36,050 298 379 0
2017-09-14 06:23:53 GMT 51.73797 11.40518 36,050 298 379 0
2017-09-14 06:23:50 GMT 51.73531 11.41338 36,050 298 379 -64
2017-09-14 06:23:49 GMT 51.73567 11.41242 36,050 298 379 -64
2017-09-14 06:23:45 GMT 51.73248 11.42220 36,050 298 379 -64
2017-09-14 06:23:43 GMT 51.73006 11.42975 36,050 298 379 0
2017-09-14 06:23:41 GMT 51.72881 11.43343 36,050 299 378 0
2017-09-14 06:23:39 GMT 51.72734 11.43766 36,050 299 378 0
2017-09-14 06:23:36 GMT 51.72450 11.44634 36,050 299 378 0
2017-09-14 06:23:34 GMT 51.72317 11.45027 36,050 299 378 -64
2017-09-14 06:23:32 GMT 51.72098 11.45660 36,050 299 378 -64
2017-09-14 06:23:30 GMT 51.72000 11.45988 36,075 300 375 0
2017-09-14 06:23:28 GMT 51.71745 11.46713 36,075 299 378 -64
2017-09-14 06:23:26 GMT 51.71576 11.47203 36,075 299 378 0
2017-09-14 06:23:24 GMT 51.71439 11.47596 36,075 299 378 0
2017-09-14 06:23:22 GMT 51.71228 11.48249 36,075 299 377 64
2017-09-14 06:23:20 GMT 51.71064 11.48727 36,050 299 377 64
2017-09-14 06:23:18 GMT 51.70985 11.48940 36,050 299 377 64
2017-09-14 06:23:18 GMT 51.70985 11.48940 36,050 299 377 64
2017-09-14 06:23:16 GMT 51.70775 11.49563 36,050 299 376 0
2017-09-14 06:23:13 GMT 51.70524 11.50284 36,050 299 377 0
2017-09-14 06:23:13 GMT 51.70524 11.50284 36,050 299 377 0
2017-09-14 06:23:11 GMT 51.70354 11.50810 36,050 299 376 0
2017-09-14 06:23:11 GMT 51.70354 11.50810 36,050 299 376 0
2017-09-14 06:23:09 GMT 51.70184 11.51293 36,050 299 376 64
2017-09-14 06:23:07 GMT 51.70022 11.51764 36,050 299 376 64
2017-09-14 06:23:05 GMT 51.69859 11.52228 36,050 299 376 64
2017-09-14 06:23:03 GMT 51.69631 11.52916 36,050 299 376 0
2017-09-14 06:23:00 GMT 51.69406 11.53572 36,050 299 376 0
2017-09-14 06:22:58 GMT 51.69287 11.53921 36,050 300 377 0
2017-09-14 06:22:56 GMT 51.69105 11.54427 36,050 300 377 0
2017-09-14 06:22:54 GMT 51.68928 11.54945 36,050 300 376 0
2017-09-14 06:22:51 GMT 51.68610 11.55858 36,050 300 376 -64
2017-09-14 06:22:49 GMT 51.68425 11.56364 36,050 300 376 -64
2017-09-14 06:22:47 GMT 51.68309 11.56753 36,050 300 376 -64
2017-09-14 06:22:45 GMT 51.68094 11.57356 36,075 300 376 -64
2017-09-14 06:22:41 GMT 51.67772 11.58278 36,075 300 375 0
2017-09-14 06:22:39 GMT 51.67676 11.58545 36,075 300 375 0
2017-09-14 06:22:37 GMT 51.67502 11.59050 36,075 300 375 0
2017-09-14 06:22:33 GMT 51.67200 11.59904 36,075 300 375 0
2017-09-14 06:22:31 GMT 51.66980 11.60587 36,075 300 375 0
2017-09-14 06:22:29 GMT 51.66791 11.61118 36,050 300 375 0
2017-09-14 06:22:27 GMT 51.66627 11.61567 36,050 300 375 0
2017-09-14 06:22:27 GMT 51.66627 11.61567 36,050 300 375 0
2017-09-14 06:22:24 GMT 51.66377 11.62285 36,050 299 374 0
2017-09-14 06:22:22 GMT 51.66243 11.62673 36,050 299 374 0
2017-09-14 06:22:20 GMT 51.66042 11.63296 36,050 299 374 0
2017-09-14 06:22:18 GMT 51.65781 11.64031 36,050 299 374 0
2017-09-14 06:22:16 GMT 51.65697 11.64261 36,050 299 374 0
2017-09-14 06:22:16 GMT 51.65655 11.64391 36,050 299 374 0
2017-09-14 06:22:12 GMT 51.65414 11.65115 36,050 300 375 0
2017-09-14 06:22:10 GMT 51.65208 11.65695 36,050 299 374 0
2017-09-14 06:22:08 GMT 51.65039 11.66191 36,050 299 374 0
2017-09-14 06:22:06 GMT 51.64874 11.66644 36,050 299 373 0
2017-09-14 06:22:06 GMT 51.64874 11.66644 36,050 299 373 0
2017-09-14 06:22:02 GMT 51.64482 11.67801 36,050 299 374 0
2017-09-14 06:22:00 GMT 51.64300 11.68312 36,050 299 374 0
2017-09-14 06:22:00 GMT 51.64300 11.68312 36,050 299 374 0
2017-09-14 06:21:57 GMT 51.64142 11.68770 36,050 299 374 0
2017-09-14 06:21:55 GMT 51.63970 11.69304 36,050 299 374 0
2017-09-14 06:21:55 GMT 51.64009 11.69190 36,050 299 374 0
2017-09-14 06:21:53 GMT 51.63719 11.70029 36,050 299 374 0
2017-09-14 06:21:50 GMT 51.63509 11.70624 36,050 300 375 0
2017-09-14 06:21:48 GMT 51.63346 11.71120 36,050 299 374 0
2017-09-14 06:21:45 GMT 51.63127 11.71745 36,050 299 374 0
2017-09-14 06:21:43 GMT 51.62960 11.72218 36,050 299 374 0
2017-09-14 06:21:41 GMT 51.62676 11.73027 36,050 299 374 0
2017-09-14 06:21:39 GMT 51.62517 11.73515 36,050 299 374 0
2017-09-14 06:21:37 GMT 51.62466 11.73652 36,050 299 374 0
2017-09-14 06:21:34 GMT 51.62248 11.74278 36,050 299 374 64
2017-09-14 06:21:32 GMT 51.61986 11.75025 36,050 300 375 0
2017-09-14 06:21:30 GMT 51.61749 11.75743 36,050 300 375 0
2017-09-14 06:21:27 GMT 51.61610 11.76146 36,050 300 375 0
2017-09-14 06:21:25 GMT 51.61344 11.76895 36,050 300 375 0
2017-09-14 06:21:23 GMT 51.61221 11.77237 36,050 300 375 0
2017-09-14 06:21:20 GMT 51.60986 11.77963 36,050 300 375 0
2017-09-14 06:21:18 GMT 51.60823 11.78421 36,050 300 375 0
2017-09-14 06:21:18 GMT 51.60823 11.78421 36,050 300 375 0
2017-09-14 06:21:16 GMT 51.60693 11.78795 36,050 300 375 0
2017-09-14 06:21:14 GMT 51.60507 11.79316 36,050 300 375 0
2017-09-14 06:21:11 GMT 51.60210 11.80154 36,050 300 375 0
2017-09-14 06:21:07 GMT 51.59855 11.81221 36,050 300 375 0
2017-09-14 06:21:04 GMT 51.59679 11.81713 36,050 300 375 0
2017-09-14 06:21:02 GMT 51.59501 11.82213 36,050 300 375 0
2017-09-14 06:20:59 GMT 51.59226 11.83037 36,050 300 375 0
2017-09-14 06:20:57 GMT 51.58984 11.83731 36,050 300 375 0
2017-09-14 06:20:57 GMT 51.58984 11.83731 36,050 300 375 0
2017-09-14 06:20:55 GMT 51.58900 11.83968 36,050 300 375 0
2017-09-14 06:20:53 GMT 51.58770 11.84334 36,050 300 375 0
2017-09-14 06:20:51 GMT 51.58640 11.84712 36,050 300 375 0
2017-09-14 06:20:49 GMT 51.58337 11.85566 36,050 300 375 0
2017-09-14 06:20:46 GMT 51.58128 11.86211 36,050 300 375 0
2017-09-14 06:20:44 GMT 51.58040 11.86464 36,050 300 375 0
2017-09-14 06:20:42 GMT 51.57761 11.87251 36,050 300 375 0
2017-09-14 06:20:38 GMT 51.57491 11.88016 36,050 300 375 0
2017-09-14 06:20:36 GMT 51.57280 11.88599 36,050 300 375 0
2017-09-14 06:20:34 GMT 51.57156 11.89003 36,050 300 375 0
2017-09-14 06:20:31 GMT 51.56927 11.89656 36,050 300 375 0
2017-09-14 06:20:29 GMT 51.56708 11.90287 36,050 300 375 0
2017-09-14 06:20:26 GMT 51.56452 11.90994 36,050 300 375 64
2017-09-14 06:20:24 GMT 51.56323 11.91363 36,050 300 375 64
2017-09-14 06:20:21 GMT 51.56044 11.92210 36,050 300 375 0
2017-09-14 06:20:19 GMT 51.55865 11.92703 36,050 300 375 0
2017-09-14 06:20:17 GMT 51.55733 11.93085 36,050 300 375 0
2017-09-14 06:20:15 GMT 51.55444 11.93902 36,050 300 375 0
2017-09-14 06:20:15 GMT 51.55483 11.93802 36,050 300 375 0
2017-09-14 06:20:13 GMT 51.55404 11.94031 36,050 300 375 0
2017-09-14 06:20:11 GMT 51.55179 11.94644 36,050 300 375 0
2017-09-14 06:20:09 GMT 51.55023 11.95145 36,050 300 374 0
2017-09-14 06:20:07 GMT 51.54817 11.95736 36,050 300 374 0
2017-09-14 06:20:04 GMT 51.54520 11.96571 36,050 300 374 0
2017-09-14 06:20:01 GMT 51.54301 11.97174 36,050 300 374 0
2017-09-14 06:19:58 GMT 51.54157 11.97655 36,050 300 374 0
2017-09-14 06:19:56 GMT 51.53845 11.98509 36,050 300 374 0
2017-09-14 06:19:53 GMT 51.53668 11.99028 36,050 300 374 0
2017-09-14 06:19:50 GMT 51.53435 11.99677 36,050 300 374 0
2017-09-14 06:19:48 GMT 51.53252 12.00189 36,050 300 374 0
2017-09-14 06:19:46 GMT 51.53087 12.00724 36,050 300 374 0
2017-09-14 06:19:44 GMT 51.52821 12.01462 36,050 300 374 0
2017-09-14 06:19:42 GMT 51.52779 12.01576 36,050 300 374 0
2017-09-14 06:19:40 GMT 51.52551 12.02225 36,050 300 374 0
2017-09-14 06:19:38 GMT 51.52430 12.02576 36,050 300 374 0
2017-09-14 06:19:36 GMT 51.52222 12.03196 36,050 300 374 0
2017-09-14 06:19:36 GMT 51.52263 12.03085 36,050 300 374 0
2017-09-14 06:19:34 GMT 51.52067 12.03644 36,050 300 374 0
2017-09-14 06:19:32 GMT 51.51862 12.04224 36,050 300 374 0
2017-09-14 06:19:30 GMT 51.51736 12.04575 36,050 300 374 0
2017-09-14 06:19:28 GMT 51.51590 12.04985 36,050 300 374 0
2017-09-14 06:19:24 GMT 51.51173 12.06202 36,050 300 373 0
2017-09-14 06:19:22 GMT 51.51089 12.06444 36,050 300 373 0
2017-09-14 06:19:22 GMT 51.51089 12.06444 36,050 300 373 0
2017-09-14 06:19:20 GMT 51.50870 12.07069 36,050 300 373 0
2017-09-14 06:19:18 GMT 51.50684 12.07583 36,050 300 373 0
2017-09-14 06:19:16 GMT 51.50512 12.08069 36,050 300 373 0
2017-09-14 06:19:14 GMT 51.50317 12.08615 36,050 300 373 0
2017-09-14 06:19:12 GMT 51.50198 12.08993 36,050 300 373 0
2017-09-14 06:19:10 GMT 51.49992 12.09580 36,050 300 373 0
2017-09-14 06:19:07 GMT 51.49809 12.10083 36,050 300 373 0
2017-09-14 06:19:05 GMT 51.49581 12.10739 36,050 300 373 0
2017-09-14 06:19:01 GMT 51.49339 12.11411 36,050 300 373 0
2017-09-14 06:18:58 GMT 51.49022 12.12349 36,050 300 373 0
2017-09-14 06:18:56 GMT 51.48894 12.12720 36,050 300 373 0
2017-09-14 06:18:56 GMT 51.48894 12.12720 36,050 300 373 0
2017-09-14 06:18:54 GMT 51.48705 12.13249 36,050 300 373 0
2017-09-14 06:18:50 GMT 51.48331 12.14301 36,050 300 373 0
2017-09-14 06:18:48 GMT 51.48152 12.14851 36,050 300 373 0
2017-09-14 06:18:46 GMT 51.48029 12.15192 36,050 300 373 0
2017-09-14 06:18:44 GMT 51.47760 12.15942 36,050 300 373 0
2017-09-14 06:18:41 GMT 51.47598 12.16417 36,050 300 373 0
2017-09-14 06:18:39 GMT 51.47411 12.16934 36,050 300 373 0
2017-09-14 06:18:36 GMT 51.47118 12.17804 36,050 300 373 0
2017-09-14 06:18:31 GMT 51.46704 12.18979 36,050 300 373 0
2017-09-14 06:18:29 GMT 51.46527 12.19467 36,050 300 373 0
2017-09-14 06:18:27 GMT 51.46404 12.19802 36,050 300 373 0
2017-09-14 06:18:25 GMT 51.46262 12.20210 36,050 300 373 0
2017-09-14 06:18:22 GMT 51.46029 12.20863 36,050 300 373 0
2017-09-14 06:18:19 GMT 51.45657 12.21954 36,050 300 374 0
2017-09-14 06:18:17 GMT 51.45538 12.22303 36,050 300 374 0
2017-09-14 06:18:15 GMT 51.45414 12.22656 36,050 300 374 0
2017-09-14 06:18:13 GMT 51.45282 12.23016 36,050 300 374 0
2017-09-14 06:18:11 GMT 51.45060 12.23648 36,050 300 374 0
2017-09-14 06:18:09 GMT 51.44884 12.24144 36,050 300 374 0
2017-09-14 06:18:07 GMT 51.44733 12.24567 36,050 300 374 0
2017-09-14 06:18:05 GMT 51.44506 12.25212 36,050 300 374 0
2017-09-14 06:18:00 GMT 51.44087 12.26433 36,050 300 374 0
2017-09-14 06:17:58 GMT 51.43966 12.26769 36,050 300 374 0
2017-09-14 06:17:56 GMT 51.43785 12.27280 36,050 300 374 0
2017-09-14 06:17:54 GMT 51.43543 12.27960 36,050 300 374 0
2017-09-14 06:17:52 GMT 51.43414 12.28331 36,050 300 375 0
2017-09-14 06:17:49 GMT 51.43208 12.28905 36,050 300 375 0
2017-09-14 06:17:48 GMT 51.43071 12.29311 36,050 300 375 0
2017-09-14 06:17:47 GMT 51.43025 12.29422 36,050 300 375 0
2017-09-14 06:17:45 GMT 51.42801 12.30060 36,050 300 375 0
2017-09-14 06:17:41 GMT 51.42586 12.30714 36,050 300 375 0
2017-09-14 06:17:39 GMT 51.42360 12.31354 36,050 300 376 0
2017-09-14 06:17:37 GMT 51.42178 12.31864 36,050 300 376 0
2017-09-14 06:17:35 GMT 51.41995 12.32384 36,050 300 376 0
2017-09-14 06:17:33 GMT 51.41826 12.32852 36,050 300 376 64
2017-09-14 06:17:31 GMT 51.41611 12.33468 36,050 300 376 0
2017-09-14 06:17:29 GMT 51.41428 12.33980 36,050 300 376 0
2017-09-14 06:17:26 GMT 51.41258 12.34470 36,050 300 376 0
2017-09-14 06:17:26 GMT 51.41299 12.34344 36,050 300 376 0
2017-09-14 06:17:24 GMT 51.41052 12.35034 36,050 300 376 0
2017-09-14 06:17:22 GMT 51.40899 12.35489 36,050 300 377 0
2017-09-14 06:17:18 GMT 51.40530 12.36511 36,050 300 377 0
2017-09-14 06:17:16 GMT 51.40270 12.37259 36,050 300 377 0
2017-09-14 06:17:12 GMT 51.39968 12.38121 36,050 300 377 0
2017-09-14 06:17:09 GMT 51.39702 12.38872 36,050 300 377 0
2017-09-14 06:17:07 GMT 51.39528 12.39362 36,050 300 377 0
2017-09-14 06:17:07 GMT 51.39528 12.39362 36,050 300 377 0
2017-09-14 06:17:05 GMT 51.39326 12.39926 36,050 300 377 0
2017-09-14 06:17:03 GMT 51.39279 12.40067 36,050 300 378 0
2017-09-14 06:17:01 GMT 51.39116 12.40524 36,050 300 378 0
2017-09-14 06:16:59 GMT 51.38981 12.40906 36,050 300 378 0
2017-09-14 06:16:57 GMT 51.38757 12.41547 36,050 300 378 0
2017-09-14 06:16:57 GMT 51.38757 12.41547 36,050 300 378 0
2017-09-14 06:16:55 GMT 51.38539 12.42160 36,050 300 378 0
2017-09-14 06:16:53 GMT 51.38385 12.42615 36,050 300 378 0
2017-09-14 06:16:49 GMT 51.38086 12.43452 36,050 300 378 0
2017-09-14 06:16:47 GMT 51.37812 12.44224 36,050 300 378 0
2017-09-14 06:16:45 GMT 51.37691 12.44576 36,050 300 378 0
2017-09-14 06:16:43 GMT 51.37603 12.44812 36,050 300 379 0
2017-09-14 06:16:41 GMT 51.37276 12.45753 36,050 300 380 0
2017-09-14 06:16:38 GMT 51.37079 12.46310 36,050 300 380 0
2017-09-14 06:16:35 GMT 51.36858 12.46956 36,050 300 380 0
2017-09-14 06:16:33 GMT 51.36686 12.47429 36,050 300 380 0
2017-09-14 06:16:30 GMT 51.36444 12.48070 36,050 300 380 -64
2017-09-14 06:16:27 GMT 51.36178 12.48833 36,050 300 381 0
2017-09-14 06:16:25 GMT 51.35852 12.49762 36,050 300 381 0
2017-09-14 06:16:23 GMT 51.35811 12.49888 36,050 300 381 0
2017-09-14 06:16:21 GMT 51.35637 12.50385 36,050 300 381 0
2017-09-14 06:16:17 GMT 51.35275 12.51402 36,050 300 381 0
2017-09-14 06:16:14 GMT 51.34992 12.52204 36,050 300 381 0
2017-09-14 06:16:11 GMT 51.34679 12.53052 36,050 300 381 0
2017-09-14 06:16:09 GMT 51.34549 12.53426 36,050 300 381 0
2017-09-14 06:16:06 GMT 51.34260 12.54242 36,050 300 381 0
2017-09-14 06:16:04 GMT 51.34125 12.54639 36,050 300 381 0
2017-09-14 06:16:02 GMT 51.33998 12.55002 36,050 300 381 0
2017-09-14 06:16:00 GMT 51.33829 12.55492 36,050 300 381 0
2017-09-14 06:15:58 GMT 51.33660 12.55959 36,050 300 381 0
2017-09-14 06:15:56 GMT 51.33485 12.56472 36,050 300 381 0
2017-09-14 06:15:56 GMT 51.33485 12.56472 36,050 300 381 0
2017-09-14 06:15:54 GMT 51.33292 12.56958 36,050 300 381 0
2017-09-14 06:15:52 GMT 51.33119 12.57460 36,050 300 381 -64
2017-09-14 06:15:50 GMT 51.32915 12.58049 36,050 300 381 0
2017-09-14 06:15:48 GMT 51.32771 12.58454 36,050 300 381 0
2017-09-14 06:15:45 GMT 51.32566 12.59041 36,050 300 382 0
2017-09-14 06:15:43 GMT 51.32268 12.59895 36,050 300 382 0
2017-09-14 06:15:41 GMT 51.32140 12.60221 36,050 300 382 0
2017-09-14 06:15:38 GMT 51.31956 12.60735 36,050 300 382 0
2017-09-14 06:15:36 GMT 51.31645 12.61624 36,050 300 382 0
2017-09-14 06:15:34 GMT 51.31549 12.61906 36,050 300 382 0
2017-09-14 06:15:32 GMT 51.31314 12.62573 36,050 300 382 0
2017-09-14 06:15:30 GMT 51.31201 12.62893 36,050 300 382 0
2017-09-14 06:15:28 GMT 51.30931 12.63621 36,050 300 382 0
2017-09-14 06:15:26 GMT 51.30808 12.63977 36,050 300 382 0
2017-09-14 06:15:24 GMT 51.30670 12.64363 36,050 300 382 0
2017-09-14 06:15:21 GMT 51.30410 12.65106 36,050 300 382 0
2017-09-14 06:15:19 GMT 51.30176 12.65729 36,050 300 382 0
2017-09-14 06:15:17 GMT 51.30094 12.65968 36,050 300 382 64
2017-09-14 06:15:15 GMT 51.29814 12.66762 36,050 300 382 64
2017-09-14 06:15:13 GMT 51.29773 12.66884 36,050 300 382 64
2017-09-14 06:15:11 GMT 51.29457 12.67785 36,050 300 383 0
2017-09-14 06:15:07 GMT 51.29182 12.68520 36,050 300 383 0
2017-09-14 06:15:05 GMT 51.29004 12.69040 36,050 300 383 0
2017-09-14 06:15:03 GMT 51.28874 12.69402 36,050 300 384 -64
2017-09-14 06:15:00 GMT 51.28601 12.70190 36,050 300 384 0
2017-09-14 06:14:58 GMT 51.28292 12.71034 36,050 300 384 0
2017-09-14 06:14:56 GMT 51.28207 12.71267 36,050 300 384 0
2017-09-14 06:14:53 GMT 51.27956 12.71987 36,050 300 384 64
2017-09-14 06:14:51 GMT 51.27718 12.72625 36,050 300 384 0
2017-09-14 06:14:49 GMT 51.27669 12.72774 36,050 300 384 0
2017-09-14 06:14:49 GMT 51.27669 12.72774 36,050 300 384 0
2017-09-14 06:14:47 GMT 51.27366 12.73644 36,050 300 384 0
2017-09-14 06:14:46 GMT 51.27366 12.73644 36,050 300 384 0
2017-09-14 06:14:44 GMT 51.27081 12.74444 36,050 300 384 0
2017-09-14 06:14:42 GMT 51.27036 12.74585 36,050 300 384 0
2017-09-14 06:14:40 GMT 51.26765 12.75307 36,050 300 384 0
2017-09-14 06:14:37 GMT 51.26458 12.76192 36,050 300 384 64
2017-09-14 06:14:35 GMT 51.26367 12.76448 36,050 300 384 0
2017-09-14 06:14:32 GMT 51.26152 12.77012 36,050 300 384 0
2017-09-14 06:14:29 GMT 51.25867 12.77832 36,050 300 384 0
2017-09-14 06:14:26 GMT 51.25598 12.78601 36,050 300 384 0
2017-09-14 06:14:24 GMT 51.25420 12.79076 36,050 300 384 0
2017-09-14 06:14:22 GMT 51.25186 12.79736 36,050 300 384 0
2017-09-14 06:14:19 GMT 51.24921 12.80494 36,050 300 384 0
2017-09-14 06:14:16 GMT 51.24715 12.81043 36,050 300 384 0
2017-09-14 06:14:14 GMT 51.24531 12.81555 36,050 300 384 0
2017-09-14 06:14:11 GMT 51.24316 12.82194 36,050 300 384 0
2017-09-14 06:14:10 GMT 51.24172 12.82547 36,050 300 384 0
2017-09-14 06:14:10 GMT 51.24219 12.82417 36,050 300 384 0
2017-09-14 06:14:08 GMT 51.23986 12.83073 36,050 300 384 0
2017-09-14 06:14:05 GMT 51.23749 12.83760 36,050 300 384 0
2017-09-14 06:14:02 GMT 51.23358 12.84828 36,050 300 384 0
2017-09-14 06:14:00 GMT 51.23274 12.85080 36,050 300 384 0
2017-09-14 06:13:58 GMT 51.23067 12.85668 36,050 300 384 0
2017-09-14 06:13:55 GMT 51.22815 12.86351 36,050 300 384 0
2017-09-14 06:13:53 GMT 51.22700 12.86677 36,050 300 384 0
2017-09-14 06:13:50 GMT 51.22385 12.87523 36,050 300 385 0
2017-09-14 06:13:48 GMT 51.22254 12.87895 36,050 300 385 0
2017-09-14 06:13:46 GMT 51.21989 12.88666 36,050 300 385 0
2017-09-14 06:13:44 GMT 51.21904 12.88919 36,050 300 385 0
2017-09-14 06:13:41 GMT 51.21588 12.89765 36,050 300 385 0
2017-09-14 06:13:39 GMT 51.21455 12.90144 36,050 300 385 0
2017-09-14 06:13:37 GMT 51.21193 12.90855 36,050 300 385 0
2017-09-14 06:13:34 GMT 51.20938 12.91584 36,050 300 386 0
2017-09-14 06:13:32 GMT 51.20769 12.92059 36,050 300 386 0
2017-09-14 06:13:30 GMT 51.20523 12.92732 36,050 300 386 0
2017-09-14 06:13:28 GMT 51.20392 12.93114 36,050 300 386 0
2017-09-14 06:13:25 GMT 51.20183 12.93640 36,050 300 386 0
2017-09-14 06:13:21 GMT 51.19853 12.94605 36,050 300 386 0
2017-09-14 06:13:19 GMT 51.19615 12.95227 36,050 300 386 0
2017-09-14 06:13:17 GMT 51.19494 12.95578 36,050 300 386 0
2017-09-14 06:13:15 GMT 51.19229 12.96333 36,050 300 386 0
2017-09-14 06:13:13 GMT 51.19084 12.96706 36,050 300 386 0
2017-09-14 06:13:10 GMT 51.18824 12.97455 36,050 300 386 0
2017-09-14 06:13:07 GMT 51.18600 12.98050 36,050 300 386 0
2017-09-14 06:13:05 GMT 51.18443 12.98502 36,050 300 386 0
2017-09-14 06:13:03 GMT 51.18301 12.98918 36,050 300 386 0
2017-09-14 06:13:01 GMT 51.18023 12.99667 36,050 300 386 0
2017-09-14 06:12:59 GMT 51.17897 13.00026 36,050 300 386 0
2017-09-14 06:12:57 GMT 51.17655 13.00659 36,050 300 386 -64
2017-09-14 06:12:55 GMT 51.17477 13.01175 36,050 300 386 -64
2017-09-14 06:12:52 GMT 51.17213 13.01941 36,050 300 386 0
2017-09-14 06:12:50 GMT 51.17064 13.02322 36,050 300 386 0
2017-09-14 06:12:48 GMT 51.16946 13.02652 36,050 300 386 0
2017-09-14 06:12:46 GMT 51.16733 13.03261 36,050 300 386 0
2017-09-14 06:12:44 GMT 51.16461 13.03996 36,050 300 386 0
2017-09-14 06:12:42 GMT 51.16319 13.04398 36,050 300 385 0
2017-09-14 06:12:40 GMT 51.16123 13.04916 36,050 300 385 0
2017-09-14 06:12:38 GMT 51.16002 13.05267 36,050 300 385 -64
2017-09-14 06:12:36 GMT 51.15798 13.05840 36,050 300 385 0
2017-09-14 06:12:34 GMT 51.15637 13.06311 36,050 300 384 0
2017-09-14 06:12:30 GMT 51.15304 13.07198 36,050 300 384 0
2017-09-14 06:12:28 GMT 51.15134 13.07700 36,050 300 384 0
2017-09-14 06:12:26 GMT 51.14987 13.08071 36,050 300 384 0
2017-09-14 06:12:24 GMT 51.14704 13.08891 36,050 300 383 0
2017-09-14 06:12:22 GMT 51.14662 13.08998 36,050 300 384 0
2017-09-14 06:12:20 GMT 51.14355 13.09830 36,050 300 383 -64
2017-09-14 06:12:17 GMT 51.14178 13.10318 36,075 300 383 -64
2017-09-14 06:12:17 GMT 51.14178 13.10318 36,075 300 383 -64
2017-09-14 06:12:15 GMT 51.14008 13.10817 36,050 300 383 0
2017-09-14 06:12:13 GMT 51.13765 13.11456 36,050 300 383 64
2017-09-14 06:12:10 GMT 51.13540 13.12096 36,050 300 383 0
2017-09-14 06:12:08 GMT 51.13298 13.12747 36,050 300 383 0
2017-09-14 06:12:06 GMT 51.13247 13.12881 36,050 300 383 0
2017-09-14 06:12:04 GMT 51.12891 13.13898 36,075 300 383 0
2017-09-14 06:12:01 GMT 51.12795 13.14133 36,050 300 383 0
2017-09-14 06:11:59 GMT 51.12515 13.14922 36,050 300 383 0
2017-09-14 06:11:57 GMT 51.12332 13.15457 36,050 300 383 0
2017-09-14 06:11:55 GMT 51.12181 13.15819 36,050 300 383 0
2017-09-14 06:11:53 GMT 51.11976 13.16414 36,050 300 383 64
2017-09-14 06:11:51 GMT 51.11847 13.16763 36,050 300 383 64
2017-09-14 06:11:49 GMT 51.11668 13.17239 36,050 300 383 0
2017-09-14 06:11:47 GMT 51.11481 13.17758 36,050 300 383 0
2017-09-14 06:11:45 GMT 51.11220 13.18508 36,050 300 384 0
2017-09-14 06:11:43 GMT 51.11184 13.18619 36,050 300 384 0
2017-09-14 06:11:41 GMT 51.10918 13.19317 36,050 300 384 0
2017-09-14 06:11:39 GMT 51.10735 13.19844 36,050 300 384 0
2017-09-14 06:11:37 GMT 51.10588 13.20215 36,050 300 384 0
2017-09-14 06:11:35 GMT 51.10419 13.20698 36,050 300 384 0
2017-09-14 06:11:33 GMT 51.10254 13.21173 36,050 300 384 0
2017-09-14 06:11:30 GMT 51.10016 13.21793 36,050 300 384 0
2017-09-14 06:11:28 GMT 51.09723 13.22624 36,050 300 384 0
2017-09-14 06:11:26 GMT 51.09640 13.22850 36,050 300 384 0
2017-09-14 06:11:24 GMT 51.09462 13.23326 36,050 300 384 0
2017-09-14 06:11:22 GMT 51.09279 13.23845 36,050 300 384 0
2017-09-14 06:11:20 GMT 51.09034 13.24478 36,050 300 384 0
2017-09-14 06:11:18 GMT 51.08852 13.24989 36,050 300 384 0
2017-09-14 06:11:16 GMT 51.08730 13.25345 36,050 300 384 0
2017-09-14 06:11:14 GMT 51.08489 13.25981 36,050 300 384 0
2017-09-14 06:11:12 GMT 51.08336 13.26428 36,050 300 384 0
2017-09-14 06:11:09 GMT 51.08154 13.26927 36,050 300 384 0
2017-09-14 06:11:07 GMT 51.07865 13.27713 36,050 300 384 0
2017-09-14 06:11:05 GMT 51.07700 13.28173 36,050 300 384 0
2017-09-14 06:11:02 GMT 51.07544 13.28574 36,050 300 384 0
2017-09-14 06:11:00 GMT 51.07384 13.29019 36,050 300 384 0
2017-09-14 06:10:58 GMT 51.07144 13.29712 36,050 301 383 0
2017-09-14 06:10:56 GMT 51.06953 13.30222 36,050 301 383 0
2017-09-14 06:10:54 GMT 51.06725 13.30841 36,050 301 383 0
2017-09-14 06:10:51 GMT 51.06538 13.31337 36,050 301 383 0
2017-09-14 06:10:49 GMT 51.06273 13.32077 36,050 301 383 0
2017-09-14 06:10:47 GMT 51.06096 13.32588 36,050 301 383 0
2017-09-14 06:10:44 GMT 51.05812 13.33336 36,050 301 383 0
2017-09-14 06:10:44 GMT 51.05812 13.33336 36,050 301 383 0
2017-09-14 06:10:42 GMT 51.05724 13.33588 36,050 301 383 64
2017-09-14 06:10:40 GMT 51.05603 13.33941 36,050 301 383 64
2017-09-14 06:10:37 GMT 51.05295 13.34763 36,050 301 383 0
2017-09-14 06:10:35 GMT 51.05128 13.35251 36,050 301 383 -64
2017-09-14 06:10:33 GMT 51.04921 13.35774 36,050 301 383 0
2017-09-14 06:10:31 GMT 51.04709 13.36388 36,050 301 383 0
2017-09-14 06:10:29 GMT 51.04578 13.36754 36,050 301 383 0
2017-09-14 06:10:27 GMT 51.04399 13.37199 36,050 301 383 0
2017-09-14 06:10:27 GMT 51.04399 13.37199 36,050 301 383 0
2017-09-14 06:10:25 GMT 51.04147 13.37919 36,050 301 383 0
2017-09-14 06:10:23 GMT 51.04019 13.38276 36,050 301 383 0
2017-09-14 06:10:21 GMT 51.03857 13.38692 36,050 301 383 0
2017-09-14 06:10:19 GMT 51.03735 13.39048 36,050 301 383 0
2017-09-14 06:10:17 GMT 51.03484 13.39738 36,050 301 383 0
2017-09-14 06:10:16 GMT 51.03424 13.39872 36,050 301 383 0
2017-09-14 06:10:16 GMT 51.03424 13.39872 36,050 301 383 0
2017-09-14 06:10:16 GMT 51.03424 13.39872 36,050 301 383 0
2017-09-14 06:10:14 GMT 51.03261 13.40324 36,050 301 383 0
2017-09-14 06:10:12 GMT 51.03017 13.41030 36,050 301 383 64
2017-09-14 06:10:10 GMT 51.02865 13.41393 36,050 301 382 64
2017-09-14 06:10:06 GMT 51.02563 13.42262 36,050 301 382 0
2017-09-14 06:10:04 GMT 51.02321 13.42886 36,050 301 382 0
2017-09-14 06:10:01 GMT 51.02102 13.43514 36,050 301 382 0
2017-09-14 06:09:59 GMT 51.01934 13.43948 36,050 301 382 0
2017-09-14 06:09:56 GMT 51.01630 13.44816 36,050 301 382 0
2017-09-14 06:09:54 GMT 51.01396 13.45410 36,050 301 382 0
2017-09-14 06:09:51 GMT 51.01162 13.46069 36,050 301 382 0
2017-09-14 06:09:49 GMT 51.01017 13.46489 36,050 301 382 0
2017-09-14 06:09:47 GMT 51.00874 13.46827 36,050 301 382 0
2017-09-14 06:09:45 GMT 51.00655 13.47451 36,050 301 382 0
2017-09-14 06:09:43 GMT 51.00431 13.48045 36,050 301 382 0
2017-09-14 06:09:41 GMT 51.00307 13.48342 36,050 301 381 0
2017-09-14 06:09:39 GMT 51.00170 13.48778 36,050 301 381 0
2017-09-14 06:09:37 GMT 51.00035 13.49159 36,050 301 381 0
2017-09-14 06:09:35 GMT 50.99807 13.49747 36,050 301 381 0
2017-09-14 06:09:33 GMT 50.99689 13.50086 36,050 301 381 0
2017-09-14 06:09:33 GMT 50.99652 13.50190 36,050 301 381 0
2017-09-14 06:09:31 GMT 50.99407 13.50822 36,050 301 381 0
2017-09-14 06:09:29 GMT 50.99236 13.51326 36,050 301 381 0
2017-09-14 06:09:27 GMT 50.99109 13.51677 36,050 301 381 0
2017-09-14 06:09:25 GMT 50.98839 13.52379 36,050 301 381 0
2017-09-14 06:09:23 GMT 50.98741 13.52654 36,050 301 381 0
2017-09-14 06:09:21 GMT 50.98490 13.53371 36,050 301 381 0
2017-09-14 06:09:19 GMT 50.98416 13.53582 36,050 301 381 0
2017-09-14 06:09:17 GMT 50.98178 13.54191 36,050 301 381 0
2017-09-14 06:09:14 GMT 50.97876 13.55037 36,050 301 381 0
2017-09-14 06:09:12 GMT 50.97684 13.55530 36,050 301 381 0
2017-09-14 06:09:10 GMT 50.97556 13.55906 36,050 301 381 0
2017-09-14 06:09:08 GMT 50.97316 13.56514 36,050 301 380 0
2017-09-14 06:09:06 GMT 50.97089 13.57153 36,050 301 380 0
2017-09-14 06:09:03 GMT 50.96938 13.57583 36,050 301 380 0
2017-09-14 06:09:01 GMT 50.96651 13.58345 36,050 301 380 0
2017-09-14 06:08:59 GMT 50.96562 13.58593 36,050 301 380 0
2017-09-14 06:08:57 GMT 50.96393 13.59061 36,050 301 380 0
2017-09-14 06:08:54 GMT 50.96196 13.59566 36,050 301 380 0
2017-09-14 06:08:52 GMT 50.95985 13.60159 36,050 301 380 0
2017-09-14 06:08:50 GMT 50.95780 13.60741 36,050 301 380 0
2017-09-14 06:08:48 GMT 50.95601 13.61199 36,050 301 380 0
2017-09-14 06:08:46 GMT 50.95422 13.61703 36,050 301 380 0
2017-09-14 06:08:44 GMT 50.95280 13.62082 36,050 301 380 0
2017-09-14 06:08:41 GMT 50.95056 13.62683 36,050 301 380 0
2017-09-14 06:08:39 GMT 50.94798 13.63411 36,050 301 380 0
2017-09-14 06:08:37 GMT 50.94593 13.63930 36,050 301 380 0
2017-09-14 06:08:34 GMT 50.94374 13.64540 36,050 301 380 0
2017-09-14 06:08:34 GMT 50.94374 13.64540 36,050 301 380 0
2017-09-14 06:08:30 GMT 50.93935 13.65712 36,050 301 380 0
2017-09-14 06:08:28 GMT 50.93770 13.66187 36,050 301 380 0
2017-09-14 06:08:26 GMT 50.93642 13.66551 36,050 301 380 0
2017-09-14 06:08:23 GMT 50.93395 13.67204 36,050 301 380 0
2017-09-14 06:08:20 GMT 50.93102 13.68006 36,050 301 380 0
2017-09-14 06:08:17 GMT 50.92873 13.68607 36,050 301 380 0
2017-09-14 06:08:15 GMT 50.92670 13.69171 36,050 301 380 0
2017-09-14 06:08:13 GMT 50.92511 13.69579 36,050 301 380 0
2017-09-14 06:08:11 GMT 50.92296 13.70166 36,050 301 380 0
2017-09-14 06:08:09 GMT 50.92072 13.70760 36,050 301 380 0
2017-09-14 06:08:06 GMT 50.91879 13.71294 36,050 301 380 0
2017-09-14 06:08:03 GMT 50.91558 13.72147 36,050 301 380 0
2017-09-14 06:08:01 GMT 50.91334 13.72780 36,050 301 380 0
2017-09-14 06:07:59 GMT 50.91255 13.72993 36,050 301 380 0
2017-09-14 06:07:57 GMT 50.91009 13.73634 36,050 301 380 -64
2017-09-14 06:07:55 GMT 50.90971 13.73756 36,050 301 380 0
2017-09-14 06:07:51 GMT 50.90538 13.74916 36,050 301 380 0
2017-09-14 06:07:49 GMT 50.90352 13.75427 36,050 301 380 0
2017-09-14 06:07:46 GMT 50.90039 13.76245 36,050 301 380 0
2017-09-14 06:07:44 GMT 50.89952 13.76505 36,050 301 380 0
2017-09-14 06:07:41 GMT 50.89654 13.77289 36,050 301 380 0
2017-09-14 06:07:39 GMT 50.89431 13.77922 36,050 301 380 0
2017-09-14 06:07:36 GMT 50.89201 13.78517 36,050 301 380 0
2017-09-14 06:07:34 GMT 50.89030 13.78983 36,050 301 381 0
2017-09-14 06:07:32 GMT 50.88821 13.79578 36,050 301 381 0
2017-09-14 06:07:30 GMT 50.88667 13.79959 36,050 301 381 0
2017-09-14 06:07:28 GMT 50.88506 13.80410 36,050 301 381 0
2017-09-14 06:07:28 GMT 50.88538 13.80321 36,050 301 381 0
2017-09-14 06:07:26 GMT 50.88235 13.81130 36,050 301 381 0
2017-09-14 06:07:24 GMT 50.88139 13.81397 36,050 301 381 0
2017-09-14 06:07:20 GMT 50.87820 13.82240 36,050 301 381 0
2017-09-14 06:07:18 GMT 50.87606 13.82858 36,050 301 382 64
2017-09-14 06:07:16 GMT 50.87373 13.83438 36,050 301 382 64
2017-09-14 06:07:14 GMT 50.87242 13.83825 36,050 301 382 0
2017-09-14 06:07:12 GMT 50.86982 13.84499 36,050 301 382 0
2017-09-14 06:07:10 GMT 50.86890 13.84752 36,050 301 382 0
2017-09-14 06:07:07 GMT 50.86647 13.85435 36,050 301 382 0
2017-09-14 06:07:05 GMT 50.86358 13.86200 36,050 301 382 0
2017-09-14 06:07:03 GMT 50.86270 13.86452 36,050 301 382 0
2017-09-14 06:07:01 GMT 50.86074 13.86955 36,050 301 382 0
2017-09-14 06:06:59 GMT 50.85902 13.87436 36,050 301 385 0
2017-09-14 06:06:57 GMT 50.85785 13.87756 36,050 301 382 0
2017-09-14 06:06:55 GMT 50.85506 13.88504 36,050 301 382 0
2017-09-14 06:06:55 GMT 50.85506 13.88504 36,050 301 382 0
2017-09-14 06:06:52 GMT 50.85036 13.89771 36,050 301 382 0
2017-09-14 06:06:49 GMT 50.84999 13.89877 36,050 301 383 0
2017-09-14 06:06:47 GMT 50.84761 13.90488 36,050 301 383 0
2017-09-14 06:06:44 GMT 50.84454 13.91304 36,050 301 383 0
2017-09-14 06:06:44 GMT 50.84454 13.91304 36,050 301 383 0
2017-09-14 06:06:42 GMT 50.84372 13.91545 36,050 301 383 0
2017-09-14 06:06:40 GMT 50.84152 13.92116 36,050 301 383 0
2017-09-14 06:06:38 GMT 50.84054 13.92395 36,050 301 384 64
2017-09-14 06:06:36 GMT 50.83816 13.93005 36,050 301 384 64
2017-09-14 06:06:34 GMT 50.83502 13.93883 36,050 301 385 0
2017-09-14 06:06:32 GMT 50.83411 13.94098 36,050 301 384 0
2017-09-14 06:06:30 GMT 50.83328 13.94328 36,050 301 385 0
2017-09-14 06:06:27 GMT 50.83034 13.95111 36,050 301 385 0
2017-09-14 06:06:25 GMT 50.82815 13.95729 36,050 301 385 0
2017-09-14 06:06:23 GMT 50.82596 13.96295 36,050 301 385 0
2017-09-14 06:06:21 GMT 50.82452 13.96668 36,050 301 385 0
2017-09-14 06:06:19 GMT 50.82243 13.97238 36,050 301 385 0
2017-09-14 06:06:17 GMT 50.82038 13.97781 36,050 301 385 0
2017-09-14 06:06:14 GMT 50.81859 13.98285 36,050 301 386 -64
2017-09-14 06:06:12 GMT 50.81639 13.98864 36,050 301 386 -64
2017-09-14 06:06:09 GMT 50.81337 13.99666 36,050 301 386 -64
2017-09-14 06:06:07 GMT 50.81209 14.00024 36,050 301 386 0
2017-09-14 06:06:05 GMT 50.80957 14.00675 36,050 301 386 0
2017-09-14 06:06:03 GMT 50.80776 14.01154 36,050 301 386 0
2017-09-14 06:06:00 GMT 50.80553 14.01741 36,050 301 387 -64
2017-09-14 06:05:58 GMT 50.80312 14.02420 36,050 301 387 -64
2017-09-14 06:05:55 GMT 50.80083 14.03023 36,050 301 387 -64
2017-09-14 06:05:53 GMT 50.79886 14.03541 36,050 301 387 -64
2017-09-14 06:05:51 GMT 50.79799 14.03786 36,050 301 387 -64
2017-09-14 06:05:49 GMT 50.79611 14.04253 36,050 301 387 -64
2017-09-14 06:05:46 GMT 50.79282 14.05151 36,075 301 387 -64
2017-09-14 06:05:43 GMT 50.78947 14.06050 36,075 301 387 64
2017-09-14 06:05:41 GMT 50.78803 14.06464 36,075 301 387 0
2017-09-14 06:05:37 GMT 50.78426 14.07433 36,050 301 387 0
2017-09-14 06:05:35 GMT 50.78332 14.07707 36,050 301 387 0
2017-09-14 06:05:33 GMT 50.78128 14.08225 36,050 301 387 0
2017-09-14 06:05:30 GMT 50.77844 14.08974 36,050 301 387 0
2017-09-14 06:05:27 GMT 50.77524 14.09835 36,050 301 387 0
2017-09-14 06:05:25 GMT 50.77446 14.10065 36,050 301 387 0
2017-09-14 06:05:23 GMT 50.77220 14.10652 36,050 301 387 0
2017-09-14 06:05:23 GMT 50.77220 14.10652 36,050 301 387 0
2017-09-14 06:05:21 GMT 50.76979 14.11283 36,050 301 387 0
2017-09-14 06:05:19 GMT 50.76805 14.11788 36,050 301 387 64
2017-09-14 06:05:17 GMT 50.76731 14.11987 36,050 301 387 64
2017-09-14 06:05:15 GMT 50.76498 14.12604 36,050 301 387 64
2017-09-14 06:05:12 GMT 50.76172 14.13483 36,050 301 387 0
2017-09-14 06:05:10 GMT 50.75981 14.13963 36,050 301 388 0
2017-09-14 06:05:08 GMT 50.75752 14.14564 36,050 301 388 64
2017-09-14 06:05:06 GMT 50.75661 14.14824 36,050 301 388 0
2017-09-14 06:05:03 GMT 50.75308 14.15774 36,050 301 388 0
2017-09-14 06:05:01 GMT 50.75171 14.16115 36,050 301 388 0
2017-09-14 06:04:59 GMT 50.74901 14.16843 36,050 301 389 0
2017-09-14 06:04:57 GMT 50.74850 14.16977 36,050 301 389 0
2017-09-14 06:04:55 GMT 50.74612 14.17608 36,050 301 389 64
2017-09-14 06:04:53 GMT 50.74520 14.17862 36,050 301 389 0
2017-09-14 06:04:51 GMT 50.74246 14.18610 36,050 301 389 0
2017-09-14 06:04:49 GMT 50.74072 14.19055 36,050 301 389 0
2017-09-14 06:04:46 GMT 50.73733 14.19975 36,050 301 390 0
2017-09-14 06:04:44 GMT 50.73633 14.20198 36,050 301 390 0
2017-09-14 06:04:42 GMT 50.73458 14.20700 36,050 301 390 -64
2017-09-14 06:04:40 GMT 50.73221 14.21312 36,050 301 390 0
2017-09-14 06:04:38 GMT 50.73072 14.21692 36,050 301 390 -64
2017-09-14 06:04:34 GMT 50.72717 14.22655 36,050 301 390 0
2017-09-14 06:04:31 GMT 50.72397 14.23485 36,050 301 390 64
2017-09-14 06:04:31 GMT 50.72397 14.23485 36,050 301 390 64
2017-09-14 06:04:29 GMT 50.72262 14.23859 36,050 301 390 0
2017-09-14 06:04:27 GMT 50.72108 14.24248 36,050 301 390 0
2017-09-14 06:04:24 GMT 50.71779 14.25142 36,050 301 390 0
2017-09-14 06:04:22 GMT 50.71605 14.25587 36,050 301 390 0
2017-09-14 06:04:20 GMT 50.71461 14.25995 36,050 301 390 0
2017-09-14 06:04:18 GMT 50.71224 14.26620 36,050 301 391 0
2017-09-14 06:04:18 GMT 50.71224 14.26620 36,050 301 390 0
2017-09-14 06:04:16 GMT 50.71117 14.26872 36,050 301 390 0
2017-09-14 06:04:14 GMT 50.70856 14.27567 36,050 301 391 0
2017-09-14 06:04:11 GMT 50.70634 14.28163 36,050 301 391 0
2017-09-14 06:04:09 GMT 50.70395 14.28795 36,075 301 391 0
2017-09-14 06:04:06 GMT 50.70067 14.29685 36,075 301 391 0
2017-09-14 06:04:03 GMT 50.69920 14.30049 36,075 301 391 0
2017-09-14 06:04:01 GMT 50.69659 14.30747 36,075 301 391 64
2017-09-14 06:03:59 GMT 50.69436 14.31335 36,050 301 391 64
2017-09-14 06:03:57 GMT 50.69232 14.31877 36,050 301 391 64
2017-09-14 06:03:57 GMT 50.69232 14.31877 36,050 301 391 64
2017-09-14 06:03:55 GMT 50.69138 14.32137 36,050 301 391 64
2017-09-14 06:03:51 GMT 50.68733 14.33205 36,050 301 391 64
2017-09-14 06:03:49 GMT 50.68483 14.33872 36,050 301 392 0
2017-09-14 06:03:49 GMT 50.68519 14.33762 36,050 301 392 0
2017-09-14 06:03:47 GMT 50.68286 14.34364 36,050 301 392 0
2017-09-14 06:03:45 GMT 50.68140 14.34748 36,050 301 392 0
2017-09-14 06:03:43 GMT 50.68002 14.35126 36,050 301 392 0
2017-09-14 06:03:41 GMT 50.67774 14.35738 36,050 301 392 0
2017-09-14 06:03:38 GMT 50.67528 14.36386 36,050 301 393 0
2017-09-14 06:03:38 GMT 50.67528 14.36386 36,050 301 393 0
2017-09-14 06:03:36 GMT 50.67272 14.37035 36,050 301 393 -64
2017-09-14 06:03:35 GMT 50.67225 14.37164 36,050 301 393 -64
2017-09-14 06:03:35 GMT 50.67225 14.37164 36,050 301 393 -64
2017-09-14 06:03:32 GMT 50.66972 14.37828 36,050 301 393 0
2017-09-14 06:03:30 GMT 50.66785 14.38334 36,050 301 393 0
2017-09-14 06:03:27 GMT 50.66555 14.38934 36,050 301 393 0
2017-09-14 06:03:24 GMT 50.66140 14.40025 36,050 301 393 0
2017-09-14 06:03:21 GMT 50.65954 14.40516 36,050 301 393 0
2017-09-14 06:03:19 GMT 50.65828 14.40871 36,050 301 393 0
2017-09-14 06:03:17 GMT 50.65540 14.41601 36,050 301 393 0
2017-09-14 06:03:15 GMT 50.65375 14.42078 36,050 301 393 0
2017-09-14 06:03:13 GMT 50.65219 14.42476 36,050 301 393 0
2017-09-14 06:03:11 GMT 50.64990 14.43076 36,050 301 393 0
2017-09-14 06:03:08 GMT 50.64772 14.43648 36,050 301 393 0
2017-09-14 06:03:06 GMT 50.64468 14.44420 36,050 301 393 0
2017-09-14 06:03:04 GMT 50.64381 14.44673 36,050 301 393 -64
2017-09-14 06:03:02 GMT 50.64190 14.45170 36,050 301 393 -64
2017-09-14 06:03:00 GMT 50.63960 14.45779 36,050 301 393 0
2017-09-14 06:02:56 GMT 50.63631 14.46625 36,050 301 393 0
2017-09-14 06:02:53 GMT 50.63260 14.47601 36,050 301 393 0
2017-09-14 06:02:50 GMT 50.63026 14.48208 36,050 301 393 0
2017-09-14 06:02:47 GMT 50.62830 14.48711 36,050 301 393 0
2017-09-14 06:02:47 GMT 50.62830 14.48711 36,050 301 393 0
2017-09-14 06:02:44 GMT 50.62386 14.49892 36,050 301 393 0
2017-09-14 06:02:44 GMT 50.62453 14.49757 36,050 301 393 0
2017-09-14 06:02:42 GMT 50.62312 14.50109 36,050 301 393 0
2017-09-14 06:02:40 GMT 50.62141 14.50537 36,050 301 393 0
2017-09-14 06:02:38 GMT 50.61941 14.51070 36,050 301 393 0
2017-09-14 06:02:35 GMT 50.61662 14.51828 36,050 301 393 0
2017-09-14 06:02:32 GMT 50.61276 14.52830 36,050 301 393 0
2017-09-14 06:02:30 GMT 50.61127 14.53209 36,050 301 393 0
2017-09-14 06:02:28 GMT 50.60941 14.53684 36,050 301 393 0
2017-09-14 06:02:26 GMT 50.60861 14.53914 36,050 301 393 0
2017-09-14 06:02:24 GMT 50.60638 14.54493 36,050 301 393 0
2017-09-14 06:02:22 GMT 50.60399 14.55139 36,050 301 393 0
2017-09-14 06:02:19 GMT 50.60101 14.55891 36,050 301 393 0
2017-09-14 06:02:15 GMT 50.59721 14.56876 36,050 301 393 0
2017-09-14 06:02:14 GMT 50.59684 14.56980 36,050 301 393 0
2017-09-14 06:02:13 GMT 50.59642 14.57099 36,050 301 393 0
2017-09-14 06:02:11 GMT 50.59438 14.57647 36,050 301 393 0
2017-09-14 06:02:09 GMT 50.59241 14.58138 36,050 301 393 0
2017-09-14 06:02:06 GMT 50.58975 14.58854 36,050 301 393 0
2017-09-14 06:02:04 GMT 50.58746 14.59461 36,050 301 393 0
2017-09-14 06:02:02 GMT 50.58520 14.60068 36,050 301 394 0
2017-09-14 06:01:58 GMT 50.58165 14.60965 36,050 301 394 0
2017-09-14 06:01:54 GMT 50.57845 14.61783 36,050 301 394 0
2017-09-14 06:01:52 GMT 50.57579 14.62495 36,050 301 394 0
2017-09-14 06:01:50 GMT 50.57474 14.62757 36,050 301 394 0
2017-09-14 06:01:48 GMT 50.57235 14.63394 36,050 301 394 0
2017-09-14 06:01:44 GMT 50.56914 14.64255 36,050 301 394 0
2017-09-14 06:01:42 GMT 50.56695 14.64834 36,050 301 394 0
2017-09-14 06:01:42 GMT 50.56732 14.64723 36,050 301 394 0
2017-09-14 06:01:40 GMT 50.56467 14.65391 36,050 301 394 0
2017-09-14 06:01:38 GMT 50.56229 14.66014 36,050 301 394 0
2017-09-14 06:01:34 GMT 50.55913 14.66877 36,050 301 394 0
2017-09-14 06:01:31 GMT 50.55560 14.67773 36,050 301 394 0
2017-09-14 06:01:29 GMT 50.55409 14.68157 36,050 301 394 0
2017-09-14 06:01:26 GMT 50.55205 14.68686 36,050 301 394 0
2017-09-14 06:01:24 GMT 50.54956 14.69342 36,050 301 394 0
2017-09-14 06:01:22 GMT 50.54721 14.69985 36,050 301 394 0
2017-09-14 06:01:20 GMT 50.54626 14.70202 36,050 301 394 0
2017-09-14 06:01:18 GMT 50.54375 14.70860 36,050 301 394 0
2017-09-14 06:01:16 GMT 50.54223 14.71255 36,050 301 394 0
2017-09-14 06:01:12 GMT 50.53894 14.72132 36,050 302 393 0
2017-09-14 06:01:10 GMT 50.53646 14.72747 36,050 302 393 0
2017-09-14 06:01:08 GMT 50.53469 14.73207 36,050 302 393 0
2017-09-14 06:01:06 GMT 50.53235 14.73830 36,050 302 393 0
2017-09-14 06:01:03 GMT 50.53003 14.74432 36,050 302 393 0
2017-09-14 06:01:00 GMT 50.52772 14.75045 36,050 302 393 64
2017-09-14 06:00:58 GMT 50.52477 14.75798 36,050 302 393 64
2017-09-14 06:00:56 GMT 50.52388 14.76042 36,050 302 393 64
2017-09-14 06:00:53 GMT 50.52054 14.76896 36,050 302 393 0
2017-09-14 06:00:49 GMT 50.51672 14.77876 36,050 302 393 0
2017-09-14 06:00:47 GMT 50.51490 14.78359 36,050 302 393 0
2017-09-14 06:00:45 GMT 50.51323 14.78827 36,050 302 394 0
2017-09-14 06:00:42 GMT 50.51044 14.79524 36,050 302 394 0
2017-09-14 06:00:39 GMT 50.50690 14.80429 36,050 302 394 0
2017-09-14 06:00:37 GMT 50.50543 14.80813 36,050 302 394 0
2017-09-14 06:00:35 GMT 50.50301 14.81448 36,050 302 395 0
2017-09-14 06:00:32 GMT 50.50094 14.82004 36,050 302 396 0
2017-09-14 06:00:30 GMT 50.49852 14.82641 36,050 302 396 0
2017-09-14 06:00:28 GMT 50.49638 14.83169 36,050 302 397 0
2017-09-14 06:00:26 GMT 50.49504 14.83537 36,050 302 397 0
2017-09-14 06:00:22 GMT 50.49056 14.84679 36,050 302 397 0
2017-09-14 06:00:19 GMT 50.48872 14.85149 36,050 302 397 0
2017-09-14 06:00:16 GMT 50.48552 14.85959 36,050 302 397 0
2017-09-14 06:00:14 GMT 50.48364 14.86472 36,050 302 397 0
2017-09-14 06:00:11 GMT 50.48016 14.87354 36,050 302 397 0
2017-09-14 06:00:09 GMT 50.47829 14.87845 36,050 302 397 0
2017-09-14 06:00:06 GMT 50.47557 14.88588 36,050 302 397 0
2017-09-14 06:00:04 GMT 50.47333 14.89130 36,050 302 398 0
2017-09-14 05:59:59 GMT 50.46910 14.90243 36,050 302 398 0
2017-09-14 05:59:57 GMT 50.46681 14.90852 36,050 302 398 0
2017-09-14 05:59:55 GMT 50.46551 14.91186 36,050 302 398 0
2017-09-14 05:59:53 GMT 50.46402 14.91565 36,050 302 398 0
2017-09-14 05:59:49 GMT 50.45998 14.92615 36,050 302 399 0
2017-09-14 05:59:47 GMT 50.45860 14.92962 36,050 302 398 0
2017-09-14 05:59:45 GMT 50.45586 14.93642 36,050 302 398 0
2017-09-14 05:59:43 GMT 50.45494 14.93924 36,050 302 398 0
2017-09-14 05:59:41 GMT 50.45257 14.94504 36,050 302 398 0
2017-09-14 05:59:38 GMT 50.45004 14.95189 36,050 302 399 0
2017-09-14 05:59:36 GMT 50.44720 14.95904 36,050 302 399 0
2017-09-14 05:59:34 GMT 50.44579 14.96258 36,050 302 399 0
2017-09-14 05:59:31 GMT 50.44226 14.97184 36,050 302 399 0
2017-09-14 05:59:28 GMT 50.44028 14.97711 36,050 302 399 0
2017-09-14 05:59:26 GMT 50.43739 14.98431 36,050 302 399 0
2017-09-14 05:59:26 GMT 50.43739 14.98431 36,050 302 399 0
2017-09-14 05:59:26 GMT 50.43739 14.98431 36,050 302 399 0
2017-09-14 05:59:24 GMT 50.43632 14.98684 36,050 302 399 0
2017-09-14 05:59:22 GMT 50.43388 14.99345 36,050 302 400 0
2017-09-14 05:59:19 GMT 50.43036 15.00270 36,050 302 401 0
2017-09-14 05:59:16 GMT 50.42771 15.00933 36,050 302 403 0
2017-09-14 05:59:14 GMT 50.42725 15.01058 36,050 302 401 64
2017-09-14 05:59:12 GMT 50.42519 15.01571 36,050 302 401 64
2017-09-14 05:59:10 GMT 50.42331 15.02055 36,050 302 401 64
2017-09-14 05:59:10 GMT 50.42282 15.02210 36,050 302 401 0
2017-09-14 05:59:07 GMT 50.41969 15.03009 36,050 302 401 0
2017-09-14 05:59:04 GMT 50.41635 15.03862 36,050 302 402 0
2017-09-14 05:59:01 GMT 50.41389 15.04489 36,050 302 402 0
2017-09-14 05:58:57 GMT 50.41011 15.05483 36,050 302 402 0
2017-09-14 05:58:55 GMT 50.40802 15.05994 36,050 302 402 0
2017-09-14 05:58:53 GMT 50.40653 15.06374 36,050 302 403 0
2017-09-14 05:58:51 GMT 50.40482 15.06818 36,050 302 403 0
2017-09-14 05:58:49 GMT 50.40178 15.07614 36,050 302 403 0
2017-09-14 05:58:47 GMT 50.40029 15.07985 36,050 302 403 0
2017-09-14 05:58:44 GMT 50.39694 15.08849 36,050 302 403 0
2017-09-14 05:58:39 GMT 50.39159 15.10215 36,050 302 404 0
2017-09-14 05:58:37 GMT 50.39012 15.10584 36,050 302 404 0
2017-09-14 05:58:34 GMT 50.38684 15.11452 36,050 302 404 0
2017-09-14 05:58:32 GMT 50.38646 15.11552 36,050 302 404 0
2017-09-14 05:58:30 GMT 50.38339 15.12350 36,050 302 404 0
2017-09-14 05:58:29 GMT 50.38193 15.12716 36,050 302 404 0
2017-09-14 05:58:27 GMT 50.38009 15.13166 36,050 302 404 0
2017-09-14 05:58:24 GMT 50.37809 15.13708 36,050 302 404 0
2017-09-14 05:58:22 GMT 50.37680 15.14024 36,050 302 404 0
2017-09-14 05:58:19 GMT 50.37392 15.14769 36,050 302 404 0
2017-09-14 05:58:19 GMT 50.37314 15.14993 36,050 302 405 0
2017-09-14 05:58:17 GMT 50.37204 15.15260 36,050 302 404 0
2017-09-14 05:58:15 GMT 50.36847 15.16142 36,050 302 405 0
2017-09-14 05:58:11 GMT 50.36608 15.16796 36,050 302 405 0
2017-09-14 05:58:09 GMT 50.36231 15.17746 36,050 302 405 0
2017-09-14 05:58:09 GMT 50.36325 15.17523 36,050 302 406 0
2017-09-14 05:58:06 GMT 50.35988 15.18362 36,050 302 406 0
2017-09-14 05:58:04 GMT 50.35891 15.18637 36,050 302 406 0
2017-09-14 05:58:01 GMT 50.35639 15.19268 36,050 302 406 0
2017-09-14 05:57:59 GMT 50.35388 15.19906 36,050 302 406 0
2017-09-14 05:57:58 GMT 50.35204 15.20378 36,050 302 406 0
2017-09-14 05:57:57 GMT 50.35144 15.20515 36,050 302 406 0
2017-09-14 05:57:54 GMT 50.34941 15.21057 36,050 302 406 0
2017-09-14 05:57:52 GMT 50.34640 15.21838 36,050 302 406 0
2017-09-14 05:57:50 GMT 50.34462 15.22297 36,050 302 406 0
2017-09-14 05:57:48 GMT 50.34257 15.22816 36,050 302 406 0
2017-09-14 05:57:47 GMT 50.34215 15.22928 36,050 302 406 -64
2017-09-14 05:57:46 GMT 50.34155 15.23045 36,050 302 406 -64
2017-09-14 05:57:43 GMT 50.33749 15.24093 36,050 302 406 0
2017-09-14 05:57:41 GMT 50.33551 15.24613 36,050 302 406 0
2017-09-14 05:57:39 GMT 50.33456 15.24836 36,050 302 407 0
2017-09-14 05:57:37 GMT 50.33144 15.25660 36,050 302 407 -64
2017-09-14 05:57:34 GMT 50.32893 15.26290 36,050 302 407 -64
2017-09-14 05:57:32 GMT 50.32744 15.26676 36,050 302 407 0
2017-09-14 05:57:30 GMT 50.32441 15.27449 36,050 302 406 0
2017-09-14 05:57:26 GMT 50.32143 15.28176 36,050 302 406 -64
2017-09-14 05:57:24 GMT 50.31921 15.28777 36,050 302 406 -64
2017-09-14 05:57:22 GMT 50.31641 15.29505 36,050 302 407 0
2017-09-14 05:57:20 GMT 50.31422 15.30020 36,050 302 407 0
2017-09-14 05:57:18 GMT 50.31335 15.30280 36,050 302 407 0
2017-09-14 05:57:15 GMT 50.30978 15.31176 36,075 302 406 0
2017-09-14 05:57:15 GMT 50.30978 15.31176 36,075 302 406 0
2017-09-14 05:57:13 GMT 50.30877 15.31427 36,075 302 407 0
2017-09-14 05:57:11 GMT 50.30681 15.31949 36,075 302 406 0
2017-09-14 05:57:09 GMT 50.30456 15.32499 36,075 302 406 0
2017-09-14 05:57:07 GMT 50.30239 15.33031 36,050 302 406 0
2017-09-14 05:57:04 GMT 50.30049 15.33540 36,050 302 406 0
2017-09-14 05:57:04 GMT 50.29985 15.33670 36,050 302 406 0
2017-09-14 05:57:02 GMT 50.29802 15.34161 36,050 302 406 0
2017-09-14 05:57:00 GMT 50.29486 15.34978 36,050 302 405 0
2017-09-14 05:56:58 GMT 50.29276 15.35488 36,050 302 405 0
2017-09-14 05:56:55 GMT 50.29020 15.36111 36,075 302 405 0
2017-09-14 05:56:53 GMT 50.28843 15.36594 36,050 302 405 0
2017-09-14 05:56:51 GMT 50.28643 15.37069 36,050 302 405 0
2017-09-14 05:56:48 GMT 50.28382 15.37730 36,050 302 405 0
2017-09-14 05:56:44 GMT 50.27916 15.38917 36,050 302 405 64
2017-09-14 05:56:42 GMT 50.27800 15.39207 36,050 302 405 64
2017-09-14 05:56:40 GMT 50.27595 15.39712 36,050 302 405 64
2017-09-14 05:56:38 GMT 50.27303 15.40457 36,050 302 405 64
2017-09-14 05:56:33 GMT 50.26900 15.41469 36,050 303 405 0
2017-09-14 05:56:31 GMT 50.26762 15.41816 36,050 303 405 0
2017-09-14 05:56:29 GMT 50.26524 15.42414 36,050 303 405 0
2017-09-14 05:56:27 GMT 50.26318 15.42907 36,050 303 405 0
2017-09-14 05:56:25 GMT 50.26121 15.43384 36,050 303 404 0
2017-09-14 05:56:23 GMT 50.25854 15.44039 36,050 303 405 0
2017-09-14 05:56:20 GMT 50.25494 15.44938 36,050 303 404 0
2017-09-14 05:56:18 GMT 50.25302 15.45437 36,050 303 404 0
2017-09-14 05:56:15 GMT 50.25114 15.45878 36,050 303 404 64
2017-09-14 05:56:12 GMT 50.24808 15.46665 36,050 303 404 64
2017-09-14 05:56:10 GMT 50.24495 15.47417 36,050 303 404 0
2017-09-14 05:56:08 GMT 50.24336 15.47822 36,050 303 404 0
2017-09-14 05:56:04 GMT 50.23983 15.48701 36,050 303 404 0
2017-09-14 05:56:01 GMT 50.23750 15.49275 36,050 302 404 -64
2017-09-14 05:55:58 GMT 50.23471 15.49976 36,050 302 405 -128
2017-09-14 05:55:56 GMT 50.23168 15.50735 36,050 302 404 -64
2017-09-14 05:55:53 GMT 50.22954 15.51262 36,075 302 404 -64
2017-09-14 05:55:51 GMT 50.22652 15.52043 36,050 302 404 0
2017-09-14 05:55:48 GMT 50.22409 15.52635 36,075 302 404 64
2017-09-14 05:55:45 GMT 50.22144 15.53301 36,050 303 403 64
2017-09-14 05:55:43 GMT 50.21953 15.53801 36,050 303 404 64
2017-09-14 05:55:41 GMT 50.21759 15.54262 36,050 304 404 0
2017-09-14 05:55:37 GMT 50.21251 15.55462 36,050 304 404 0
2017-09-14 05:55:34 GMT 50.21031 15.55991 36,050 305 404 0
2017-09-14 05:55:30 GMT 50.20605 15.56951 36,050 305 405 0
2017-09-14 05:55:28 GMT 50.20370 15.57505 36,050 306 404 0
2017-09-14 05:55:26 GMT 50.20049 15.58195 36,050 306 405 0
2017-09-14 05:55:24 GMT 50.19864 15.58577 36,050 307 405 0
2017-09-14 05:55:22 GMT 50.19686 15.58967 36,050 307 405 0
2017-09-14 05:55:20 GMT 50.19532 15.59309 36,050 307 406 0
2017-09-14 05:55:18 GMT 50.19192 15.59999 36,050 308 406 0
2017-09-14 05:55:16 GMT 50.19099 15.60189 36,050 308 406 0
2017-09-14 05:55:14 GMT 50.18829 15.60764 36,050 309 407 0
2017-09-14 05:55:11 GMT 50.18415 15.61580 36,050 309 407 0
2017-09-14 05:55:11 GMT 50.18536 15.61345 36,050 309 407 0
2017-09-14 05:55:09 GMT 50.18184 15.62017 36,050 309 407 0
2017-09-14 05:55:07 GMT 50.17996 15.62397 36,050 309 407 0
2017-09-14 05:55:05 GMT 50.17745 15.62865 36,050 310 407 0
2017-09-14 05:55:03 GMT 50.17503 15.63340 36,050 311 408 0
2017-09-14 05:55:01 GMT 50.17307 15.63703 36,050 311 407 0
2017-09-14 05:54:59 GMT 50.17046 15.64186 36,050 311 408 0
2017-09-14 05:54:57 GMT 50.16800 15.64639 36,050 311 409 0
2017-09-14 05:54:54 GMT 50.16348 15.65436 36,050 312 408 0
2017-09-14 05:54:51 GMT 50.16083 15.65906 36,050 313 409 0
2017-09-14 05:54:49 GMT 50.15808 15.66383 36,050 313 409 0
2017-09-14 05:54:46 GMT 50.15496 15.66903 36,050 313 410 0
2017-09-14 05:54:44 GMT 50.15039 15.67677 36,050 314 410 0
2017-09-14 05:54:41 GMT 50.14856 15.67959 36,050 314 410 -64
2017-09-14 05:54:39 GMT 50.14568 15.68436 36,050 314 410 0
2017-09-14 05:54:36 GMT 50.14114 15.69167 36,050 314 410 0
2017-09-14 05:54:36 GMT 50.14188 15.69079 36,050 314 409 64
2017-09-14 05:54:33 GMT 50.13602 15.70028 36,050 314 409 0
2017-09-14 05:54:31 GMT 50.13341 15.70459 36,050 314 409 0
2017-09-14 05:54:28 GMT 50.12945 15.71119 36,050 314 409 0
2017-09-14 05:54:26 GMT 50.12828 15.71312 36,050 314 409 0
2017-09-14 05:54:24 GMT 50.12549 15.71772 36,050 314 409 0
2017-09-14 05:54:21 GMT 50.12182 15.72388 36,050 314 409 0
2017-09-14 05:54:21 GMT 50.12182 15.72388 36,050 314 409 64
2017-09-14 05:54:19 GMT 50.11871 15.72910 36,050 314 409 64
2017-09-14 05:54:17 GMT 50.11735 15.73109 36,050 314 409 64
2017-09-14 05:54:15 GMT 50.11479 15.73532 36,050 314 409 64
2017-09-14 05:54:14 GMT 50.11203 15.73994 36,050 314 408 0
2017-09-14 05:54:13 GMT 50.11130 15.74096 36,050 314 408 0
2017-09-14 05:54:11 GMT 50.10869 15.74526 36,050 314 408 0
2017-09-14 05:54:09 GMT 50.10654 15.74912 36,050 314 408 0
2017-09-14 05:54:06 GMT 50.10095 15.75822 36,050 314 408 0
2017-09-14 05:54:03 GMT 50.09896 15.76152 36,050 314 408 0
2017-09-14 05:54:01 GMT 50.09556 15.76694 36,050 314 408 0
2017-09-14 05:53:59 GMT 50.09356 15.77028 36,050 314 408 0
2017-09-14 05:53:56 GMT 50.08827 15.77904 36,050 314 408 0
2017-09-14 05:53:54 GMT 50.08754 15.78005 36,050 314 408 0
2017-09-14 05:53:52 GMT 50.08466 15.78511 36,050 314 407 0
2017-09-14 05:53:50 GMT 50.08163 15.78996 36,050 314 406 0
2017-09-14 05:53:48 GMT 50.07880 15.79465 36,050 314 406 -64
2017-09-14 05:53:45 GMT 50.07477 15.80116 36,050 314 406 0
2017-09-14 05:53:42 GMT 50.07156 15.80651 36,050 314 406 0
2017-09-14 05:53:40 GMT 50.06767 15.81280 36,050 314 406 -64
2017-09-14 05:53:37 GMT 50.06488 15.81742 36,050 314 406 -64
2017-09-14 05:53:35 GMT 50.06167 15.82291 36,050 314 406 0
2017-09-14 05:53:30 GMT 50.05543 15.83301 36,050 314 405 0
2017-09-14 05:53:28 GMT 50.05357 15.83614 36,050 314 405 0
2017-09-14 05:53:25 GMT 50.04941 15.84294 36,075 314 404 0
2017-09-14 05:53:22 GMT 50.04431 15.85127 36,050 314 404 -64
2017-09-14 05:53:20 GMT 50.04124 15.85632 36,075 314 403 0
2017-09-14 05:53:20 GMT 50.04124 15.85632 36,075 314 403 0
2017-09-14 05:53:18 GMT 50.03934 15.85934 36,050 314 403 0
2017-09-14 05:53:13 GMT 50.03284 15.87026 36,075 314 403 0
2017-09-14 05:53:09 GMT 50.02853 15.87727 36,075 314 403 0
2017-09-14 05:53:05 GMT 50.02364 15.88522 36,050 314 403 0
2017-09-14 05:53:02 GMT 50.01968 15.89180 36,050 314 403 64
2017-09-14 05:52:59 GMT 50.01596 15.89796 36,050 314 401 64
2017-09-14 05:52:57 GMT 50.01187 15.90459 36,050 314 401 64
2017-09-14 05:52:55 GMT 50.01050 15.90683 36,050 314 401 64
2017-09-14 05:52:52 GMT 50.00776 15.91125 36,050 314 401 0
2017-09-14 05:52:50 GMT 50.00427 15.91702 36,050 314 401 0
2017-09-14 05:52:48 GMT 50.00101 15.92231 36,050 314 401 0
2017-09-14 05:52:45 GMT 49.99709 15.92873 36,050 314 402 0
2017-09-14 05:52:42 GMT 49.99431 15.93314 36,050 314 402 0
2017-09-14 05:52:40 GMT 49.99105 15.93864 36,050 314 402 0
2017-09-14 05:52:37 GMT 49.98793 15.94391 36,050 314 402 0
2017-09-14 05:52:34 GMT 49.98425 15.94992 36,050 314 402 0
2017-09-14 05:52:32 GMT 49.98141 15.95438 36,050 314 402 0
2017-09-14 05:52:29 GMT 49.97783 15.96046 36,050 314 402 0
2017-09-14 05:52:27 GMT 49.97530 15.96472 36,050 314 402 0
2017-09-14 05:52:24 GMT 49.97131 15.97087 36,050 314 402 0
2017-09-14 05:52:20 GMT 49.96550 15.98048 36,050 314 403 0
2017-09-14 05:52:18 GMT 49.96238 15.98570 36,050 314 403 0
2017-09-14 05:52:14 GMT 49.95726 15.99416 36,050 314 405 0
2017-09-14 05:52:08 GMT 49.95035 16.00549 36,050 314 403 0
2017-09-14 05:52:06 GMT 49.94833 16.00867 36,050 314 405 0
2017-09-14 05:52:03 GMT 49.94430 16.01539 36,050 314 405 0
2017-09-14 05:52:00 GMT 49.94087 16.02067 36,050 314 406 0
2017-09-14 05:51:58 GMT 49.93742 16.02623 36,050 314 406 0
2017-09-14 05:51:55 GMT 49.93465 16.03093 36,050 314 406 0
2017-09-14 05:51:53 GMT 49.93121 16.03643 36,050 314 407 0
2017-09-14 05:51:50 GMT 49.92668 16.04394 36,050 314 408 0
2017-09-14 05:51:48 GMT 49.92462 16.04719 36,050 314 412 0
2017-09-14 05:51:46 GMT 49.92123 16.05254 36,050 314 408 0
2017-09-14 05:51:43 GMT 49.91693 16.05948 36,050 314 410 0
2017-09-14 05:51:39 GMT 49.91295 16.06620 36,050 314 411 0
2017-09-14 05:51:37 GMT 49.90884 16.07278 36,050 314 411 0
2017-09-14 05:51:34 GMT 49.90540 16.07842 36,050 314 414 0
2017-09-14 05:51:32 GMT 49.90370 16.08124 36,050 314 413 0
2017-09-14 05:51:27 GMT 49.89743 16.09143 36,050 314 414 0
2017-09-14 05:51:25 GMT 49.89362 16.09757 36,050 314 415 0
2017-09-14 05:51:22 GMT 49.88910 16.10477 36,050 314 415 0
2017-09-14 05:51:16 GMT 49.88082 16.11828 36,050 314 415 0
2017-09-14 05:51:13 GMT 49.87830 16.12244 36,050 314 414 0
2017-09-14 05:51:10 GMT 49.87445 16.12865 36,050 314 414 0
2017-09-14 05:51:05 GMT 49.86763 16.13971 36,050 314 414 0
2017-09-14 05:51:02 GMT 49.86314 16.14708 36,050 314 414 0
2017-09-14 05:50:58 GMT 49.85889 16.15395 36,050 314 413 0
2017-09-14 05:51:00 GMT 49.86182 16.14904 36,050 314 414 0
2017-09-14 05:50:58 GMT 49.85889 16.15395 36,050 314 413 0
2017-09-14 05:50:56 GMT 49.85696 16.15713 36,050 314 414 -64
2017-09-14 05:50:54 GMT 49.85220 16.16479 36,050 314 414 0
2017-09-14 05:50:51 GMT 49.84893 16.17024 36,050 314 414 0
2017-09-14 05:50:49 GMT 49.84674 16.17366 36,050 314 413 0
2017-09-14 05:50:49 GMT 49.84753 16.17254 36,050 314 414 0
2017-09-14 05:50:46 GMT 49.84329 16.17908 36,050 314 414 0
2017-09-14 05:50:44 GMT 49.84039 16.18366 36,050 314 414 0
2017-09-14 05:50:42 GMT 49.83778 16.18828 36,050 314 414 0
2017-09-14 05:50:39 GMT 49.83348 16.19493 36,050 314 414 0
2017-09-14 05:50:36 GMT 49.83012 16.20045 36,050 314 413 0
2017-09-14 05:50:34 GMT 49.82593 16.20744 36,050 314 413 0
2017-09-14 05:50:30 GMT 49.82135 16.21481 36,050 314 413 0
2017-09-14 05:50:28 GMT 49.81988 16.21705 36,050 314 413 0
2017-09-14 05:50:26 GMT 49.81620 16.22317 36,050 314 413 0
2017-09-14 05:50:24 GMT 49.81406 16.22651 36,050 314 413 0
2017-09-14 05:50:21 GMT 49.80861 16.23520 36,050 314 413 0
2017-09-14 05:50:19 GMT 49.80743 16.23721 36,050 314 413 0
2017-09-14 05:50:17 GMT 49.80295 16.24451 36,050 314 413 0
2017-09-14 05:50:15 GMT 49.80212 16.24582 36,050 314 413 0
2017-09-14 05:50:12 GMT 49.79677 16.25449 36,050 314 413 0
2017-09-14 05:50:09 GMT 49.79362 16.25954 36,050 314 413 0
2017-09-14 05:50:07 GMT 49.79199 16.26192 36,050 314 413 0
2017-09-14 05:50:05 GMT 49.78899 16.26692 36,050 314 413 0
2017-09-14 05:50:03 GMT 49.78638 16.27133 36,050 314 413 0
2017-09-14 05:50:01 GMT 49.78366 16.27558 36,050 314 413 0
2017-09-14 05:49:58 GMT 49.77766 16.28530 36,050 314 412 0
2017-09-14 05:49:55 GMT 49.77486 16.28968 36,050 314 412 0
2017-09-14 05:49:52 GMT 49.76979 16.29792 36,050 314 412 0
2017-09-14 05:49:49 GMT 49.76634 16.30341 36,050 314 413 0
2017-09-14 05:49:46 GMT 49.76225 16.31000 36,050 314 413 0
2017-09-14 05:49:41 GMT 49.75708 16.31846 36,050 314 412 0
2017-09-14 05:49:39 GMT 49.75485 16.32190 36,050 314 413 0
2017-09-14 05:49:37 GMT 49.75163 16.32720 36,050 314 412 0
2017-09-14 05:49:35 GMT 49.74972 16.33021 36,050 314 412 0
2017-09-14 05:49:32 GMT 49.74532 16.33725 36,050 314 412 0
2017-09-14 05:49:31 GMT 49.74316 16.34083 36,050 314 412 0
2017-09-14 05:49:30 GMT 49.74316 16.34083 36,050 314 412 0
2017-09-14 05:49:28 GMT 49.73909 16.34744 36,050 314 412 0
2017-09-14 05:49:26 GMT 49.73566 16.35293 36,050 314 413 0
2017-09-14 05:49:24 GMT 49.73447 16.35488 36,050 314 413 0
2017-09-14 05:49:22 GMT 49.73103 16.36038 36,050 314 413 0
2017-09-14 05:49:20 GMT 49.72901 16.36377 36,050 314 413 0
2017-09-14 05:49:17 GMT 49.72487 16.37015 36,050 314 413 0
2017-09-14 05:49:14 GMT 49.72188 16.37512 36,050 314 413 0
2017-09-14 05:49:11 GMT 49.71652 16.38358 36,050 314 413 0
2017-09-14 05:49:09 GMT 49.71444 16.38707 36,050 314 413 0
2017-09-14 05:49:07 GMT 49.71158 16.39153 36,050 314 413 0
2017-09-14 05:49:03 GMT 49.70531 16.40150 36,050 314 413 0
2017-09-14 05:49:00 GMT 49.70146 16.40772 36,050 314 413 0
2017-09-14 05:48:56 GMT 49.69735 16.41454 36,050 314 413 0
2017-09-14 05:48:52 GMT 49.69103 16.42463 36,050 314 413 -64
2017-09-14 05:48:50 GMT 49.69015 16.42579 36,050 314 413 0
2017-09-14 05:48:47 GMT 49.68576 16.43287 36,050 314 413 0
2017-09-14 05:48:45 GMT 49.68306 16.43735 36,050 314 413 0
2017-09-14 05:48:41 GMT 49.67697 16.44711 36,050 314 413 0
2017-09-14 05:48:39 GMT 49.67487 16.45047 36,050 314 413 0
2017-09-14 05:48:37 GMT 49.67290 16.45376 36,050 314 413 0
2017-09-14 05:48:35 GMT 49.66924 16.45940 36,050 314 413 0
2017-09-14 05:48:32 GMT 49.66579 16.46502 36,050 314 413 0
2017-09-14 05:48:29 GMT 49.66034 16.47378 36,050 314 413 0
2017-09-14 05:48:28 GMT 49.66034 16.47378 36,050 314 413 0
2017-09-14 05:48:27 GMT 49.65960 16.47482 36,050 314 413 0
2017-09-14 05:48:24 GMT 49.65532 16.48194 36,050 314 413 0
2017-09-14 05:48:21 GMT 49.65201 16.48714 36,050 314 413 0
2017-09-14 05:48:18 GMT 49.64676 16.49547 36,050 314 413 0
2017-09-14 05:48:15 GMT 49.64205 16.50302 36,050 314 413 0
2017-09-14 05:48:11 GMT 49.63806 16.50942 36,050 314 413 0
2017-09-14 05:48:11 GMT 49.63747 16.51036 36,050 314 413 0
2017-09-14 05:48:09 GMT 49.63500 16.51433 36,050 314 413 0
2017-09-14 05:48:07 GMT 49.63078 16.52091 36,050 314 413 0
2017-09-14 05:48:03 GMT 49.62744 16.52618 36,050 314 413 0
2017-09-14 05:48:01 GMT 49.62369 16.53247 36,050 315 413 0
2017-09-14 05:47:57 GMT 49.61905 16.53969 36,050 315 413 0
2017-09-14 05:47:55 GMT 49.61563 16.54512 36,050 315 413 0
2017-09-14 05:47:53 GMT 49.61453 16.54707 36,050 315 413 0
2017-09-14 05:47:49 GMT 49.60835 16.55684 36,050 315 413 0
2017-09-14 05:47:47 GMT 49.60551 16.56130 36,050 315 413 0
2017-09-14 05:47:44 GMT 49.60094 16.56868 36,050 315 413 0
2017-09-14 05:47:39 GMT 49.59508 16.57800 36,050 315 413 0
2017-09-14 05:47:37 GMT 49.59163 16.58349 36,050 315 413 0
2017-09-14 05:47:36 GMT 49.59163 16.58349 36,050 315 413 0
2017-09-14 05:47:32 GMT 49.58611 16.59217 36,050 315 413 0
2017-09-14 05:47:29 GMT 49.58153 16.59967 36,050 315 413 0
2017-09-14 05:47:26 GMT 49.57773 16.60555 36,050 315 413 0
2017-09-14 05:47:24 GMT 49.57520 16.60969 36,050 315 413 0
2017-09-14 05:47:21 GMT 49.57095 16.61632 36,050 315 413 0
2017-09-14 05:47:18 GMT 49.56701 16.62269 36,050 315 413 0
2017-09-14 05:47:15 GMT 49.56366 16.62781 36,050 315 413 0
2017-09-14 05:47:13 GMT 49.56020 16.63359 36,050 315 413 0
2017-09-14 05:47:10 GMT 49.55737 16.63790 36,050 315 413 0
2017-09-14 05:47:08 GMT 49.55300 16.64488 36,050 315 413 0
2017-09-14 05:47:06 GMT 49.55095 16.64833 36,050 315 413 0
2017-09-14 05:47:03 GMT 49.54839 16.65231 36,050 315 413 64
2017-09-14 05:47:01 GMT 49.54415 16.65899 36,050 315 413 0
2017-09-14 05:46:57 GMT 49.53882 16.66734 36,050 315 413 0
2017-09-14 05:46:55 GMT 49.53699 16.67038 36,050 315 413 0
2017-09-14 05:46:53 GMT 49.53369 16.67544 36,050 315 413 0
2017-09-14 05:46:51 GMT 49.53191 16.67843 36,050 315 413 0
2017-09-14 05:46:44 GMT 49.52246 16.69350 36,050 315 413 0
2017-09-14 05:46:44 GMT 49.52246 16.69350 36,050 315 413 0
2017-09-14 05:46:41 GMT 49.51547 16.70464 36,050 315 413 0
2017-09-14 05:46:38 GMT 49.51259 16.70902 36,050 315 413 0
2017-09-14 05:46:36 GMT 49.51080 16.71201 36,050 315 413 0
2017-09-14 05:46:34 GMT 49.50870 16.71526 36,050 315 413 0
2017-09-14 05:46:31 GMT 49.50371 16.72307 36,050 315 413 0
2017-09-14 05:46:27 GMT 49.49936 16.72987 36,050 315 413 0
2017-09-14 05:46:25 GMT 49.49652 16.73435 36,050 315 413 0
2017-09-14 05:46:23 GMT 49.49322 16.73960 36,050 315 413 0
2017-09-14 05:46:19 GMT 49.48768 16.74836 36,075 315 412 0
2017-09-14 05:46:14 GMT 49.48093 16.75920 36,050 315 412 0
2017-09-14 05:46:12 GMT 49.48018 16.76044 36,050 315 412 0
2017-09-14 05:46:09 GMT 49.47629 16.76651 36,050 315 412 0
2017-09-14 05:46:07 GMT 49.47279 16.77182 36,075 315 412 0
2017-09-14 05:46:05 GMT 49.47080 16.77518 36,050 315 412 0
2017-09-14 05:46:03 GMT 49.46683 16.78124 36,050 315 412 0
2017-09-14 05:46:00 GMT 49.46236 16.78852 36,050 315 412 0
2017-09-14 05:45:57 GMT 49.45816 16.79506 36,050 315 412 0
2017-09-14 05:45:55 GMT 49.45617 16.79817 36,075 315 412 0
2017-09-14 05:45:52 GMT 49.45303 16.80316 36,050 315 412 0
2017-09-14 05:45:49 GMT 49.44891 16.80952 36,050 315 412 0
2017-09-14 05:45:46 GMT 49.44560 16.81487 36,050 315 412 0
2017-09-14 05:45:44 GMT 49.44253 16.81985 36,050 315 412 0
2017-09-14 05:45:42 GMT 49.43916 16.82520 36,050 315 412 0
2017-09-14 05:45:39 GMT 49.43629 16.82950 36,050 315 412 0
2017-09-14 05:45:36 GMT 49.43070 16.83836 36,050 315 413 0
2017-09-14 05:45:34 GMT 49.42854 16.84197 36,050 315 412 0
2017-09-14 05:45:32 GMT 49.42612 16.84549 36,050 315 413 0
2017-09-14 05:45:29 GMT 49.42148 16.85281 36,050 315 413 0
2017-09-14 05:45:25 GMT 49.41734 16.85946 36,050 315 413 -64
2017-09-14 05:45:22 GMT 49.41188 16.86810 36,075 315 413 -64
2017-09-14 05:45:20 GMT 49.41134 16.86900 36,075 315 413 0
2017-09-14 05:45:18 GMT 49.40743 16.87500 36,075 315 414 0
2017-09-14 05:45:15 GMT 49.40360 16.88120 36,050 315 414 0
2017-09-14 05:45:10 GMT 49.39798 16.88989 36,050 315 414 0
2017-09-14 05:45:08 GMT 49.39337 16.89733 36,050 315 414 0
2017-09-14 05:45:05 GMT 49.38992 16.90283 36,050 315 414 0
2017-09-14 05:45:01 GMT 49.38437 16.91141 36,050 315 415 0
2017-09-14 05:44:58 GMT 49.37979 16.91852 36,050 315 415 0
2017-09-14 05:44:56 GMT 49.37856 16.92054 36,050 315 415 0
2017-09-14 05:44:54 GMT 49.37586 16.92458 36,050 315 415 0
2017-09-14 05:44:50 GMT 49.36967 16.93448 36,050 315 415 0
2017-09-14 05:44:47 GMT 49.36586 16.94041 36,050 315 415 0
2017-09-14 05:44:42 GMT 49.35985 16.94966 36,050 315 417 64
2017-09-14 05:44:40 GMT 49.35558 16.95648 36,050 315 416 64
2017-09-14 05:44:38 GMT 49.35296 16.96065 36,050 315 416 64
2017-09-14 05:44:35 GMT 49.34924 16.96658 36,050 315 416 64
2017-09-14 05:44:33 GMT 49.34733 16.96954 36,050 315 416 0
2017-09-14 05:44:30 GMT 49.34323 16.97583 36,050 315 416 0
2017-09-14 05:44:28 GMT 49.33983 16.98132 36,050 315 416 0
2017-09-14 05:44:26 GMT 49.33788 16.98436 36,050 315 416 0
2017-09-14 05:44:23 GMT 49.33292 16.99212 36,050 315 417 0
2017-09-14 05:44:19 GMT 49.32731 17.00098 36,050 315 417 0
2017-09-14 05:44:17 GMT 49.32568 17.00339 36,050 315 417 0
2017-09-14 05:44:15 GMT 49.32367 17.00677 36,050 315 417 0
2017-09-14 05:44:12 GMT 49.31888 17.01406 36,050 315 417 0
2017-09-14 05:44:09 GMT 49.31600 17.01876 36,050 315 417 0
2017-09-14 05:44:07 GMT 49.31227 17.02444 36,050 315 417 64
2017-09-14 05:44:05 GMT 49.30953 17.02860 36,050 315 417 64
2017-09-14 05:44:00 GMT 49.30161 17.04106 36,050 315 417 0
2017-09-14 05:43:58 GMT 49.29955 17.04444 36,050 315 417 0
2017-09-14 05:43:56 GMT 49.29686 17.04847 36,050 315 417 0
2017-09-14 05:43:54 GMT 49.29542 17.05093 36,050 315 417 0
2017-09-14 05:43:51 GMT 49.29081 17.05786 36,050 315 418 0
2017-09-14 05:43:51 GMT 49.29081 17.05786 36,050 315 418 0
2017-09-14 05:43:49 GMT 49.28742 17.06329 36,050 315 418 0
2017-09-14 05:43:47 GMT 49.28522 17.06663 36,050 315 418 0
2017-09-14 05:43:45 GMT 49.28133 17.07289 36,050 315 418 0
2017-09-14 05:43:40 GMT 49.27657 17.08005 36,050 315 418 0
2017-09-14 05:43:38 GMT 49.27326 17.08540 36,050 315 418 0
2017-09-14 05:43:36 GMT 49.27000 17.09053 36,050 315 418 0
2017-09-14 05:43:34 GMT 49.26791 17.09374 36,050 315 418 0
2017-09-14 05:43:30 GMT 49.26307 17.10138 36,050 315 418 -64
2017-09-14 05:43:28 GMT 49.25935 17.10698 36,050 315 418 -64
2017-09-14 05:43:25 GMT 49.25567 17.11287 36,050 315 418 -64
2017-09-14 05:43:23 GMT 49.25329 17.11641 36,050 315 418 -64
2017-09-14 05:43:20 GMT 49.24928 17.12283 36,075 315 418 -64
2017-09-14 05:43:18 GMT 49.24431 17.13036 36,075 315 418 -64
2017-09-14 05:43:15 GMT 49.24104 17.13557 36,075 315 418 0
2017-09-14 05:43:13 GMT 49.23958 17.13797 36,075 315 418 0
2017-09-14 05:43:10 GMT 49.23495 17.14518 36,075 315 418 0
2017-09-14 05:43:08 GMT 49.23120 17.15100 36,075 315 418 0
2017-09-14 05:43:06 GMT 49.22955 17.15342 36,075 315 417 0
2017-09-14 05:43:03 GMT 49.22552 17.15973 36,050 315 417 0
2017-09-14 05:42:58 GMT 49.21870 17.17033 36,050 315 418 0
2017-09-14 05:42:55 GMT 49.21516 17.17597 36,050 315 418 0
2017-09-14 05:42:53 GMT 49.21083 17.18248 36,050 315 418 0
2017-09-14 05:42:49 GMT 49.20703 17.18832 36,050 315 418 0
2017-09-14 05:42:47 GMT 49.20371 17.19360 36,050 315 419 0
2017-09-14 05:42:45 GMT 49.20027 17.19910 36,050 315 419 0
2017-09-14 05:42:42 GMT 49.19733 17.20353 36,050 315 419 0
2017-09-14 05:42:39 GMT 49.19270 17.21065 36,050 315 420 0
2017-09-14 05:42:36 GMT 49.18936 17.21579 36,050 315 419 0
2017-09-14 05:42:36 GMT 49.18936 17.21579 36,050 315 420 0
2017-09-14 05:42:34 GMT 49.18463 17.22317 36,050 315 420 0
2017-09-14 05:42:31 GMT 49.18314 17.22562 36,050 315 420 -64
2017-09-14 05:42:27 GMT 49.17654 17.23586 36,050 315 420 0
2017-09-14 05:42:25 GMT 49.17394 17.23994 36,050 315 420 0
2017-09-14 05:42:24 GMT 49.17206 17.24283 36,050 315 420 0
2017-09-14 05:42:23 GMT 49.17133 17.24375 36,050 315 420 0
2017-09-14 05:42:21 GMT 49.16861 17.24810 36,050 315 420 0
2017-09-14 05:42:19 GMT 49.16461 17.25432 36,050 315 420 0
2017-09-14 05:42:17 GMT 49.16312 17.25670 36,050 315 420 0
2017-09-14 05:42:16 GMT 49.16158 17.25887 36,050 315 420 0
2017-09-14 05:42:15 GMT 49.16019 17.26111 36,050 315 420 0
2017-09-14 05:42:14 GMT 49.15942 17.26178 36,050 315 420 0
2017-09-14 05:42:12 GMT 49.15595 17.26769 36,050 315 420 0
2017-09-14 05:42:09 GMT 49.15146 17.27445 36,050 315 420 0
2017-09-14 05:42:07 GMT 49.14943 17.27781 36,050 315 420 0
2017-09-14 05:42:05 GMT 49.14659 17.28222 36,050 315 420 64
2017-09-14 05:42:05 GMT 49.14734 17.28107 36,050 315 420 0
2017-09-14 05:42:03 GMT 49.14304 17.28762 36,050 315 420 64
2017-09-14 05:42:01 GMT 49.14012 17.29205 36,050 315 420 64
2017-09-14 05:41:58 GMT 49.13738 17.29638 36,050 315 420 64
2017-09-14 05:41:56 GMT 49.13466 17.30065 36,050 315 420 0
2017-09-14 05:41:54 GMT 49.13053 17.30701 36,050 315 420 0
2017-09-14 05:41:52 GMT 49.12862 17.30995 36,050 315 420 0
2017-09-14 05:41:49 GMT 49.12499 17.31554 36,050 315 420 0
2017-09-14 05:41:47 GMT 49.12244 17.31952 36,050 315 421 0
2017-09-14 05:41:45 GMT 49.11973 17.32378 36,050 315 421 0
2017-09-14 05:41:43 GMT 49.11759 17.32681 36,050 315 421 0
2017-09-14 05:41:41 GMT 49.11475 17.33129 36,050 315 421 0
2017-09-14 05:41:41 GMT 49.11475 17.33129 36,050 315 421 0
2017-09-14 05:41:39 GMT 49.10989 17.33868 36,050 315 421 0
2017-09-14 05:41:37 GMT 49.10925 17.33974 36,050 315 421 0
2017-09-14 05:41:35 GMT 49.10451 17.34734 36,050 315 421 0
2017-09-14 05:41:31 GMT 49.10051 17.35356 36,050 315 422 0
2017-09-14 05:41:29 GMT 49.09641 17.35956 36,050 315 422 -64
2017-09-14 05:41:26 GMT 49.09297 17.36483 36,050 315 422 0
2017-09-14 05:41:23 GMT 49.08952 17.37032 36,050 315 422 0
2017-09-14 05:41:20 GMT 49.08528 17.37690 36,050 315 422 0
2017-09-14 05:41:20 GMT 49.08528 17.37690 36,050 315 422 0
2017-09-14 05:41:17 GMT 49.07996 17.38495 36,050 315 422 0
2017-09-14 05:41:15 GMT 49.07765 17.38854 36,050 315 422 0
2017-09-14 05:41:12 GMT 49.07400 17.39403 36,050 315 422 0
2017-09-14 05:41:10 GMT 49.07135 17.39826 36,050 315 422 -64
2017-09-14 05:41:08 GMT 49.06718 17.40474 36,050 315 422 -64
2017-09-14 05:41:06 GMT 49.06657 17.40574 36,050 315 422 -64
2017-09-14 05:41:04 GMT 49.06173 17.41311 36,075 315 422 -64
2017-09-14 05:41:04 GMT 49.06242 17.41213 36,075 315 422 -64
2017-09-14 05:41:01 GMT 49.05847 17.41824 36,075 315 422 -64
2017-09-14 05:41:01 GMT 49.05847 17.41824 36,075 315 422 -64
2017-09-14 05:40:59 GMT 49.05717 17.42012 36,075 315 422 -64
2017-09-14 05:40:57 GMT 49.05217 17.42770 36,075 315 422 0
2017-09-14 05:40:55 GMT 49.05074 17.43010 36,075 315 422 0
2017-09-14 05:40:53 GMT 49.04860 17.43312 36,075 315 422 0
2017-09-14 05:40:50 GMT 49.04311 17.44171 36,075 315 422 0
2017-09-14 05:40:48 GMT 49.04095 17.44516 36,075 315 422 64
2017-09-14 05:40:46 GMT 49.03873 17.44853 36,075 315 422 64
2017-09-14 05:40:43 GMT 49.03403 17.45583 36,050 315 422 64
2017-09-14 05:40:40 GMT 49.02872 17.46371 36,050 315 422 0
2017-09-14 05:40:38 GMT 49.02654 17.46706 36,050 315 422 0
2017-09-14 05:40:36 GMT 49.02434 17.47051 36,050 315 422 0
2017-09-14 05:40:34 GMT 49.02072 17.47601 36,050 315 422 0
2017-09-14 05:40:32 GMT 49.01951 17.47809 36,050 315 422 0
2017-09-14 05:40:30 GMT 49.01494 17.48489 36,050 315 422 0
2017-09-14 05:40:28 GMT 49.01210 17.48915 36,050 315 422 0
2017-09-14 05:40:25 GMT 49.00866 17.49457 36,050 315 422 0
2017-09-14 05:40:22 GMT 49.00507 17.50006 36,050 315 424 64
2017-09-14 05:40:19 GMT 49.00112 17.50614 36,050 315 424 64
2017-09-14 05:40:17 GMT 48.99715 17.51200 36,050 315 424 0
2017-09-14 05:40:14 GMT 48.99455 17.51611 36,050 315 424 0
2017-09-14 05:40:12 GMT 48.99083 17.52171 36,050 315 424 0
2017-09-14 05:40:11 GMT 48.98946 17.52383 36,050 315 424 0
2017-09-14 05:40:09 GMT 48.98666 17.52791 36,050 315 424 0
2017-09-14 05:40:07 GMT 48.98389 17.53230 36,050 315 424 0
2017-09-14 05:40:05 GMT 48.98240 17.53476 36,050 315 424 0
2017-09-14 05:40:03 GMT 48.97714 17.54270 36,050 315 424 0
2017-09-14 05:40:01 GMT 48.97500 17.54582 36,050 315 425 0
2017-09-14 05:39:59 GMT 48.97277 17.54921 36,050 315 425 0
2017-09-14 05:39:56 GMT 48.96785 17.55664 36,050 315 426 0
2017-09-14 05:39:54 GMT 48.96639 17.55904 36,050 315 426 0
2017-09-14 05:39:52 GMT 48.96346 17.56362 36,050 315 426 0
2017-09-14 05:39:50 GMT 48.96173 17.56598 36,050 315 426 0
2017-09-14 05:39:47 GMT 48.95703 17.57335 36,050 315 426 0
2017-09-14 05:39:45 GMT 48.95288 17.57953 36,050 315 426 0
2017-09-14 05:39:43 GMT 48.95024 17.58369 36,050 315 426 0
2017-09-14 05:39:40 GMT 48.94665 17.58911 36,050 315 427 0
2017-09-14 05:39:38 GMT 48.94368 17.59355 36,050 315 427 0
2017-09-14 05:39:36 GMT 48.94047 17.59862 36,050 315 427 0
2017-09-14 05:39:34 GMT 48.93910 17.60066 36,050 315 427 0
2017-09-14 05:39:32 GMT 48.93464 17.60718 36,050 315 427 0
2017-09-14 05:39:30 GMT 48.93256 17.61045 36,050 315 427 0
2017-09-14 05:39:28 GMT 48.92853 17.61665 36,050 315 427 0
2017-09-14 05:39:26 GMT 48.92780 17.61784 36,050 315 427 0
2017-09-14 05:39:23 GMT 48.92299 17.62531 36,050 315 427 0
2017-09-14 05:39:21 GMT 48.92020 17.62954 36,050 315 427 -64
2017-09-14 05:39:19 GMT 48.91631 17.63559 36,050 315 427 0
2017-09-14 05:39:17 GMT 48.91489 17.63771 36,050 315 427 -64
2017-09-14 05:39:15 GMT 48.91118 17.64354 36,050 315 427 -64
2017-09-14 05:39:12 GMT 48.90899 17.64686 36,050 315 427 -64
2017-09-14 05:39:09 GMT 48.90429 17.65416 36,050 315 427 0
2017-09-14 05:39:07 GMT 48.90065 17.65989 36,050 315 427 0
2017-09-14 05:39:05 GMT 48.89717 17.66544 36,050 314 427 64
2017-09-14 05:39:03 GMT 48.89589 17.66735 36,050 314 426 64
2017-09-14 05:39:01 GMT 48.89163 17.67433 36,050 314 426 0
2017-09-14 05:38:59 GMT 48.89093 17.67519 36,050 314 426 0
2017-09-14 05:38:57 GMT 48.88679 17.68199 36,050 314 426 0
2017-09-14 05:38:55 GMT 48.88488 17.68495 36,050 313 426 0
2017-09-14 05:38:53 GMT 48.88097 17.69130 36,050 313 426 0
2017-09-14 05:38:51 GMT 48.87918 17.69426 36,050 313 426 -64
2017-09-14 05:38:49 GMT 48.87626 17.69926 36,075 313 425 -64
2017-09-14 05:38:46 GMT 48.87356 17.70367 36,075 312 425 -64
2017-09-14 05:38:44 GMT 48.86888 17.71179 36,075 312 425 -64
2017-09-14 05:38:42 GMT 48.86770 17.71379 36,075 312 425 -64
2017-09-14 05:38:40 GMT 48.86499 17.71841 36,075 311 424 0
2017-09-14 05:38:38 GMT 48.86224 17.72313 36,075 311 424 0
2017-09-14 05:38:35 GMT 48.85844 17.72991 36,050 311 424 0
2017-09-14 05:38:32 GMT 48.85359 17.73869 36,050 310 424 64
2017-09-14 05:38:30 GMT 48.85231 17.74081 36,050 310 423 64
2017-09-14 05:38:28 GMT 48.84838 17.74820 36,050 310 424 64
2017-09-14 05:38:25 GMT 48.84577 17.75289 36,050 310 424 64
2017-09-14 05:38:23 GMT 48.84338 17.75722 36,050 310 424 0
2017-09-14 05:38:21 GMT 48.84107 17.76157 36,050 310 424 0
2017-09-14 05:38:19 GMT 48.83858 17.76595 36,050 310 424 0
2017-09-14 05:38:17 GMT 48.83624 17.77053 36,050 310 424 0
2017-09-14 05:38:15 GMT 48.83409 17.77429 36,050 310 424 0
2017-09-14 05:38:13 GMT 48.82970 17.78236 36,050 310 424 0
2017-09-14 05:38:11 GMT 48.82738 17.78686 36,050 310 424 0
2017-09-14 05:38:08 GMT 48.82388 17.79299 36,050 310 424 0
2017-09-14 05:38:06 GMT 48.82264 17.79532 36,050 310 424 0
2017-09-14 05:38:03 GMT 48.81940 17.80123 36,050 310 424 0
2017-09-14 05:38:01 GMT 48.81496 17.80940 36,050 310 424 0
2017-09-14 05:37:59 GMT 48.81294 17.81320 36,050 310 424 0
2017-09-14 05:37:57 GMT 48.81105 17.81679 36,050 310 424 0
2017-09-14 05:37:54 GMT 48.80779 17.82264 36,050 310 425 -64
2017-09-14 05:37:51 GMT 48.80304 17.83132 36,050 310 425 -64
2017-09-14 05:37:49 GMT 48.80057 17.83601 36,050 310 425 0
2017-09-14 05:37:47 GMT 48.79738 17.84187 36,050 310 425 0
2017-09-14 05:37:44 GMT 48.79468 17.84680 36,050 310 425 0
2017-09-14 05:37:41 GMT 48.79147 17.85271 36,050 310 425 0
2017-09-14 05:37:39 GMT 48.78893 17.85734 36,050 310 425 0
2017-09-14 05:37:37 GMT 48.78584 17.86300 36,050 310 425 64
2017-09-14 05:37:35 GMT 48.78278 17.86849 36,050 310 425 64
2017-09-14 05:37:33 GMT 48.78149 17.87114 36,050 310 425 64
2017-09-14 05:37:31 GMT 48.77823 17.87685 36,050 310 425 0
2017-09-14 05:37:29 GMT 48.77455 17.88357 36,050 310 425 0
2017-09-14 05:37:26 GMT 48.77157 17.88928 36,050 310 425 0
2017-09-14 05:37:24 GMT 48.76950 17.89300 36,050 310 425 0
2017-09-14 05:37:22 GMT 48.76570 17.89991 36,050 310 425 0
2017-09-14 05:37:20 GMT 48.76515 17.90102 36,050 310 425 0
2017-09-14 05:37:17 GMT 48.75937 17.91118 36,050 310 425 -64
2017-09-14 05:37:14 GMT 48.75650 17.91659 36,050 310 425 -64
2017-09-14 05:37:11 GMT 48.75330 17.92250 36,050 310 425 0
2017-09-14 05:37:09 GMT 48.75165 17.92564 36,050 310 425 -64
2017-09-14 05:37:07 GMT 48.74890 17.93060 36,050 310 425 -64
2017-09-14 05:37:04 GMT 48.74448 17.93879 36,050 310 425 -64
2017-09-14 05:37:02 GMT 48.74299 17.94147 36,075 310 425 -64
2017-09-14 05:36:59 GMT 48.73884 17.94870 36,075 310 425 -64
2017-09-14 05:36:57 GMT 48.73553 17.95476 36,075 310 425 -64
2017-09-14 05:36:54 GMT 48.73107 17.96301 36,075 310 424 0
2017-09-14 05:36:52 GMT 48.72967 17.96546 36,075 310 424 64
2017-09-14 05:36:49 GMT 48.72588 17.97244 36,050 310 424 64
2017-09-14 05:36:46 GMT 48.72283 17.97811 36,050 310 424 64
2017-09-14 05:36:42 GMT 48.71687 17.98903 36,050 310 424 0
2017-09-14 05:36:39 GMT 48.71277 17.99633 36,050 310 424 0
2017-09-14 05:36:37 GMT 48.71040 18.00074 36,050 310 424 0
2017-09-14 05:36:37 GMT 48.70979 18.00197 36,050 310 424 0
2017-09-14 05:36:35 GMT 48.70834 18.00448 36,050 310 424 0
2017-09-14 05:36:32 GMT 48.70464 18.01110 36,050 310 424 0
2017-09-14 05:36:30 GMT 48.70188 18.01606 36,050 310 424 0
2017-09-14 05:36:28 GMT 48.69862 18.02206 36,050 310 424 0
2017-09-14 05:36:25 GMT 48.69640 18.02624 36,050 310 424 0
2017-09-14 05:36:25 GMT 48.69585 18.02730 36,050 310 424 0
2017-09-14 05:36:23 GMT 48.69319 18.03195 36,050 310 424 64
2017-09-14 05:36:21 GMT 48.68884 18.03976 36,050 310 424 0
2017-09-14 05:36:17 GMT 48.68489 18.04728 36,050 310 424 0
2017-09-14 05:36:15 GMT 48.68177 18.05270 36,050 310 425 64
2017-09-14 05:36:13 GMT 48.68070 18.05466 36,050 310 425 0
2017-09-14 05:36:13 GMT 48.68070 18.05466 36,050 310 425 0
2017-09-14 05:36:10 GMT 48.67635 18.06251 36,050 310 425 0
2017-09-14 05:36:08 GMT 48.67456 18.06603 36,050 310 425 0
2017-09-14 05:36:06 GMT 48.67241 18.06984 36,050 310 425 -64
2017-09-14 05:36:04 GMT 48.66929 18.07540 36,050 310 425 -64
2017-09-14 05:36:02 GMT 48.66756 18.07871 36,050 310 425 -64
2017-09-14 05:36:00 GMT 48.66389 18.08516 36,050 310 425 -64
2017-09-14 05:35:58 GMT 48.66220 18.08843 36,050 310 425 -64
2017-09-14 05:35:56 GMT 48.65891 18.09427 36,050 310 425 -64
2017-09-14 05:35:54 GMT 48.65705 18.09752 36,050 310 425 -64
2017-09-14 05:35:52 GMT 48.65463 18.10222 36,075 310 425 0
2017-09-14 05:35:49 GMT 48.65057 18.10927 36,075 310 425 0
2017-09-14 05:35:49 GMT 48.65057 18.10927 36,075 310 425 0
2017-09-14 05:35:47 GMT 48.64865 18.11286 36,075 310 425 0
2017-09-14 05:35:44 GMT 48.64330 18.12258 36,075 310 425 0
2017-09-14 05:35:42 GMT 48.64183 18.12520 36,075 310 425 64
2017-09-14 05:35:40 GMT 48.63812 18.13195 36,050 310 424 64
2017-09-14 05:35:36 GMT 48.63350 18.14052 36,050 310 424 64
2017-09-14 05:35:34 GMT 48.63196 18.14298 36,050 310 424 64
2017-09-14 05:35:32 GMT 48.62772 18.15086 36,050 310 424 0
2017-09-14 05:35:29 GMT 48.62325 18.15888 36,050 310 424 64
2017-09-14 05:35:27 GMT 48.62325 18.15888 36,050 310 424 0
2017-09-14 05:35:25 GMT 48.61954 18.16568 36,050 310 424 0
2017-09-14 05:35:23 GMT 48.61688 18.17026 36,050 310 424 0
2017-09-14 05:35:19 GMT 48.61267 18.17779 36,050 310 424 0
2017-09-14 05:35:17 GMT 48.61020 18.18266 36,050 310 424 0
2017-09-14 05:35:14 GMT 48.60617 18.18963 36,050 310 424 -64
2017-09-14 05:35:12 GMT 48.60379 18.19423 36,050 310 424 -64
2017-09-14 05:35:09 GMT 48.59993 18.20124 36,050 310 424 -64
2017-09-14 05:35:06 GMT 48.59692 18.20639 36,050 310 424 0
2017-09-14 05:35:04 GMT 48.59379 18.21222 36,050 310 424 0
2017-09-14 05:35:02 GMT 48.59067 18.21772 36,050 310 424 0
2017-09-14 05:35:00 GMT 48.58885 18.22104 36,050 310 424 0
2017-09-14 05:34:57 GMT 48.58424 18.22949 36,050 310 424 0
2017-09-14 05:34:55 GMT 48.58292 18.23167 36,050 310 424 0
2017-09-14 05:34:53 GMT 48.57968 18.23745 36,050 310 425 0
2017-09-14 05:34:50 GMT 48.57642 18.24350 36,050 310 424 0
2017-09-14 05:34:48 GMT 48.57266 18.25012 36,050 310 424 0
2017-09-14 05:34:46 GMT 48.57092 18.25343 36,050 310 424 0
2017-09-14 05:34:43 GMT 48.56748 18.25949 36,050 310 424 0
2017-09-14 05:34:40 GMT 48.56246 18.26867 36,050 310 424 0
2017-09-14 05:34:38 GMT 48.56131 18.27062 36,050 310 424 0
2017-09-14 05:34:36 GMT 48.55838 18.27611 36,050 310 424 0
2017-09-14 05:34:34 GMT 48.55594 18.28031 36,050 310 424 0
2017-09-14 05:34:32 GMT 48.55384 18.28414 36,050 310 424 0
2017-09-14 05:34:30 GMT 48.55000 18.29097 36,050 310 424 0
2017-09-14 05:34:28 GMT 48.54886 18.29329 36,050 310 425 0
2017-09-14 05:34:25 GMT 48.54497 18.30019 36,050 310 425 0
2017-09-14 05:34:23 GMT 48.54172 18.30618 36,050 310 425 0
2017-09-14 05:34:19 GMT 48.53709 18.31428 36,050 310 425 0
2017-09-14 05:34:17 GMT 48.53466 18.31855 36,050 310 425 0
2017-09-14 05:34:15 GMT 48.53052 18.32614 36,050 310 425 -64
2017-09-14 05:34:13 GMT 48.52973 18.32744 36,050 310 425 -64
2017-09-14 05:34:11 GMT 48.52730 18.33189 36,050 310 425 0
2017-09-14 05:34:08 GMT 48.52318 18.33928 36,050 310 425 0
2017-09-14 05:34:05 GMT 48.51961 18.34569 36,050 310 425 0
2017-09-14 05:34:03 GMT 48.51721 18.35006 36,050 310 425 0
2017-09-14 05:34:01 GMT 48.51466 18.35470 36,050 310 425 -64
2017-09-14 05:33:58 GMT 48.51074 18.36184 36,050 310 425 0
2017-09-14 05:33:54 GMT 48.50446 18.37280 36,050 311 424 0
2017-09-14 05:33:52 GMT 48.50272 18.37611 36,050 311 424 0
2017-09-14 05:33:48 GMT 48.49793 18.38468 36,050 311 424 64
2017-09-14 05:33:45 GMT 48.49449 18.39068 36,050 311 424 0
2017-09-14 05:33:43 GMT 48.49067 18.39747 36,050 311 424 0
2017-09-14 05:33:41 GMT 48.48946 18.39971 36,050 311 424 0
2017-09-14 05:33:38 GMT 48.48555 18.40682 36,050 311 424 0
2017-09-14 05:33:36 GMT 48.48285 18.41171 36,050 311 424 0
2017-09-14 05:33:34 GMT 48.48010 18.41668 36,050 311 424 0
2017-09-14 05:33:31 GMT 48.47621 18.42344 36,050 311 424 0
2017-09-14 05:33:28 GMT 48.47145 18.43202 36,050 311 424 0
2017-09-14 05:33:26 GMT 48.47008 18.43449 36,050 311 424 0
2017-09-14 05:33:26 GMT 48.47084 18.43304 36,050 311 424 0
2017-09-14 05:33:24 GMT 48.46637 18.44128 36,050 311 424 0
2017-09-14 05:33:22 GMT 48.46502 18.44352 36,050 311 424 0
2017-09-14 05:33:20 GMT 48.46316 18.44699 36,050 311 424 0
2017-09-14 05:33:16 GMT 48.45748 18.45703 36,050 311 424 0
2017-09-14 05:33:16 GMT 48.45748 18.45703 36,050 311 424 0
2017-09-14 05:33:14 GMT 48.45502 18.46161 36,050 311 424 0
2017-09-14 05:33:10 GMT 48.44934 18.47154 36,050 311 425 0
2017-09-14 05:33:07 GMT 48.44608 18.47734 36,050 311 425 0
2017-09-14 05:33:05 GMT 48.44353 18.48203 36,050 311 425 0
2017-09-14 05:33:02 GMT 48.43853 18.49093 36,050 311 425 0
2017-09-14 05:33:00 GMT 48.43716 18.49337 36,050 311 425 0
2017-09-14 05:32:56 GMT 48.43094 18.50422 36,050 311 425 0
2017-09-14 05:32:54 GMT 48.42915 18.50760 36,050 311 425 0
2017-09-14 05:32:51 GMT 48.42596 18.51334 36,050 311 425 0
2017-09-14 05:32:49 GMT 48.42329 18.51802 36,050 311 425 0
2017-09-14 05:32:45 GMT 48.41693 18.52936 36,050 311 425 0
2017-09-14 05:32:45 GMT 48.41745 18.52844 36,050 311 425 0
2017-09-14 05:32:43 GMT 48.41586 18.53133 36,050 311 425 0
2017-09-14 05:32:41 GMT 48.41195 18.53842 36,050 311 425 0
2017-09-14 05:32:39 GMT 48.41043 18.54091 36,050 311 425 0
2017-09-14 05:32:35 GMT 48.40526 18.55027 36,050 311 425 0
2017-09-14 05:32:33 GMT 48.40269 18.55454 36,050 311 425 0
2017-09-14 05:32:29 GMT 48.39638 18.56584 36,050 311 425 0
2017-09-14 05:32:25 GMT 48.39294 18.57218 36,050 311 425 0
2017-09-14 05:32:23 GMT 48.39015 18.57690 36,050 311 425 0
2017-09-14 05:32:20 GMT 48.38507 18.58619 36,050 311 425 0
2017-09-14 05:32:20 GMT 48.38507 18.58619 36,050 311 425 0
2017-09-14 05:32:18 GMT 48.38242 18.59084 36,050 311 425 0
2017-09-14 05:32:16 GMT 48.38127 18.59288 36,050 311 425 0
2017-09-14 05:32:13 GMT 48.37713 18.60021 36,050 311 425 0
2017-09-14 05:32:09 GMT 48.37210 18.60903 36,050 311 425 0
2017-09-14 05:32:05 GMT 48.36594 18.62014 36,050 311 426 0
2017-09-14 05:32:01 GMT 48.36307 18.62501 36,050 311 426 0
2017-09-14 05:31:59 GMT 48.35870 18.63296 36,050 311 426 0
2017-09-14 05:31:56 GMT 48.35567 18.63831 36,050 311 426 0
2017-09-14 05:31:52 GMT 48.35078 18.64704 36,050 311 425 -64
2017-09-14 05:31:49 GMT 48.34721 18.65331 36,050 311 425 0
2017-09-14 05:31:47 GMT 48.34552 18.65638 36,050 311 425 0
2017-09-14 05:31:45 GMT 48.34296 18.66086 36,050 311 425 0
2017-09-14 05:31:42 GMT 48.33756 18.67054 36,050 311 425 0
2017-09-14 05:31:38 GMT 48.33298 18.67852 36,050 311 425 0
2017-09-14 05:31:36 GMT 48.33124 18.68169 36,050 311 425 0
2017-09-14 05:31:33 GMT 48.32653 18.68984 36,050 311 425 0
2017-09-14 05:31:31 GMT 48.32451 18.69345 36,050 311 425 0
2017-09-14 05:31:31 GMT 48.32388 18.69468 36,050 311 425 0
2017-09-14 05:31:27 GMT 48.31768 18.70553 36,050 311 425 0
2017-09-14 05:31:24 GMT 48.31382 18.71254 36,050 311 425 0
2017-09-14 05:31:21 GMT 48.31121 18.71709 36,050 311 425 0
2017-09-14 05:31:19 GMT 48.30776 18.72310 36,050 311 425 0
2017-09-14 05:31:17 GMT 48.30633 18.72576 36,050 311 425 0
2017-09-14 05:31:13 GMT 48.30074 18.73545 36,050 311 425 0
2017-09-14 05:31:10 GMT 48.29759 18.74099 36,050 311 425 0
2017-09-14 05:31:08 GMT 48.29498 18.74577 36,050 311 425 0
2017-09-14 05:31:06 GMT 48.29297 18.74930 36,050 311 425 0
2017-09-14 05:31:03 GMT 48.28868 18.75684 36,050 311 425 -64
2017-09-14 05:31:00 GMT 48.28352 18.76602 36,050 311 426 0
2017-09-14 05:30:58 GMT 48.28230 18.76824 36,050 311 426 0
2017-09-14 05:30:56 GMT 48.28026 18.77180 36,050 311 426 0
2017-09-14 05:30:53 GMT 48.27530 18.78049 36,050 311 426 0
2017-09-14 05:30:50 GMT 48.27081 18.78845 36,050 311 424 64
2017-09-14 05:30:48 GMT 48.26964 18.79038 36,050 311 424 64
2017-09-14 05:30:46 GMT 48.26463 18.79909 36,050 311 425 0
2017-09-14 05:30:41 GMT 48.26052 18.80628 36,050 311 425 0
2017-09-14 05:30:38 GMT 48.25596 18.81452 36,050 311 425 0
2017-09-14 05:30:36 GMT 48.25349 18.81878 36,050 311 425 0
2017-09-14 05:30:35 GMT 48.25349 18.81878 36,050 311 425 0
2017-09-14 05:30:34 GMT 48.25074 18.82377 36,050 311 425 0
2017-09-14 05:30:32 GMT 48.24632 18.83143 36,050 311 425 0
2017-09-14 05:30:29 GMT 48.24449 18.83472 36,050 311 425 0
2017-09-14 05:30:27 GMT 48.24306 18.83707 36,050 311 425 0
2017-09-14 05:30:25 GMT 48.23991 18.84275 36,050 311 425 0
2017-09-14 05:30:23 GMT 48.23662 18.84859 36,050 311 425 0
2017-09-14 05:30:18 GMT 48.23058 18.85895 36,050 311 425 0
2017-09-14 05:30:18 GMT 48.22993 18.86022 36,050 311 425 0
2017-09-14 05:30:16 GMT 48.22728 18.86512 36,050 311 425 0
2017-09-14 05:30:16 GMT 48.22728 18.86512 36,050 311 425 0
2017-09-14 05:30:14 GMT 48.22672 18.86598 36,050 311 425 0
2017-09-14 05:30:10 GMT 48.22000 18.87775 36,050 311 425 0
2017-09-14 05:30:07 GMT 48.21690 18.88319 36,050 311 425 0
2017-09-14 05:30:05 GMT 48.21483 18.88691 36,050 311 425 0
2017-09-14 05:30:05 GMT 48.21483 18.88691 36,050 311 425 0
2017-09-14 05:30:03 GMT 48.21215 18.89150 36,050 311 425 0
2017-09-14 05:30:00 GMT 48.20851 18.89796 36,050 311 425 0
2017-09-14 05:29:56 GMT 48.20284 18.90776 36,050 311 425 0
2017-09-14 05:29:57 GMT 48.20357 18.90677 36,050 311 425 0
2017-09-14 05:29:56 GMT 48.20284 18.90776 36,050 311 425 0
2017-09-14 05:29:55 GMT 48.20155 18.91015 36,050 311 425 0
2017-09-14 05:29:54 GMT 48.20013 18.91261 36,050 311 426 -64
2017-09-14 05:29:54 GMT 48.20098 18.91130 36,050 311 425 0
2017-09-14 05:29:52 GMT 48.19670 18.91853 36,050 311 425 0
2017-09-14 05:29:50 GMT 48.19432 18.92289 36,050 311 426 0
2017-09-14 05:29:48 GMT 48.19190 18.92706 36,050 311 426 -64
2017-09-14 05:29:46 GMT 48.18878 18.93247 36,050 311 426 0
2017-09-14 05:29:44 GMT 48.18700 18.93564 36,050 311 426 0
2017-09-14 05:29:44 GMT 48.18700 18.93564 36,050 311 426 0
2017-09-14 05:29:44 GMT 48.18700 18.93564 36,050 311 426 0
2017-09-14 05:29:41 GMT 48.18402 18.94071 36,050 311 426 0
2017-09-14 05:29:37 GMT 48.17724 18.95257 36,050 311 426 0
2017-09-14 05:29:35 GMT 48.17603 18.95474 36,050 311 426 0
2017-09-14 05:29:32 GMT 48.17111 18.96339 36,050 311 426 0
2017-09-14 05:29:29 GMT 48.16782 18.96923 36,050 311 427 0
2017-09-14 05:29:25 GMT 48.16260 18.97839 36,050 311 427 0
2017-09-14 05:29:21 GMT 48.15852 18.98536 36,050 311 427 64
2017-09-14 05:29:18 GMT 48.15443 18.99262 36,050 311 427 64
2017-09-14 05:29:16 GMT 48.15047 18.99980 36,050 311 427 64
2017-09-14 05:29:12 GMT 48.14713 19.00546 36,050 311 427 64
2017-09-14 05:29:08 GMT 48.14104 19.01596 36,050 311 427 0
2017-09-14 05:29:06 GMT 48.13972 19.01839 36,050 311 427 0
2017-09-14 05:29:04 GMT 48.13577 19.02516 36,050 311 427 0
2017-09-14 05:29:04 GMT 48.13577 19.02516 36,050 311 427 0
2017-09-14 05:29:02 GMT 48.13403 19.02839 36,050 311 427 0
2017-09-14 05:28:58 GMT 48.12813 19.03848 36,050 311 427 0
2017-09-14 05:28:55 GMT 48.12437 19.04507 36,050 311 427 0
2017-09-14 05:28:51 GMT 48.12058 19.05177 36,050 311 427 64
2017-09-14 05:28:47 GMT 48.11523 19.06100 36,050 311 427 64
2017-09-14 05:28:44 GMT 48.10946 19.07121 36,050 311 429 0
2017-09-14 05:28:43 GMT 48.10825 19.07332 36,050 311 429 0
2017-09-14 05:28:42 GMT 48.10762 19.07419 36,050 311 429 0
2017-09-14 05:28:40 GMT 48.10573 19.07769 36,050 311 429 0
2017-09-14 05:28:36 GMT 48.09934 19.08868 36,050 311 429 0
2017-09-14 05:28:34 GMT 48.09741 19.09232 36,050 311 429 0
2017-09-14 05:28:32 GMT 48.09540 19.09579 36,050 311 429 0
2017-09-14 05:28:30 GMT 48.09338 19.09932 36,050 311 429 -64
2017-09-14 05:28:27 GMT 48.08830 19.10790 36,050 311 429 -64
2017-09-14 05:28:23 GMT 48.08292 19.11720 36,050 311 429 0
2017-09-14 05:28:20 GMT 48.08027 19.12192 36,050 311 429 0
2017-09-14 05:28:20 GMT 48.07910 19.12417 36,050 311 429 0
2017-09-14 05:28:18 GMT 48.07687 19.12776 36,050 311 429 0
2017-09-14 05:28:16 GMT 48.07510 19.13114 36,050 311 429 0
2017-09-14 05:28:14 GMT 48.07164 19.13702 36,050 311 429 0
2017-09-14 05:28:12 GMT 48.06942 19.14093 36,050 311 429 0
2017-09-14 05:28:09 GMT 48.06560 19.14738 36,050 311 429 0
2017-09-14 05:28:06 GMT 48.06212 19.15350 36,050 311 429 0
2017-09-14 05:28:04 GMT 48.05774 19.16121 36,050 311 428 0
2017-09-14 05:28:02 GMT 48.05571 19.16483 36,050 311 428 0
2017-09-14 05:28:00 GMT 48.05257 19.17023 36,050 311 428 64
2017-09-14 05:27:56 GMT 48.04820 19.17753 36,050 311 429 64
2017-09-14 05:27:52 GMT 48.04266 19.18721 36,050 311 429 0
2017-09-14 05:27:49 GMT 48.03940 19.19290 36,050 311 429 0
2017-09-14 05:27:46 GMT 48.03548 19.19950 36,050 311 429 -64
2017-09-14 05:27:42 GMT 48.03017 19.20898 36,050 311 429 0
2017-09-14 05:27:39 GMT 48.02641 19.21550 36,050 311 429 0
2017-09-14 05:27:35 GMT 48.02133 19.22403 36,050 311 429 0
2017-09-14 05:27:33 GMT 48.01854 19.22910 36,050 311 429 0
2017-09-14 05:27:31 GMT 48.01542 19.23467 36,050 311 429 0
2017-09-14 05:27:28 GMT 48.01213 19.24008 36,050 311 429 0
2017-09-14 05:27:26 GMT 48.00867 19.24622 36,050 311 429 0
2017-09-14 05:27:22 GMT 48.00402 19.25424 36,050 311 429 0
2017-09-14 05:27:20 GMT 48.00201 19.25777 36,050 311 429 0
2017-09-14 05:27:18 GMT 47.99945 19.26213 36,050 311 430 0
2017-09-14 05:27:15 GMT 47.99529 19.26926 36,050 311 430 0
2017-09-14 05:27:09 GMT 47.98707 19.28361 36,050 311 430 0
2017-09-14 05:27:07 GMT 47.98576 19.28574 36,050 311 430 64
2017-09-14 05:27:06 GMT 47.98320 19.29021 36,050 311 430 64
2017-09-14 05:27:04 GMT 47.98176 19.29256 36,050 311 430 0
2017-09-14 05:27:00 GMT 47.97422 19.30580 36,050 311 430 0
2017-09-14 05:26:59 GMT 47.97352 19.30699 36,050 311 430 0
2017-09-14 05:26:58 GMT 47.97286 19.30799 36,050 311 430 0
2017-09-14 05:26:56 GMT 47.97166 19.31026 36,050 311 430 0
2017-09-14 05:26:54 GMT 47.96733 19.31784 36,050 311 430 0
2017-09-14 05:26:52 GMT 47.96454 19.32242 36,050 311 430 0
2017-09-14 05:26:50 GMT 47.96193 19.32706 36,050 311 430 0
2017-09-14 05:26:47 GMT 47.95743 19.33470 36,050 311 430 0
2017-09-14 05:26:45 GMT 47.95551 19.33807 36,050 311 430 0
2017-09-14 05:26:43 GMT 47.95285 19.34267 36,050 311 430 0
2017-09-14 05:26:41 GMT 47.95024 19.34720 36,050 311 430 0
2017-09-14 05:26:39 GMT 47.94890 19.34939 36,050 311 430 0
2017-09-14 05:26:38 GMT 47.94635 19.35400 36,050 311 430 0
2017-09-14 05:26:37 GMT 47.94503 19.35608 36,050 311 430 0
2017-09-14 05:26:35 GMT 47.94368 19.35861 36,050 311 430 0
2017-09-14 05:26:35 GMT 47.94434 19.35728 36,050 311 430 0
2017-09-14 05:26:32 GMT 47.93982 19.36509 36,050 311 430 64
2017-09-14 05:26:29 GMT 47.93532 19.37281 36,050 311 431 64
2017-09-14 05:26:26 GMT 47.93143 19.37954 36,050 311 431 0
2017-09-14 05:26:24 GMT 47.92873 19.38421 36,050 311 431 0
2017-09-14 05:26:19 GMT 47.92172 19.39636 36,050 311 431 0
2017-09-14 05:26:15 GMT 47.91622 19.40559 36,050 311 431 0
2017-09-14 05:26:13 GMT 47.91554 19.40701 36,050 311 431 0
2017-09-14 05:26:08 GMT 47.90826 19.41953 36,050 311 431 0
2017-09-14 05:26:06 GMT 47.90425 19.42629 36,050 311 431 0
2017-09-14 05:26:04 GMT 47.90174 19.43045 36,050 311 431 0
2017-09-14 05:26:00 GMT 47.89673 19.43935 36,050 311 431 0
2017-09-14 05:25:57 GMT 47.89476 19.44257 36,050 311 431 0
2017-09-14 05:25:55 GMT 47.89127 19.44855 36,050 311 431 0
2017-09-14 05:25:53 GMT 47.88866 19.45320 36,050 311 431 0
2017-09-14 05:25:50 GMT 47.88391 19.46115 36,050 311 431 0
2017-09-14 05:25:48 GMT 47.88065 19.46700 36,050 312 432 0
2017-09-14 05:25:45 GMT 47.87674 19.47362 36,050 311 431 0
2017-09-14 05:25:44 GMT 47.87618 19.47461 36,050 311 431 0
2017-09-14 05:25:43 GMT 47.87563 19.47546 36,050 311 431 64
2017-09-14 05:25:41 GMT 47.87297 19.48013 36,050 311 431 0
2017-09-14 05:25:39 GMT 47.87106 19.48327 36,050 311 431 64
2017-09-14 05:25:39 GMT 47.87032 19.48439 36,050 311 431 0
2017-09-14 05:25:37 GMT 47.86844 19.48796 36,050 311 431 0
2017-09-14 05:25:35 GMT 47.86482 19.49387 36,050 311 431 0
2017-09-14 05:25:33 GMT 47.86115 19.50038 36,050 311 431 0
2017-09-14 05:25:31 GMT 47.85980 19.50249 36,050 311 431 0
2017-09-14 05:25:28 GMT 47.85668 19.50792 36,050 311 431 0
2017-09-14 05:25:24 GMT 47.84875 19.52154 36,050 311 430 0
2017-09-14 05:25:22 GMT 47.84875 19.52154 36,050 311 430 0
2017-09-14 05:25:20 GMT 47.84560 19.52696 36,050 311 430 0
2017-09-14 05:25:18 GMT 47.84127 19.53426 36,050 311 431 0
2017-09-14 05:25:15 GMT 47.83931 19.53771 36,050 311 431 0
2017-09-14 05:25:13 GMT 47.83461 19.54566 36,050 312 430 0
2017-09-14 05:25:11 GMT 47.83349 19.54778 36,050 312 430 0
2017-09-14 05:25:11 GMT 47.83410 19.54672 36,050 311 431 0
2017-09-14 05:25:08 GMT 47.83061 19.55242 36,050 311 431 0
2017-09-14 05:25:06 GMT 47.82793 19.55731 36,050 311 431 0
2017-09-14 05:25:03 GMT 47.82302 19.56559 36,050 311 431 0
2017-09-14 05:25:00 GMT 47.81955 19.57153 36,050 311 431 0
2017-09-14 05:25:00 GMT 47.82018 19.57038 36,050 311 431 0
2017-09-14 05:24:54 GMT 47.81154 19.58533 36,050 311 431 0
2017-09-14 05:24:52 GMT 47.80852 19.59027 36,050 311 431 0
2017-09-14 05:24:50 GMT 47.80668 19.59348 36,050 311 431 0
2017-09-14 05:24:45 GMT 47.79960 19.60553 36,050 311 431 0
2017-09-14 05:24:41 GMT 47.79350 19.61575 36,050 312 432 0
2017-09-14 05:24:37 GMT 47.78778 19.62584 36,050 312 432 0
2017-09-14 05:24:35 GMT 47.78699 19.62679 36,050 312 432 0
2017-09-14 05:24:33 GMT 47.78434 19.63144 36,050 312 432 0
2017-09-14 05:24:29 GMT 47.77642 19.64482 36,050 312 432 0
2017-09-14 05:24:27 GMT 47.77577 19.64616 36,050 312 432 0
2017-09-14 05:24:25 GMT 47.77321 19.65032 36,050 312 432 0
2017-09-14 05:24:21 GMT 47.76804 19.65919 36,050 312 432 0
2017-09-14 05:24:19 GMT 47.76478 19.66475 36,050 312 432 0
2017-09-14 05:24:17 GMT 47.76278 19.66827 36,050 312 432 0
2017-09-14 05:24:14 GMT 47.75864 19.67525 36,050 312 432 0
2017-09-14 05:24:10 GMT 47.75413 19.68290 36,050 312 432 0
2017-09-14 05:24:07 GMT 47.74942 19.69081 36,050 312 433 0
2017-09-14 05:24:03 GMT 47.74480 19.69890 36,050 312 433 0
2017-09-14 05:24:00 GMT 47.74086 19.70556 36,050 312 433 0
2017-09-14 05:23:58 GMT 47.73657 19.71278 36,050 312 433 0
2017-09-14 05:23:54 GMT 47.73111 19.72218 36,050 312 433 0
2017-09-14 05:23:51 GMT 47.72763 19.72785 36,050 312 433 0
2017-09-14 05:23:47 GMT 47.72363 19.73468 36,050 312 433 0
2017-09-14 05:23:45 GMT 47.72109 19.73927 36,050 312 432 0
2017-09-14 05:23:42 GMT 47.71715 19.74600 36,050 312 432 0
2017-09-14 05:23:40 GMT 47.71423 19.75074 36,050 312 432 0
2017-09-14 05:23:37 GMT 47.70943 19.75877 36,050 312 432 0
2017-09-14 05:23:31 GMT 47.70245 19.77065 36,050 312 433 0
2017-09-14 05:23:28 GMT 47.69756 19.77891 36,050 312 433 0
2017-09-14 05:23:26 GMT 47.69559 19.78233 36,050 312 433 0
2017-09-14 05:23:25 GMT 47.69440 19.78440 36,050 312 433 0
2017-09-14 05:23:20 GMT 47.68808 19.79510 36,050 312 433 0
2017-09-14 05:23:18 GMT 47.68556 19.79949 36,050 312 433 0
2017-09-14 05:23:16 GMT 47.68132 19.80666 36,050 312 433 0
2017-09-14 05:23:15 GMT 47.68001 19.80877 36,050 312 433 0
2017-09-14 05:23:11 GMT 47.67499 19.81721 36,050 312 433 0
2017-09-14 05:23:07 GMT 47.67056 19.82469 36,050 312 433 0
2017-09-14 05:23:05 GMT 47.66853 19.82833 36,050 312 433 0
2017-09-14 05:23:03 GMT 47.66569 19.83286 36,050 312 433 0
2017-09-14 05:22:57 GMT 47.65828 19.84550 36,050 312 433 0
2017-09-14 05:22:54 GMT 47.65352 19.85374 36,050 312 433 0
2017-09-14 05:22:50 GMT 47.64673 19.86511 36,050 312 433 0
2017-09-14 05:22:47 GMT 47.64449 19.86877 36,050 312 433 0
2017-09-14 05:22:43 GMT 47.63821 19.87927 36,050 312 433 0
2017-09-14 05:22:37 GMT 47.62978 19.89349 36,050 312 433 0
2017-09-14 05:22:34 GMT 47.62634 19.89941 36,050 312 433 0
2017-09-14 05:22:32 GMT 47.62235 19.90620 36,050 312 433 0
2017-09-14 05:22:28 GMT 47.61914 19.91142 36,050 312 433 0
2017-09-14 05:22:25 GMT 47.61572 19.91723 36,050 312 433 0
2017-09-14 05:22:23 GMT 47.61232 19.92300 36,050 312 432 0
2017-09-14 05:22:19 GMT 47.60577 19.93414 36,050 312 432 0
2017-09-14 05:22:16 GMT 47.60334 19.93814 36,050 312 432 0
2017-09-14 05:22:13 GMT 47.59882 19.94589 36,050 312 432 0
2017-09-14 05:22:11 GMT 47.59493 19.95248 36,050 312 432 0
2017-09-14 05:22:05 GMT 47.58863 19.96272 36,050 312 432 0
2017-09-14 05:22:01 GMT 47.58234 19.97349 36,050 312 432 0
2017-09-14 05:21:59 GMT 47.57937 19.97836 36,050 312 432 0
2017-09-14 05:21:54 GMT 47.57392 19.98772 36,050 312 432 0
2017-09-14 05:21:51 GMT 47.56993 19.99429 36,050 312 432 0
2017-09-14 05:21:49 GMT 47.56861 19.99674 36,050 312 432 0
2017-09-14 05:21:44 GMT 47.55821 20.01421 36,050 312 432 0
2017-09-14 05:21:40 GMT 47.55418 20.02103 36,050 312 432 0
2017-09-14 05:21:34 GMT 47.54878 20.02991 36,050 312 432 0
2017-09-14 05:21:31 GMT 47.54315 20.03927 36,050 312 432 0
2017-09-14 05:21:28 GMT 47.54054 20.04378 36,050 312 432 0
2017-09-14 05:21:24 GMT 47.53477 20.05329 36,050 312 432 -64
2017-09-14 05:21:20 GMT 47.53025 20.06096 36,050 312 432 0
2017-09-14 05:21:18 GMT 47.52667 20.06702 36,050 312 432 0
2017-09-14 05:21:14 GMT 47.52220 20.07456 36,075 312 432 0
2017-09-14 05:21:12 GMT 47.51775 20.08212 36,050 312 432 0
2017-09-14 05:21:10 GMT 47.51500 20.08644 36,050 312 432 0
2017-09-14 05:21:08 GMT 47.51210 20.09139 36,050 312 432 0
2017-09-14 05:21:03 GMT 47.50707 20.09984 36,050 312 432 64
2017-09-14 05:21:00 GMT 47.50076 20.11041 36,050 312 433 0
2017-09-14 05:20:57 GMT 47.49734 20.11625 36,050 312 433 0
2017-09-14 05:20:54 GMT 47.49477 20.12043 36,050 312 433 0
2017-09-14 05:20:52 GMT 47.49110 20.12640 36,050 312 433 0
2017-09-14 05:20:48 GMT 47.48710 20.13329 36,050 312 433 0
2017-09-14 05:20:45 GMT 47.48217 20.14160 36,050 312 433 0
2017-09-14 05:20:43 GMT 47.47993 20.14515 36,050 312 433 0
2017-09-14 05:20:38 GMT 47.47393 20.15533 36,050 312 433 0
2017-09-14 05:20:32 GMT 47.46573 20.16900 36,050 312 433 0
2017-09-14 05:20:28 GMT 47.45987 20.17886 36,050 312 433 0
2017-09-14 05:20:25 GMT 47.45428 20.18794 36,050 312 433 0
2017-09-14 05:20:22 GMT 47.45219 20.19136 36,050 312 433 0
2017-09-14 05:20:17 GMT 47.44579 20.20235 36,050 312 433 0
2017-09-14 05:20:11 GMT 47.43778 20.21546 36,050 312 433 0
2017-09-14 05:20:06 GMT 47.43123 20.22638 36,050 312 433 0
2017-09-14 05:20:01 GMT 47.42463 20.23745 36,050 312 433 0
2017-09-14 05:19:58 GMT 47.42056 20.24437 36,050 312 433 0
2017-09-14 05:19:57 GMT 47.41685 20.25020 36,050 312 433 0
2017-09-14 05:19:54 GMT 47.41512 20.25336 36,050 312 433 0
2017-09-14 05:19:50 GMT 47.41049 20.26105 36,050 312 433 0
2017-09-14 05:19:45 GMT 47.40223 20.27485 36,050 312 433 0
2017-09-14 05:19:40 GMT 47.39685 20.28371 36,050 312 433 0
2017-09-14 05:19:34 GMT 47.38861 20.29752 36,050 312 433 0
2017-09-14 05:19:32 GMT 47.38496 20.30337 36,050 312 433 0
2017-09-14 05:19:30 GMT 47.38296 20.30675 36,050 312 433 0
2017-09-14 05:19:26 GMT 47.37784 20.31541 36,050 312 434 0
2017-09-14 05:19:23 GMT 47.37491 20.32020 36,050 312 433 0
2017-09-14 05:19:19 GMT 47.36934 20.32944 36,050 312 434 0
2017-09-14 05:19:14 GMT 47.36104 20.34316 36,050 312 434 0
2017-09-14 05:19:10 GMT 47.35536 20.35267 36,050 312 434 0
2017-09-14 05:19:08 GMT 47.35484 20.35351 36,050 312 434 0
2017-09-14 05:19:03 GMT 47.34709 20.36639 36,050 312 434 0
2017-09-14 05:18:57 GMT 47.33958 20.37875 36,050 312 434 0
2017-09-14 05:18:53 GMT 47.33264 20.39034 36,050 312 434 0
2017-09-14 05:18:48 GMT 47.32794 20.39809 36,050 312 434 0
2017-09-14 05:18:42 GMT 47.31574 20.41830 36,050 312 434 0
2017-09-14 05:18:38 GMT 47.31416 20.42091 36,050 312 433 0
2017-09-14 05:18:35 GMT 47.30987 20.42795 36,050 312 433 0
2017-09-14 05:18:30 GMT 47.30370 20.43800 36,050 312 433 0
2017-09-14 05:18:27 GMT 47.30010 20.44394 36,050 312 434 0
2017-09-14 05:18:21 GMT 47.29079 20.45950 36,050 312 433 0
2017-09-14 05:18:17 GMT 47.28679 20.46605 36,050 312 433 0
2017-09-14 05:18:15 GMT 47.28332 20.47172 36,050 312 433 0
2017-09-14 05:18:13 GMT 47.28125 20.47514 36,050 312 433 0
2017-09-14 05:18:10 GMT 47.27742 20.48140 36,050 312 433 0
2017-09-14 05:18:07 GMT 47.27266 20.48923 36,050 312 433 0
2017-09-14 05:18:04 GMT 47.26808 20.49699 36,050 312 433 0
2017-09-14 05:18:02 GMT 47.26682 20.49908 36,050 312 433 0
2017-09-14 05:18:00 GMT 47.26227 20.50660 36,050 312 433 0
2017-09-14 05:17:56 GMT 47.25872 20.51225 36,050 312 433 0
2017-09-14 05:17:53 GMT 47.25426 20.51971 36,050 312 433 0
2017-09-14 05:17:51 GMT 47.25206 20.52322 36,050 312 433 0
2017-09-14 05:17:49 GMT 47.24940 20.52767 36,050 312 433 0
2017-09-14 05:17:46 GMT 47.24451 20.53564 36,050 312 433 0
2017-09-14 05:17:44 GMT 47.24158 20.54049 36,050 312 434 0
2017-09-14 05:17:42 GMT 47.23991 20.54331 36,050 312 433 0
2017-09-14 05:17:40 GMT 47.23516 20.55098 36,050 312 434 0
2017-09-14 05:17:35 GMT 47.23036 20.55885 36,050 312 434 0
2017-09-14 05:17:30 GMT 47.22386 20.56984 36,050 312 434 0
2017-09-14 05:17:25 GMT 47.21727 20.58055 36,050 312 434 0
2017-09-14 05:17:23 GMT 47.21301 20.58755 36,050 312 434 0
2017-09-14 05:17:17 GMT 47.20651 20.59827 36,050 312 434 0
2017-09-14 05:17:14 GMT 47.20211 20.60542 36,050 312 434 0
2017-09-14 05:17:11 GMT 47.19868 20.61104 36,075 312 434 0
2017-09-14 05:17:04 GMT 47.18889 20.62718 36,050 312 434 0
2017-09-14 05:17:02 GMT 47.18544 20.63282 36,050 312 433 0
2017-09-14 05:16:56 GMT 47.17767 20.64563 36,050 312 433 0
2017-09-14 05:16:54 GMT 47.17497 20.65004 36,050 312 433 0
2017-09-14 05:16:52 GMT 47.17217 20.65437 36,050 312 434 0
2017-09-14 05:16:47 GMT 47.16550 20.66556 36,050 312 434 0
2017-09-14 05:16:43 GMT 47.16115 20.67270 36,050 312 434 0
2017-09-14 05:16:41 GMT 47.15849 20.67690 36,050 312 434 0
2017-09-14 05:16:40 GMT 47.15583 20.68148 36,050 312 434 0
2017-09-14 05:16:37 GMT 47.15113 20.68923 36,050 312 434 0
2017-09-14 05:16:33 GMT 47.14746 20.69495 36,050 312 434 0
2017-09-14 05:16:27 GMT 47.13968 20.70772 36,050 312 434 0
2017-09-14 05:16:25 GMT 47.13624 20.71345 36,050 312 434 0
2017-09-14 05:16:22 GMT 47.13286 20.71891 36,050 312 434 0
2017-09-14 05:16:15 GMT 47.12160 20.73738 36,050 312 434 0
2017-09-14 05:16:12 GMT 47.11910 20.74155 36,050 312 434 0
2017-09-14 05:16:07 GMT 47.11291 20.75162 36,050 312 434 0
2017-09-14 05:16:04 GMT 47.10840 20.75888 36,050 312 434 0
2017-09-14 05:16:02 GMT 47.10500 20.76444 36,050 312 434 0
2017-09-14 05:15:51 GMT 47.09085 20.78747 36,050 312 435 0
2017-09-14 05:15:49 GMT 47.08745 20.79300 36,050 312 435 0
2017-09-14 05:15:43 GMT 47.08005 20.80508 36,050 312 435 0
2017-09-14 05:15:41 GMT 47.07739 20.80951 36,050 312 435 0
2017-09-14 05:15:33 GMT 47.06594 20.82825 36,050 312 435 0
2017-09-14 05:15:30 GMT 47.06314 20.83289 36,050 312 435 0
2017-09-14 05:15:22 GMT 47.05220 20.85061 36,050 312 435 0
2017-09-14 05:15:20 GMT 47.04890 20.85597 36,050 312 435 64
2017-09-14 05:15:18 GMT 47.04490 20.86226 36,050 312 436 0
2017-09-14 05:15:12 GMT 47.03874 20.87244 36,050 313 436 0
2017-09-14 05:15:09 GMT 47.03407 20.88007 36,050 313 436 0
2017-09-14 05:14:59 GMT 47.02093 20.90135 36,050 312 436 0
2017-09-14 05:14:51 GMT 47.00994 20.91910 36,050 312 436 0
2017-09-14 05:14:49 GMT 47.00684 20.92422 36,050 312 436 0
2017-09-14 05:14:40 GMT 46.99542 20.94297 36,050 312 436 0
2017-09-14 05:14:38 GMT 46.99267 20.94727 36,050 312 436 0
2017-09-14 05:14:30 GMT 46.98143 20.96542 36,050 313 436 0
2017-09-14 05:14:28 GMT 46.97882 20.96974 36,050 313 436 0
2017-09-14 05:14:19 GMT 46.96665 20.98945 36,050 313 436 0
2017-09-14 05:14:17 GMT 46.96385 20.99403 36,050 313 436 0
2017-09-14 05:14:10 GMT 46.95370 21.01037 36,050 313 436 0
2017-09-14 05:14:01 GMT 46.94174 21.02982 36,050 313 436 0
2017-09-14 05:13:58 GMT 46.93771 21.03614 36,050 313 436 0
2017-09-14 05:13:56 GMT 46.93620 21.03868 36,050 313 436 0
2017-09-14 05:13:48 GMT 46.92403 21.05832 36,050 313 436 0
2017-09-14 05:13:46 GMT 46.92142 21.06244 36,050 313 436 0
2017-09-14 05:13:37 GMT 46.90951 21.08180 36,050 313 436 0
2017-09-14 05:13:35 GMT 46.90725 21.08544 36,050 313 436 0
2017-09-14 05:13:27 GMT 46.89583 21.10377 36,050 313 436 0
2017-09-14 05:13:25 GMT 46.89413 21.10652 36,050 313 436 0
2017-09-14 05:13:15 GMT 46.88034 21.12868 36,050 313 436 0
2017-09-14 05:13:05 GMT 46.86633 21.15143 36,050 313 436 0
2017-09-14 05:12:54 GMT 46.85101 21.17594 36,050 313 436 0
2017-09-14 05:12:44 GMT 46.83812 21.19661 36,050 313 436 0
2017-09-14 05:12:34 GMT 46.82396 21.21942 36,050 313 436 0
2017-09-14 05:12:23 GMT 46.80931 21.24267 36,050 313 437 0
2017-09-14 05:12:12 GMT 46.79457 21.26665 36,050 313 437 0
2017-09-14 05:12:02 GMT 46.78097 21.28815 36,050 313 437 0
2017-09-14 05:11:52 GMT 46.76736 21.31018 36,050 313 437 0
2017-09-14 05:11:42 GMT 46.75305 21.33310 36,050 313 438 0
2017-09-14 05:11:33 GMT 46.74028 21.35354 36,050 313 438 0
2017-09-14 05:11:22 GMT 46.72641 21.37571 36,050 313 438 0
2017-09-14 05:11:20 GMT 46.72366 21.38013 36,050 313 438 0
2017-09-14 05:11:10 GMT 46.70769 21.40539 36,050 313 438 0
2017-09-14 05:11:00 GMT 46.69560 21.42495 36,050 313 438 0
2017-09-14 05:10:49 GMT 46.68169 21.44732 36,050 313 438 0
2017-09-14 05:10:39 GMT 46.66741 21.47003 36,050 313 438 0
2017-09-14 05:10:28 GMT 46.65312 21.49274 36,050 313 438 0
2017-09-14 05:10:19 GMT 46.63962 21.51459 36,050 313 438 0
2017-09-14 05:10:09 GMT 46.62588 21.53642 36,050 313 438 0
2017-09-14 05:10:04 GMT 46.62011 21.54563 36,050 313 438 0
2017-09-14 05:09:58 GMT 46.61101 21.56033 36,050 313 438 0
2017-09-14 05:09:47 GMT 46.59642 21.58388 36,050 313 438 0
2017-09-14 05:09:37 GMT 46.58267 21.60569 36,050 313 438 0
2017-09-14 05:09:35 GMT 46.57988 21.61017 36,050 313 438 0
2017-09-14 05:09:22 GMT 46.56248 21.63819 36,050 313 438 0
2017-09-14 05:09:19 GMT 46.55901 21.64360 36,050 313 438 0
2017-09-14 05:09:14 GMT 46.55131 21.65604 36,050 313 438 0
2017-09-14 05:09:04 GMT 46.53832 21.67685 36,050 313 438 0
2017-09-14 05:08:55 GMT 46.52589 21.69656 36,050 313 438 0
2017-09-14 05:08:50 GMT 46.51923 21.70704 36,050 313 438 0
2017-09-14 05:08:42 GMT 46.50787 21.72478 36,050 313 438 0
2017-09-14 05:08:32 GMT 46.49428 21.74620 36,050 314 438 0
2017-09-14 05:08:24 GMT 46.48241 21.76440 36,050 314 438 0
2017-09-14 05:08:02 GMT 46.45080 21.81198 36,050 315 440 0
2017-09-14 05:07:53 GMT 46.43866 21.82977 36,050 316 441 0
2017-09-14 05:07:51 GMT 46.43564 21.83412 36,050 315 441 0
2017-09-14 05:07:40 GMT 46.41998 21.85636 36,050 316 441 0
2017-09-14 05:07:29 GMT 46.40474 21.87760 36,050 317 442 0
2017-09-14 05:07:21 GMT 46.39279 21.89421 36,050 317 442 0
2017-09-14 05:07:12 GMT 46.37947 21.91216 36,050 317 442 0
2017-09-14 05:07:09 GMT 46.37416 21.91933 36,050 316.7 442.1 -128
2017-09-14 05:06:44 GMT 46.33596 21.97108 36,050 317 442 0
2017-09-14 05:06:10 GMT 46.28568 22.03899 36,050 317 442 0
2017-09-14 05:06:04 GMT 46.27674 22.05121 36,050 317 442 0
2017-09-14 05:05:55 GMT 46.26361 22.06885 36,050 317 442 0
2017-09-14 05:05:47 GMT 46.25258 22.08386 36,050 317 442 0
2017-09-14 05:05:37 GMT 46.23683 22.10483 36,050 317 442 0
2017-09-14 05:05:22 GMT 46.21315 22.13683 36,050 316.9 442.2 0
2017-09-14 05:05:02 GMT 46.18469 22.17503 36,050 316.9 442.2 -128
2017-09-14 05:04:42 GMT 46.14638 22.22641 36,050 316.9 442.2 -128
2017-09-14 05:04:18 GMT 46.11888 22.26318 36,050 318 441 0
2017-09-14 05:04:08 GMT 46.10321 22.28429 36,050 317 441.5 0
2017-09-14 05:03:48 GMT 46.07373 22.32374 36,050 317 442.9 0
2017-09-14 05:03:23 GMT 46.02955 22.38279 36,050 317.1 443.7 -128
2017-09-14 05:02:49 GMT 45.98245 22.44534 36,050 317.1 443.7 -128
2017-09-14 05:02:23 GMT 45.94185 22.49933 36,050 317.1 443.7 -128
2017-09-14 05:02:02 GMT 45.91443 22.53584 36,050 317.2 443 0
2017-09-14 05:01:38 GMT 45.87822 22.58374 36,050 317.2 443 -128
2017-09-14 05:01:03 GMT 45.82048 22.65992 36,050 317.3 442.3 0
2017-09-14 05:00:23 GMT 45.76373 22.73487 36,050 317.3 442.3 -128
2017-09-14 05:00:03 GMT 45.73418 22.77370 36,050 317.4 443 0
2017-09-14 04:59:43 GMT 45.70395 22.81345 36,050 317.4 443 0
2017-09-14 04:59:22 GMT 45.67282 22.85418 36,050 317.4 443 0
2017-09-14 04:58:43 GMT 45.61277 22.93286 36,050 317.4 441.6 -128
2017-09-14 04:58:04 GMT 45.54886 23.01636 36,050 317.5 440.9 0
2017-09-14 04:57:43 GMT 45.52390 23.04871 36,050 317.6 441.7 0
2017-09-14 04:57:20 GMT 45.48884 23.09440 36,050 317.6 441.7 0
2017-09-14 04:56:54 GMT 45.44830 23.14692 36,050 318 441 0
2017-09-14 04:56:45 GMT 45.43625 23.16258 36,050 318 441 0
2017-09-14 04:56:25 GMT 45.40598 23.20179 36,050 318 441 0
2017-09-14 04:56:10 GMT 45.38393 23.23040 36,050 318 441 0
2017-09-14 04:56:08 GMT 45.37940 23.23635 36,050 318 441 0
2017-09-14 04:55:56 GMT 45.36297 23.25752 36,050 318 441 0
2017-09-14 04:55:45 GMT 45.34458 23.28110 36,050 318 441 -64
2017-09-14 04:55:33 GMT 45.32794 23.30252 36,050 318 441 -64
2017-09-14 04:55:24 GMT 45.31269 23.32217 36,050 318 441 0
2017-09-14 04:55:14 GMT 45.29961 23.33925 36,050 318 441 0
2017-09-14 04:55:05 GMT 45.28369 23.35961 36,050 318 441 0
2017-09-14 04:54:52 GMT 45.26642 23.38191 36,050 318 441 0
2017-09-14 04:54:42 GMT 45.24980 23.40310 36,050 318 441 0
2017-09-14 04:54:29 GMT 45.23163 23.42645 36,050 318 441 0
2017-09-14 04:54:19 GMT 45.21670 23.44574 36,050 318 441 0
2017-09-14 04:54:13 GMT 45.20604 23.45943 36,050 318 441 0
2017-09-14 04:54:01 GMT 45.18979 23.48019 36,050 318 441 0
2017-09-14 04:53:50 GMT 45.17180 23.50335 36,050 318 441 0
2017-09-14 04:53:39 GMT 45.15633 23.52304 36,050 318 441 0
2017-09-14 04:53:31 GMT 45.14195 23.54141 36,050 318 441 0
2017-09-14 04:53:16 GMT 45.12099 23.56816 36,050 318 441 0
2017-09-14 04:53:06 GMT 45.10465 23.58899 36,050 318 440 0
2017-09-14 04:53:00 GMT 45.09531 23.60086 36,050 318 440 0
2017-09-14 04:52:48 GMT 45.07860 23.62224 36,050 318 440 0
2017-09-14 04:52:38 GMT 45.06266 23.64238 36,050 318 440 0
2017-09-14 04:52:27 GMT 45.04747 23.66200 36,050 318 440 0
2017-09-14 04:52:16 GMT 45.02856 23.68587 36,050 318 440 0
2017-09-14 04:51:53 GMT 44.99562 23.72772 36,050 319 439 0
2017-09-14 04:51:43 GMT 44.97917 23.74858 36,050 319 439 0
2017-09-14 04:51:33 GMT 44.96518 23.76624 36,050 319 439 0
2017-09-14 04:51:25 GMT 44.95184 23.78331 36,050 318 438 0
2017-09-14 04:51:19 GMT 44.94325 23.79418 36,050 318 438 0
2017-09-14 04:51:15 GMT 44.93743 23.80134 36,050 319 438 0
2017-09-14 04:51:05 GMT 44.92100 23.82231 36,050 319 438 0
2017-09-14 04:50:54 GMT 44.90503 23.84241 36,050 319 438 0
2017-09-14 04:50:43 GMT 44.88995 23.86132 36,050 319 438 0
2017-09-14 04:50:33 GMT 44.87291 23.88301 36,050 319 438 0
2017-09-14 04:50:24 GMT 44.86090 23.89828 36,050 319 437 0
2017-09-14 04:50:22 GMT 44.85823 23.90154 36,050 319 437 0
2017-09-14 04:50:13 GMT 44.84363 23.92005 36,050 319 437 0
2017-09-14 04:50:03 GMT 44.82957 23.93777 36,050 319 437 0
2017-09-14 04:50:01 GMT 44.82710 23.94071 36,050 319 437 0
2017-09-14 04:49:53 GMT 44.81342 23.95797 36,050 319 437 0
2017-09-14 04:49:51 GMT 44.81108 23.96099 36,050 319 437 0
2017-09-14 04:49:42 GMT 44.79662 23.97923 36,050 319 437 0
2017-09-14 04:49:32 GMT 44.78302 23.99615 36,050 319 437 0
2017-09-14 04:49:30 GMT 44.77911 24.00104 36,050 319 437 0
2017-09-14 04:49:21 GMT 44.76477 24.01919 36,050 319 437 0
2017-09-14 04:49:11 GMT 44.74960 24.03829 36,050 319 436 0
2017-09-14 04:49:00 GMT 44.73381 24.05805 36,050 319 436 0
2017-09-14 04:48:50 GMT 44.71843 24.07739 36,050 319 436 0
2017-09-14 04:48:38 GMT 44.70190 24.09799 36,050 319 436 0
2017-09-14 04:48:31 GMT 44.69014 24.11257 36,050 319 436 0
2017-09-14 04:48:28 GMT 44.68675 24.11693 36,050 319 436 0
2017-09-14 04:48:19 GMT 44.67101 24.13664 36,050 319 435 0
2017-09-14 04:48:10 GMT 44.65832 24.15246 36,050 319 435 0
2017-09-14 04:48:08 GMT 44.65593 24.15552 36,050 319 435 0
2017-09-14 04:48:00 GMT 44.64355 24.17113 36,050 319 435 -64
2017-09-14 04:47:58 GMT 44.64047 24.17470 36,050 319 435 0
2017-09-14 04:47:48 GMT 44.62446 24.19484 36,050 319 435 0
2017-09-14 04:47:40 GMT 44.61378 24.20811 36,050 319 435 0
2017-09-14 04:47:36 GMT 44.60834 24.21491 36,050 319 435 0
2017-09-14 04:47:29 GMT 44.59744 24.22845 36,050 319 435 0
2017-09-14 04:47:27 GMT 44.59281 24.23423 36,050 319 435 0
2017-09-14 04:47:19 GMT 44.58220 24.24761 36,050 319 435 0
2017-09-14 04:47:17 GMT 44.57726 24.25369 36,050 319 435 0
2017-09-14 04:47:09 GMT 44.56691 24.26645 36,050 319 434 0
2017-09-14 04:47:06 GMT 44.56246 24.27208 36,050 319 434 0
2017-09-14 04:46:59 GMT 44.55194 24.28521 36,050 319 434 0
2017-09-14 04:46:56 GMT 44.54686 24.29151 36,050 319 434 0
2017-09-14 04:46:49 GMT 44.53681 24.30397 36,050 319 434 0
2017-09-14 04:46:44 GMT 44.53043 24.31194 36,050 319 434 0
2017-09-14 04:46:37 GMT 44.51903 24.32622 36,050 319 434 0
2017-09-14 04:46:35 GMT 44.51440 24.33204 36,050 319 434 0
2017-09-14 04:46:25 GMT 44.49934 24.35048 36,050 319 434 0
2017-09-14 04:46:18 GMT 44.49058 24.36138 36,050 319 434 0
2017-09-14 04:46:14 GMT 44.48401 24.36964 36,050 319 434 0
2017-09-14 04:46:07 GMT 44.47412 24.38193 36,050 319 434 0
2017-09-14 04:46:04 GMT 44.46837 24.38905 36,050 319 434 0
2017-09-14 04:45:55 GMT 44.45609 24.40423 36,050 319 434 0
2017-09-14 04:45:53 GMT 44.45259 24.40861 36,050 319 434 0
2017-09-14 04:45:46 GMT 44.44300 24.42046 36,050 319 433 0
2017-09-14 04:45:43 GMT 44.43658 24.42843 36,050 319 433 0
2017-09-14 04:45:37 GMT 44.42806 24.43895 36,050 319 433 0
2017-09-14 04:45:32 GMT 44.42154 24.44706 36,050 319 433 0
2017-09-14 04:45:21 GMT 44.40582 24.46655 36,050 319 433 0
2017-09-14 04:45:12 GMT 44.38993 24.48605 36,050 319 432 0
2017-09-14 04:45:00 GMT 44.37397 24.50581 36,050 319 432 0
2017-09-14 04:44:51 GMT 44.35899 24.52436 36,050 319 432 0
2017-09-14 04:44:40 GMT 44.34329 24.54365 36,050 319 432 0
2017-09-14 04:44:31 GMT 44.32942 24.56079 36,050 319 432 0
2017-09-14 04:44:29 GMT 44.32700 24.56373 36,050 319 432 0
2017-09-14 04:44:25 GMT 44.31741 24.57555 36,050 319 431 64
2017-09-14 04:44:20 GMT 44.31216 24.58204 36,050 319 432 0
2017-09-14 04:44:13 GMT 44.30269 24.59370 36,050 319 432 0
2017-09-14 04:44:09 GMT 44.29578 24.60212 36,050 319 431 0
2017-09-14 04:43:59 GMT 44.28021 24.62128 36,050 319 431 0
2017-09-14 04:43:47 GMT 44.26429 24.64086 36,050 319 431 0
2017-09-14 04:43:42 GMT 44.25554 24.65169 36,050 319 431 64
2017-09-14 04:43:38 GMT 44.24954 24.65888 36,050 319 431 0
2017-09-14 04:43:29 GMT 44.23617 24.67529 36,050 319 430 0
2017-09-14 04:43:27 GMT 44.23357 24.67850 36,050 319 431 0
2017-09-14 04:43:16 GMT 44.21825 24.69720 36,050 319 430 0
2017-09-14 04:43:07 GMT 44.20280 24.71630 36,050 319 430 -64
2017-09-14 04:42:59 GMT 44.19125 24.73055 36,075 319 430 0
2017-09-14 04:42:56 GMT 44.18683 24.73598 36,050 319 430 0
2017-09-14 04:42:46 GMT 44.17090 24.75534 36,050 319 430 0
2017-09-14 04:42:43 GMT 44.16751 24.75946 36,050 319 430 0
2017-09-14 04:42:38 GMT 44.15996 24.76855 36,050 319 430 0
2017-09-14 04:42:34 GMT 44.15545 24.77443 36,050 319 430 0
2017-09-14 04:42:29 GMT 44.14536 24.78656 36,050 319 430 -64
2017-09-14 04:42:25 GMT 44.14009 24.79308 36,050 319 430 -64
2017-09-14 04:42:21 GMT 44.13473 24.79959 36,075 319 430 0
2017-09-14 04:42:17 GMT 44.13003 24.80536 36,050 319 430 64
2017-09-14 04:42:14 GMT 44.12454 24.81197 36,050 319 430 64
2017-09-14 04:42:08 GMT 44.11448 24.82446 36,050 319 430 0
2017-09-14 04:42:04 GMT 44.10801 24.83217 36,050 319 431 0
2017-09-14 04:42:00 GMT 44.10354 24.83767 36,050 319 431 0
2017-09-14 04:41:55 GMT 44.09619 24.84656 36,050 319 431 0
2017-09-14 04:41:53 GMT 44.09302 24.85062 36,050 319 431 0
2017-09-14 04:41:47 GMT 44.08269 24.86315 36,050 319 431 0
2017-09-14 04:41:42 GMT 44.07733 24.86953 36,050 319 430 0
2017-09-14 04:41:37 GMT 44.06854 24.88044 36,050 319 430 0
2017-09-14 04:41:35 GMT 44.06691 24.88240 36,050 319 430 0
2017-09-14 04:41:33 GMT 44.06169 24.88868 36,050 319 430 0
2017-09-14 04:41:26 GMT 44.05110 24.90141 36,050 319 430 0
2017-09-14 04:41:21 GMT 44.04605 24.90784 36,050 319 430 0
2017-09-14 04:41:12 GMT 44.03068 24.92651 36,050 319 430 0
2017-09-14 04:41:01 GMT 44.01512 24.94529 36,050 319 430 0
2017-09-14 04:40:53 GMT 44.00374 24.95924 36,050 319 430 0
2017-09-14 04:40:51 GMT 43.99896 24.96509 36,050 319 430 0
2017-09-14 04:40:39 GMT 43.98316 24.98409 36,050 319 430 0
2017-09-14 04:40:33 GMT 43.97209 24.99747 36,050 319 430 0
2017-09-14 04:40:30 GMT 43.96770 25.00286 36,050 319 430 0
2017-09-14 04:40:21 GMT 43.95580 25.01734 36,050 319 430 -64
2017-09-14 04:40:19 GMT 43.95234 25.02149 36,050 319 430 -64
2017-09-14 04:40:12 GMT 43.93842 25.03843 36,050 319 430 64
2017-09-14 04:40:08 GMT 43.93693 25.04013 36,050 319 430 64
2017-09-14 04:39:59 GMT 43.92134 25.05923 36,050 319 429 64
2017-09-14 04:39:50 GMT 43.90830 25.07492 36,050 319 430 0
2017-09-14 04:39:47 GMT 43.90537 25.07845 36,050 319 430 0
2017-09-14 04:39:40 GMT 43.89331 25.09309 36,050 319 430 0
2017-09-14 04:39:38 GMT 43.89024 25.09680 36,050 319 430 0
2017-09-14 04:39:30 GMT 43.87743 25.11232 36,050 319 430 0
2017-09-14 04:39:27 GMT 43.87381 25.11664 36,050 319 430 0
2017-09-14 04:39:19 GMT 43.86175 25.13129 36,050 319 430 0
2017-09-14 04:39:16 GMT 43.85863 25.13489 36,050 319 430 0
2017-09-14 04:39:07 GMT 43.84266 25.15411 36,050 319 430 0
2017-09-14 04:38:59 GMT 43.83064 25.16859 36,050 319 430 0
2017-09-14 04:38:55 GMT 43.82716 25.17274 36,050 319 430 0
2017-09-14 04:38:48 GMT 43.81403 25.18865 36,050 319 430 0
2017-09-14 04:38:46 GMT 43.81115 25.19224 36,050 319 430 0
2017-09-14 04:38:44 GMT 43.80938 25.19433 36,050 319 430 0
2017-09-14 04:38:38 GMT 43.79886 25.20676 36,050 319 430 0
2017-09-14 04:38:34 GMT 43.79448 25.21212 36,050 319 430 0
2017-09-14 04:38:25 GMT 43.78020 25.22927 36,050 319 430 64
2017-09-14 04:38:22 GMT 43.77656 25.23363 36,050 319 430 0
2017-09-14 04:38:19 GMT 43.77167 25.23959 36,050 319 430 0
2017-09-14 04:38:16 GMT 43.76599 25.24645 36,050 320 430 0
2017-09-14 04:38:14 GMT 43.76455 25.24809 36,050 320 430 0
2017-09-14 04:38:12 GMT 43.76166 25.25149 36,050 319 430 0
2017-09-14 04:38:05 GMT 43.75118 25.26421 36,050 320 430 0
2017-09-14 04:38:03 GMT 43.74861 25.26715 36,050 320 430 0
2017-09-14 04:38:00 GMT 43.74318 25.27352 36,050 320 430 0
2017-09-14 04:37:54 GMT 43.73364 25.28516 36,050 320 430 0
2017-09-14 04:37:50 GMT 43.72906 25.29053 36,050 319 430 0
2017-09-14 04:37:44 GMT 43.72028 25.30106 36,050 320 430 0
2017-09-14 04:37:42 GMT 43.71725 25.30459 36,050 320 430 0
2017-09-14 04:37:38 GMT 43.71062 25.31250 36,050 319 430 -64
2017-09-14 04:37:33 GMT 43.70115 25.32414 36,050 319 430 0
2017-09-14 04:37:28 GMT 43.69551 25.33064 36,050 319 430 0
2017-09-14 04:37:23 GMT 43.68663 25.34163 36,050 319 430 0
2017-09-14 04:37:18 GMT 43.68071 25.34873 36,050 319 430 0
2017-09-14 04:37:14 GMT 43.67331 25.35766 36,050 319 430 0
2017-09-14 04:37:11 GMT 43.67097 25.36053 36,050 319 431 0
2017-09-14 04:37:07 GMT 43.66301 25.37018 36,050 319 430 0
2017-09-14 04:37:02 GMT 43.65523 25.37970 36,050 318 431 0
2017-09-14 04:36:56 GMT 43.64742 25.38940 36,050 318 431 0
2017-09-14 04:36:53 GMT 43.64218 25.39617 36,050 318 430 0
2017-09-14 04:36:51 GMT 43.64026 25.39876 36,050 317 431 0
2017-09-14 04:36:45 GMT 43.63170 25.40991 36,050 317 431 0
2017-09-14 04:36:41 GMT 43.62447 25.41955 36,050 316 431 64
2017-09-14 04:36:34 GMT 43.61554 25.43169 36,050 315 432 0
2017-09-14 04:36:30 GMT 43.60959 25.44006 36,050 314 432 0
2017-09-14 04:36:25 GMT 43.60339 25.44918 36,050 314 432 -64
2017-09-14 04:36:22 GMT 43.59842 25.45654 36,050 313 432 0
2017-09-14 04:36:20 GMT 43.59631 25.45967 36,050 313 432 0
2017-09-14 04:36:16 GMT 43.58984 25.46932 36,050 313 431 0
2017-09-14 04:36:10 GMT 43.58221 25.48074 36,050 313 431 0
2017-09-14 04:36:05 GMT 43.57504 25.49142 36,050 313 431 0
2017-09-14 04:36:01 GMT 43.57047 25.49822 36,050 313 432 0
2017-09-14 04:35:59 GMT 43.56824 25.50149 36,050 313 431 0
2017-09-14 04:35:49 GMT 43.55423 25.52229 36,050 313 432 0
2017-09-14 04:35:45 GMT 43.54836 25.53098 36,050 313 432 0
2017-09-14 04:35:38 GMT 43.53905 25.54475 36,050 313 432 0
2017-09-14 04:35:35 GMT 43.53383 25.55267 36,050 313 432 0
2017-09-14 04:35:27 GMT 43.52546 25.56486 36,050 313 432 0
2017-09-14 04:35:25 GMT 43.52092 25.57164 36,050 313 432 0
2017-09-14 04:35:18 GMT 43.51135 25.58592 36,050 313 432 0
2017-09-14 04:35:09 GMT 43.49849 25.60491 36,050 313 432 0
2017-09-14 04:35:07 GMT 43.49716 25.60702 36,050 313 432 0
2017-09-14 04:35:05 GMT 43.49240 25.61405 36,050 313 432 0
2017-09-14 04:34:58 GMT 43.48462 25.62555 36,050 313 432 0
2017-09-14 04:34:56 GMT 43.48334 25.62733 36,050 313 432 0
2017-09-14 04:34:46 GMT 43.46880 25.64883 36,050 313 432 0
2017-09-14 04:34:37 GMT 43.45609 25.66773 36,050 313 433 0
2017-09-14 04:34:35 GMT 43.45404 25.67071 36,050 313 433 0
2017-09-14 04:34:26 GMT 43.44059 25.69055 36,050 313 433 0
2017-09-14 04:34:24 GMT 43.43926 25.69255 36,050 313 433 0
2017-09-14 04:34:16 GMT 43.42639 25.71147 36,050 313 433 0
2017-09-14 04:34:11 GMT 43.42155 25.71886 36,050 313 433 0
2017-09-14 04:34:04 GMT 43.41229 25.73233 36,050 313 433 0
2017-09-14 04:34:02 GMT 43.40926 25.73678 36,050 313 433 0
2017-09-14 04:33:55 GMT 43.39806 25.75323 36,050 313 433 0
2017-09-14 04:33:52 GMT 43.39474 25.75843 36,050 313 433 0
2017-09-14 04:33:44 GMT 43.38412 25.77386 36,050 313 433 0
2017-09-14 04:33:39 GMT 43.37764 25.78344 36,050 313 433 0
2017-09-14 04:33:33 GMT 43.36993 25.79485 36,050 313 433 0
2017-09-14 04:33:30 GMT 43.36455 25.80267 36,050 313 433 0
2017-09-14 04:33:24 GMT 43.35578 25.81552 36,050 313 433 0
2017-09-14 04:33:19 GMT 43.34963 25.82454 36,050 313 433 0
2017-09-14 04:33:13 GMT 43.34152 25.83652 36,050 313 433 0
2017-09-14 04:33:08 GMT 43.33450 25.84671 36,050 314 433 0
2017-09-14 04:33:03 GMT 43.32715 25.85747 36,050 314 433 0
2017-09-14 04:33:01 GMT 43.32528 25.86044 36,050 314 433 0
2017-09-14 04:32:57 GMT 43.31982 25.86839 36,050 314 433 0
2017-09-14 04:32:52 GMT 43.31118 25.88104 36,050 314 433 0
2017-09-14 04:32:46 GMT 43.30499 25.89018 36,050 314 433 0
2017-09-14 04:32:41 GMT 43.29881 25.89912 36,050 314 433 0
2017-09-14 04:32:32 GMT 43.28446 25.92002 36,050 314 433 0
2017-09-14 04:32:30 GMT 43.28325 25.92185 36,050 314 433 0
2017-09-14 04:32:27 GMT 43.27692 25.93140 36,050 314 433 0
2017-09-14 04:32:21 GMT 43.27011 25.94121 36,050 314 433 0
2017-09-14 04:32:19 GMT 43.26868 25.94336 36,050 314 433 0
2017-09-14 04:32:10 GMT 43.25355 25.96540 36,050 314 433 0
2017-09-14 04:32:01 GMT 43.24177 25.98267 36,050 314 433 0
2017-09-14 04:31:59 GMT 43.23967 25.98567 36,050 314 433 0
2017-09-14 04:31:49 GMT 43.22557 26.00636 36,050 314 433 0
2017-09-14 04:31:47 GMT 43.22365 26.00917 36,050 314 433 0
2017-09-14 04:31:40 GMT 43.21404 26.02329 36,050 314 432 0
2017-09-14 04:31:37 GMT 43.20965 26.02955 36,050 314 432 0
2017-09-14 04:31:30 GMT 43.19945 26.04433 36,050 314 432 0
2017-09-14 04:31:28 GMT 43.19605 26.04924 36,050 314 432 64
2017-09-14 04:31:26 GMT 43.19463 26.05139 36,050 314 432 64
2017-09-14 04:31:18 GMT 43.18260 26.06905 36,050 314 432 -64
2017-09-14 04:31:15 GMT 43.17984 26.07305 36,050 314 432 -64
2017-09-14 04:31:08 GMT 43.16971 26.08782 36,050 314 432 0
2017-09-14 04:31:06 GMT 43.16840 26.08972 36,050 314 432 0
2017-09-14 04:31:04 GMT 43.16473 26.09502 36,050 314 432 0
2017-09-14 04:30:59 GMT 43.15718 26.10600 36,050 314 432 0
2017-09-14 04:30:56 GMT 43.15237 26.11303 36,050 314 432 0
2017-09-14 04:30:53 GMT 43.14913 26.11777 36,050 314 432 64
2017-09-14 04:30:47 GMT 43.14084 26.12974 36,050 314 432 -64
2017-09-14 04:30:45 GMT 43.13865 26.13294 36,050 314 432 -64
2017-09-14 04:30:42 GMT 43.13423 26.13922 36,050 314 432 0
2017-09-14 04:30:38 GMT 43.12869 26.14733 36,050 314 432 0
2017-09-14 04:30:36 GMT 43.12464 26.15309 36,050 314 432 64
2017-09-14 04:30:31 GMT 43.11983 26.16024 36,050 314 432 0
2017-09-14 04:30:28 GMT 43.11426 26.16845 36,050 314 432 0
2017-09-14 04:30:25 GMT 43.11104 26.17295 36,050 314 432 0
2017-09-14 04:30:20 GMT 43.10417 26.18291 36,050 314 432 0
2017-09-14 04:30:17 GMT 43.09992 26.18899 36,050 314 432 0
2017-09-14 04:30:15 GMT 43.09644 26.19409 36,050 314 432 0
2017-09-14 04:30:12 GMT 43.09305 26.19888 36,050 314 432 0
2017-09-14 04:30:09 GMT 43.08952 26.20425 36,050 314 432 0
2017-09-14 04:30:05 GMT 43.08140 26.21606 36,050 314 432 0
2017-09-14 04:30:01 GMT 43.07725 26.22188 36,050 314 432 -64
2017-09-14 04:29:59 GMT 43.07511 26.22495 36,050 314 432 -64
2017-09-14 04:29:56 GMT 43.07078 26.23143 36,050 314 432 0
2017-09-14 04:29:54 GMT 43.06755 26.23618 36,050 314 432 0
2017-09-14 04:29:50 GMT 43.06352 26.24183 36,050 314 432 0
2017-09-14 04:29:47 GMT 43.05940 26.24774 36,050 314 432 0
2017-09-14 04:29:45 GMT 43.05649 26.25203 36,050 314 432 0
2017-09-14 04:29:42 GMT 43.05299 26.25694 36,050 314 432 0
2017-09-14 04:29:36 GMT 43.04246 26.27221 36,050 314 432 -64
2017-09-14 04:29:33 GMT 43.03844 26.27808 36,050 314 432 0
2017-09-14 04:29:28 GMT 43.03335 26.28551 36,050 314 432 64
2017-09-14 04:29:26 GMT 43.02893 26.29179 36,050 314 432 0
2017-09-14 04:29:24 GMT 43.02690 26.29482 36,050 314 432 0
2017-09-14 04:29:20 GMT 43.02251 26.30120 36,050 314 432 64
2017-09-14 04:29:18 GMT 43.01906 26.30611 36,050 314 432 64
2017-09-14 04:29:16 GMT 43.01601 26.31053 36,050 314 433 -64
2017-09-14 04:29:14 GMT 43.01296 26.31481 36,050 314 433 -128
2017-09-14 04:29:12 GMT 43.00938 26.31984 36,050 314 434 -64
2017-09-14 04:29:05 GMT 42.99998 26.33364 36,050 314 433 64
2017-09-14 04:29:03 GMT 42.99847 26.33570 36,050 314 433 64
2017-09-14 04:28:57 GMT 42.98763 26.35167 36,050 314 434 0
2017-09-14 04:28:54 GMT 42.98474 26.35563 36,050 314 434 64
2017-09-14 04:28:52 GMT 42.98331 26.35751 36,050 314 434 64
2017-09-14 04:28:47 GMT 42.97572 26.36849 36,050 314 433 0
2017-09-14 04:28:45 GMT 42.97247 26.37326 36,050 314 433 0
2017-09-14 04:28:42 GMT 42.96977 26.37715 36,050 314 434 0
2017-09-14 04:28:36 GMT 42.96135 26.38942 36,050 314 433 -64
2017-09-14 04:28:34 GMT 42.95691 26.39580 36,050 314 433 64
2017-09-14 04:28:32 GMT 42.95567 26.39740 36,050 314 433 128
2017-09-14 04:28:23 GMT 42.94235 26.41663 36,050 314 433 0
2017-09-14 04:28:21 GMT 42.94104 26.41846 36,050 314 433 64
2017-09-14 04:28:19 GMT 42.93828 26.42263 36,050 314 433 64
2017-09-14 04:28:15 GMT 42.93031 26.43394 36,050 314 433 0
2017-09-14 04:28:13 GMT 42.92894 26.43605 36,050 314 433 0
2017-09-14 04:28:11 GMT 42.92605 26.44017 36,050 314 433 0
2017-09-14 04:28:05 GMT 42.91753 26.45240 36,050 314 433 0
2017-09-14 04:28:03 GMT 42.91469 26.45645 36,050 314 434 0
2017-09-14 04:27:59 GMT 42.91036 26.46266 36,050 314 434 0
2017-09-14 04:27:54 GMT 42.90299 26.47328 36,050 314 434 0
2017-09-14 04:27:52 GMT 42.90024 26.47712 36,050 314 434 0
2017-09-14 04:27:48 GMT 42.89511 26.48440 36,050 314 434 0
2017-09-14 04:27:45 GMT 42.88983 26.49216 36,050 314 434 0
2017-09-14 04:27:41 GMT 42.88588 26.49778 36,050 314 434 0
2017-09-14 04:27:38 GMT 42.88085 26.50504 36,050 314 434 0
2017-09-14 04:27:32 GMT 42.87135 26.51871 36,050 314 435 0
2017-09-14 04:27:30 GMT 42.87000 26.52041 36,050 314 435 0
2017-09-14 04:27:27 GMT 42.86595 26.52636 36,050 314 435 0
2017-09-14 04:27:24 GMT 42.86110 26.53320 36,050 314 435 0
2017-09-14 04:27:21 GMT 42.85734 26.53859 36,050 314 435 0
2017-09-14 04:27:18 GMT 42.85387 26.54374 36,050 314 435 0
2017-09-14 04:27:16 GMT 42.85078 26.54800 36,050 314 435 0
2017-09-14 04:27:11 GMT 42.84297 26.55938 36,050 314 435 0
2017-09-14 04:27:11 GMT 42.84297 26.55938 36,050 314 435 0
2017-09-14 04:27:08 GMT 42.84000 26.56341 36,050 314 435 0
2017-09-14 04:27:04 GMT 42.83405 26.57197 36,050 314 435 0
2017-09-14 04:26:59 GMT 42.82662 26.58273 36,050 314 435 0
2017-09-14 04:27:00 GMT 42.82783 26.58090 36,050 314 435 0
2017-09-14 04:26:59 GMT 42.82662 26.58273 36,050 314 435 0
2017-09-14 04:26:55 GMT 42.82100 26.59081 36,050 314 435 0
2017-09-14 04:26:53 GMT 42.81828 26.59463 36,050 314 435 -64
2017-09-14 04:26:49 GMT 42.81271 26.60256 36,050 314 435 0
2017-09-14 04:26:44 GMT 42.80432 26.61463 36,050 314 435 0
2017-09-14 04:26:39 GMT 42.79808 26.62358 36,050 314 436 64
2017-09-14 04:26:35 GMT 42.79319 26.63035 36,050 314 437 -64
2017-09-14 04:26:33 GMT 42.78937 26.63610 36,050 314 437 -64
2017-09-14 04:26:29 GMT 42.78493 26.64241 36,050 314 437 0
2017-09-14 04:26:29 GMT 42.78415 26.64347 36,050 314 437 0
2017-09-14 04:26:22 GMT 42.77527 26.65609 36,050 314 437 0
2017-09-14 04:26:18 GMT 42.76875 26.66548 36,050 314 437 0
2017-09-14 04:26:11 GMT 42.76007 26.67768 36,050 314 437 0
2017-09-14 04:26:08 GMT 42.75465 26.68566 36,050 314 437 0
2017-09-14 04:26:00 GMT 42.74542 26.69852 36,050 314 437 0
2017-09-14 04:25:58 GMT 42.74204 26.70339 36,050 314 437 64
2017-09-14 04:25:56 GMT 42.73989 26.70649 36,050 314 437 64
2017-09-14 04:25:56 GMT 42.73989 26.70649 36,050 314 437 64
2017-09-14 04:25:49 GMT 42.72986 26.72087 36,050 314 437 0
2017-09-14 04:25:47 GMT 42.72499 26.72756 36,050 314 437 0
2017-09-14 04:25:44 GMT 42.72239 26.73133 36,050 314 437 0
2017-09-14 04:25:41 GMT 42.71657 26.73970 36,050 314 437 -64
2017-09-14 04:25:38 GMT 42.71297 26.74472 36,050 314 438 0
2017-09-14 04:25:36 GMT 42.70908 26.75034 36,050 314 439 64
2017-09-14 04:25:28 GMT 42.69992 26.76344 36,050 314 439 0
2017-09-14 04:25:26 GMT 42.69566 26.76938 36,050 314 439 -64
2017-09-14 04:25:24 GMT 42.69511 26.77031 36,050 314 439 -64
2017-09-14 04:25:17 GMT 42.68468 26.78504 36,075 314 439 0
2017-09-14 04:25:15 GMT 42.68058 26.79080 36,075 314 439 0
2017-09-14 04:25:13 GMT 42.67909 26.79303 36,050 314 439 0
2017-09-14 04:25:07 GMT 42.66934 26.80670 36,050 314 439 64
2017-09-14 04:25:05 GMT 42.66643 26.81105 36,050 314 439 64
2017-09-14 04:24:58 GMT 42.65689 26.82446 36,050 314 439 0
2017-09-14 04:24:55 GMT 42.65409 26.82855 36,050 314 439 0
2017-09-14 04:24:53 GMT 42.64984 26.83461 36,050 314 439 -64
2017-09-14 04:24:51 GMT 42.64706 26.83845 36,050 314 439 0
2017-09-14 04:24:45 GMT 42.63922 26.84952 36,050 314 439 0
2017-09-14 04:24:42 GMT 42.63580 26.85429 36,050 314 439 0
2017-09-14 04:24:39 GMT 42.63167 26.86032 36,050 314 439 0
2017-09-14 04:24:35 GMT 42.62517 26.86944 36,050 314 439 0
2017-09-14 04:24:33 GMT 42.62169 26.87428 36,050 314 439 0
2017-09-14 04:24:25 GMT 42.61122 26.88917 36,050 314 441 0
2017-09-14 04:24:22 GMT 42.60703 26.89517 36,050 314 441 0
2017-09-14 04:24:13 GMT 42.59376 26.91370 36,050 314 441 0
2017-09-14 04:24:11 GMT 42.59056 26.91844 36,050 314 441 0
2017-09-14 04:24:08 GMT 42.58758 26.92262 36,050 314 441 0
2017-09-14 04:24:05 GMT 42.58182 26.93067 36,050 314 442 0
2017-09-14 04:24:01 GMT 42.57617 26.93873 36,050 314 442 0
2017-09-14 04:23:59 GMT 42.57408 26.94160 36,050 314 442 0
2017-09-14 04:23:53 GMT 42.56712 26.95134 36,050 314 442 0
2017-09-14 04:23:51 GMT 42.56342 26.95677 36,050 314 442 0
2017-09-14 04:23:49 GMT 42.55843 26.96363 36,050 314 442 0
2017-09-14 04:23:44 GMT 42.55325 26.97087 36,050 314 442 0
2017-09-14 04:23:40 GMT 42.54646 26.98063 36,050 314 443 0
2017-09-14 04:23:37 GMT 42.54409 26.98383 36,050 314 443 0
2017-09-14 04:23:34 GMT 42.53769 26.99297 36,050 314 443 64
2017-09-14 04:23:28 GMT 42.53119 27.00197 36,050 314 443 0
2017-09-14 04:23:26 GMT 42.52849 27.00580 36,050 314 443 -64
2017-09-14 04:23:19 GMT 42.51849 27.01992 36,050 314 443 -64
2017-09-14 04:23:17 GMT 42.51364 27.02681 36,050 314 444 0
2017-09-14 04:23:12 GMT 42.50755 27.03525 36,050 314 444 0
2017-09-14 04:23:08 GMT 42.50166 27.04360 36,050 314 444 0
2017-09-14 04:23:06 GMT 42.49896 27.04747 36,050 314 444 64
2017-09-14 04:23:03 GMT 42.49365 27.05477 36,050 314 444 0
2017-09-14 04:22:58 GMT 42.48688 27.06444 36,050 314 444 0
2017-09-14 04:22:55 GMT 42.48317 27.06975 36,050 314 444 64
2017-09-14 04:22:51 GMT 42.47882 27.07581 36,050 314 444 0
2017-09-14 04:22:48 GMT 42.47193 27.08532 36,050 314 445 0
2017-09-14 04:22:44 GMT 42.46695 27.09235 36,050 314 445 0
2017-09-14 04:22:41 GMT 42.46417 27.09634 36,050 314 445 0
2017-09-14 04:22:35 GMT 42.45479 27.10945 36,050 314 445 0
2017-09-14 04:22:32 GMT 42.44984 27.11625 36,050 314 445 0
2017-09-14 04:22:27 GMT 42.44270 27.12639 36,050 314 445 0
2017-09-14 04:22:23 GMT 42.43762 27.13348 36,050 314 445 0
2017-09-14 04:22:20 GMT 42.43427 27.13821 36,050 314 445 0
2017-09-14 04:22:15 GMT 42.42719 27.14828 36,050 314 445 0
2017-09-14 04:22:13 GMT 42.42422 27.15233 36,050 314 445 0
2017-09-14 04:22:11 GMT 42.41896 27.15954 36,050 314 445 0
2017-09-14 04:22:06 GMT 42.41203 27.16938 36,050 314 445 0
2017-09-14 04:22:01 GMT 42.40535 27.17874 36,050 315 446 0
2017-09-14 04:21:55 GMT 42.39717 27.19008 36,050 315 446 0
2017-09-14 04:21:52 GMT 42.39230 27.19691 36,050 314 446 64
2017-09-14 04:21:49 GMT 42.39019 27.19985 36,050 314 446 64
2017-09-14 04:21:45 GMT 42.38223 27.21101 36,050 314 446 0
2017-09-14 04:21:41 GMT 42.37715 27.21825 36,050 314 446 0
2017-09-14 04:21:39 GMT 42.37441 27.22201 36,050 314 446 0
2017-09-14 04:21:37 GMT 42.37129 27.22648 36,050 314 446 0
2017-09-14 04:21:33 GMT 42.36676 27.23261 36,050 315 446 0
2017-09-14 04:21:30 GMT 42.35988 27.24233 36,050 314 446 -64
2017-09-14 04:21:28 GMT 42.35907 27.24329 36,050 315 446 -64
2017-09-14 04:21:24 GMT 42.35234 27.25274 36,050 315 446 0
2017-09-14 04:21:18 GMT 42.34461 27.26347 36,050 315 446 0
2017-09-14 04:21:13 GMT 42.33665 27.27445 36,050 315 446 64
2017-09-14 04:21:09 GMT 42.33037 27.28352 36,050 315 447 64
2017-09-14 04:21:03 GMT 42.32208 27.29489 36,050 315 447 0
2017-09-14 04:20:59 GMT 42.31627 27.30296 36,050 315 447 0
2017-09-14 04:20:57 GMT 42.31480 27.30514 36,050 315 447 0
2017-09-14 04:20:51 GMT 42.30639 27.31680 36,050 315 447 0
2017-09-14 04:20:47 GMT 42.30029 27.32531 36,050 315 447 -64
2017-09-14 04:20:41 GMT 42.29059 27.33879 36,050 315 447 0
2017-09-14 04:20:37 GMT 42.28470 27.34695 36,050 315 447 0
2017-09-14 04:20:34 GMT 42.28038 27.35296 36,050 315 447 0
2017-09-14 04:20:31 GMT 42.27681 27.35796 36,050 315 447 0
2017-09-14 04:20:26 GMT 42.27026 27.36713 36,050 315 447 0
2017-09-14 04:20:21 GMT 42.26166 27.37905 36,050 315 448 0
2017-09-14 04:20:17 GMT 42.25588 27.38713 36,050 315 448 0
2017-09-14 04:20:15 GMT 42.25452 27.38910 36,050 315 448 0
2017-09-14 04:20:11 GMT 42.24658 27.40009 36,050 315 448 0
2017-09-14 04:20:06 GMT 42.23932 27.41002 36,050 315 448 0
2017-09-14 04:20:00 GMT 42.23094 27.42169 36,050 315 448 0
2017-09-14 04:19:54 GMT 42.22334 27.43224 36,050 315 448 0
2017-09-14 04:19:49 GMT 42.21571 27.44283 36,050 315 448 0
2017-09-14 04:19:46 GMT 42.21066 27.44996 36,050 315 448 0
2017-09-14 04:19:43 GMT 42.20796 27.45371 36,050 315 448 0
2017-09-14 04:19:39 GMT 42.20000 27.46457 36,050 315 448 -64
2017-09-14 04:19:33 GMT 42.19346 27.47368 36,050 315 449 0
2017-09-14 04:19:27 GMT 42.18516 27.48511 36,050 315 449 0
2017-09-14 04:19:25 GMT 42.18075 27.49137 36,050 315 449 0
2017-09-14 04:19:23 GMT 42.17807 27.49510 36,050 315 449 0
2017-09-14 04:19:18 GMT 42.17018 27.50600 36,050 315 449 0
2017-09-14 04:19:13 GMT 42.16260 27.51638 36,050 315 449 0
2017-09-14 04:19:07 GMT 42.15431 27.52774 36,050 315 449 64
2017-09-14 04:19:03 GMT 42.14961 27.53436 36,050 315 449 0
2017-09-14 04:19:01 GMT 42.14602 27.53921 36,050 315 449 -64
2017-09-14 04:18:57 GMT 42.13936 27.54847 36,050 315 449 0
2017-09-14 04:18:54 GMT 42.13490 27.55473 36,050 315 449 0
2017-09-14 04:18:50 GMT 42.13069 27.56058 36,050 315 449 0
2017-09-14 04:18:46 GMT 42.12442 27.56913 36,050 315 449 0
2017-09-14 04:18:42 GMT 42.11986 27.57543 36,050 315 449 0
2017-09-14 04:18:39 GMT 42.11520 27.58175 36,050 315 449 0
2017-09-14 04:18:35 GMT 42.10854 27.59098 36,050 315 449 0
2017-09-14 04:18:28 GMT 42.09947 27.60352 36,050 315 449 0
2017-09-14 04:18:24 GMT 42.09374 27.61152 36,050 315 449 0
2017-09-14 04:18:20 GMT 42.08578 27.62238 36,050 315 449 0
2017-09-14 04:18:17 GMT 42.08290 27.62631 36,050 315 449 0
2017-09-14 04:18:15 GMT 42.07841 27.63230 36,050 315 449 0
2017-09-14 04:18:08 GMT 42.06967 27.64460 36,050 315 450 0
2017-09-14 04:18:06 GMT 42.06665 27.64869 36,050 315 450 0
2017-09-14 04:18:03 GMT 42.06331 27.65340 36,050 315 450 0
2017-09-14 04:18:01 GMT 42.05822 27.66019 36,050 315 450 0
2017-09-14 04:17:57 GMT 42.05301 27.66726 36,050 315 450 0
2017-09-14 04:17:55 GMT 42.05072 27.67050 36,050 315 450 0
2017-09-14 04:17:53 GMT 42.04706 27.67550 36,050 315 450 0
2017-09-14 04:17:51 GMT 42.04454 27.67899 36,050 315 450 0
2017-09-14 04:17:47 GMT 42.03950 27.68580 36,050 315 450 0
2017-09-14 04:17:44 GMT 42.03296 27.69472 36,050 315 449 0
2017-09-14 04:17:41 GMT 42.02913 27.69998 36,050 315 450 0
2017-09-14 04:17:37 GMT 42.02403 27.70708 36,050 315 449 64
2017-09-14 04:17:33 GMT 42.01777 27.71550 36,050 315 449 0
2017-09-14 04:17:31 GMT 42.01419 27.72050 36,050 315 450 0
2017-09-14 04:17:27 GMT 42.00865 27.72762 36,050 316 450 0
2017-09-14 04:17:23 GMT 42.00188 27.73617 36,050 318 451 0
2017-09-14 04:17:18 GMT 41.99608 27.74335 36,050 318 451 0
2017-09-14 04:17:15 GMT 41.99144 27.74884 36,050 320 452 0
2017-09-14 04:17:12 GMT 41.98599 27.75496 36,050 320 453 0
2017-09-14 04:17:05 GMT 41.97452 27.76769 36,050 322 454 0
2017-09-14 04:17:03 GMT 41.97131 27.77107 36,050 323 454 0
2017-09-14 04:17:01 GMT 41.96745 27.77529 36,050 323 455 0
2017-09-14 04:16:55 GMT 41.95609 27.78634 36,050 325 456 0
2017-09-14 04:16:49 GMT 41.94878 27.79330 36,050 326 456 -64
2017-09-14 04:16:43 GMT 41.93742 27.80334 36,050 328 457 0
2017-09-14 04:16:41 GMT 41.93198 27.80808 36,050 328 457 64
2017-09-14 04:16:38 GMT 41.92822 27.81133 36,050 328 458 64
2017-09-14 04:16:33 GMT 41.91870 27.81944 36,050 328 458 -64
2017-09-14 04:16:29 GMT 41.91317 27.82435 36,050 328 458 0
2017-09-14 04:16:26 GMT 41.90684 27.82993 36,050 328 458 64
2017-09-14 04:16:22 GMT 41.89836 27.83725 36,050 328 458 64
2017-09-14 04:16:20 GMT 41.89473 27.84031 36,050 328 458 0
2017-09-14 04:16:18 GMT 41.89199 27.84261 36,050 328 458 -64
2017-09-14 04:16:12 GMT 41.88142 27.85181 36,050 328 458 0
2017-09-14 04:16:10 GMT 41.87625 27.85622 36,050 328 458 0
2017-09-14 04:16:07 GMT 41.87256 27.85939 36,050 328 458 0
2017-09-14 04:15:59 GMT 41.85833 27.87174 36,050 328 458 0
2017-09-14 04:15:56 GMT 41.85302 27.87640 36,050 328 458 -64
2017-09-14 04:15:49 GMT 41.83971 27.88784 36,050 328 458 0
2017-09-14 04:15:45 GMT 41.83415 27.89266 36,050 328 458 0
2017-09-14 04:15:37 GMT 41.82086 27.90412 36,050 328 457 64
2017-09-14 04:15:34 GMT 41.81447 27.90964 36,050 328 457 0
2017-09-14 04:15:29 GMT 41.80335 27.91926 36,050 328 457 0
2017-09-14 04:15:27 GMT 41.80179 27.92057 36,050 328 457 0
2017-09-14 04:15:23 GMT 41.79520 27.92635 36,050 328 457 0
2017-09-14 04:15:20 GMT 41.79041 27.93044 36,050 328 457 0
2017-09-14 04:15:18 GMT 41.78407 27.93574 36,050 328 457 0
2017-09-14 04:15:11 GMT 41.77396 27.94448 36,050 328 457 0
2017-09-14 04:15:06 GMT 41.76574 27.95152 36,050 328 457 -64
2017-09-14 04:15:02 GMT 41.75734 27.95883 36,050 328 457 0
2017-09-14 04:14:57 GMT 41.74618 27.96844 36,050 328 457 0
2017-09-14 04:14:52 GMT 41.73857 27.97506 36,050 328 457 0
2017-09-14 04:14:50 GMT 41.73678 27.97649 36,050 328 457 0
2017-09-14 04:14:46 GMT 41.72766 27.98429 36,050 328 457 0
2017-09-14 04:14:45 GMT 41.72594 27.98580 36,050 328 457 0
2017-09-14 04:14:43 GMT 41.72426 27.98735 36,050 328 457 0
2017-09-14 04:14:40 GMT 41.71838 27.99254 36,050 328 456 0
2017-09-14 04:14:35 GMT 41.70873 28.00078 36,050 328 456 0
2017-09-14 04:14:32 GMT 41.70424 28.00459 36,050 328 456 0
2017-09-14 04:14:29 GMT 41.69842 28.00952 36,050 328 456 0
2017-09-14 04:14:25 GMT 41.69105 28.01589 36,050 328 456 0
2017-09-14 04:14:18 GMT 41.67892 28.02612 36,050 328 456 -64
2017-09-14 04:14:15 GMT 41.67142 28.03277 36,050 328 456 0
2017-09-14 04:14:03 GMT 41.65347 28.04810 36,050 328 456 0
2017-09-14 04:13:56 GMT 41.64028 28.05915 36,050 328 456 0
2017-09-14 04:13:54 GMT 41.63404 28.06483 36,050 328 457 -64
2017-09-14 04:13:46 GMT 41.62257 28.07456 36,050 328 456 0
2017-09-14 04:13:43 GMT 41.61562 28.08056 36,050 328 456 0
2017-09-14 04:13:35 GMT 41.60289 28.09154 36,050 328 456 64
2017-09-14 04:13:32 GMT 41.59602 28.09735 36,050 328 457 0
2017-09-14 04:13:31 GMT 41.59534 28.09785 36,050 328 457 0
2017-09-14 04:13:25 GMT 41.58400 28.10763 36,050 328 457 0
2017-09-14 04:13:23 GMT 41.58046 28.11069 36,050 328 457 0
2017-09-14 04:13:21 GMT 41.57669 28.11376 36,050 328 457 0
2017-09-14 04:13:13 GMT 41.56265 28.12575 36,050 328 456 0
2017-09-14 04:13:11 GMT 41.55899 28.12887 36,050 328 456 0
2017-09-14 04:13:03 GMT 41.54531 28.14052 36,050 328 456 0
2017-09-14 04:13:01 GMT 41.54075 28.14442 36,050 328 456 0
2017-09-14 04:12:53 GMT 41.52681 28.15627 36,050 328 456 0
2017-09-14 04:12:51 GMT 41.52194 28.16032 36,050 328 456 0
2017-09-14 04:12:51 GMT 41.52194 28.16032 36,050 328 456 0
2017-09-14 04:12:40 GMT 41.50360 28.17587 36,050 328 456 0
2017-09-14 04:12:30 GMT 41.48624 28.19054 36,050 328 457 0
2017-09-14 04:12:28 GMT 41.48355 28.19298 36,050 328 457 0
2017-09-14 04:12:24 GMT 41.47540 28.19978 36,050 328 457 0
2017-09-14 04:12:20 GMT 41.46872 28.20528 36,050 328 457 0
2017-09-14 04:12:18 GMT 41.46399 28.20931 36,050 328 456 0
2017-09-14 04:12:13 GMT 41.45649 28.21557 36,050 328 456 0
2017-09-14 04:12:09 GMT 41.44918 28.22190 36,050 328 457 -64
2017-09-14 04:12:07 GMT 41.44624 28.22431 36,050 328 457 -64
2017-09-14 04:11:57 GMT 41.42721 28.24029 36,050 328 457 0
2017-09-14 04:11:49 GMT 41.41213 28.25294 36,050 328 456 0
2017-09-14 04:11:47 GMT 41.40756 28.25677 36,050 328 457 0
2017-09-14 04:11:38 GMT 41.39243 28.26955 36,050 328 457 0
2017-09-14 04:11:35 GMT 41.38811 28.27313 36,050 328 456 0
2017-09-14 04:11:28 GMT 41.37351 28.28552 36,050 328 456 0
2017-09-14 04:11:25 GMT 41.36993 28.28863 36,050 328 457 0
2017-09-14 04:11:22 GMT 41.36525 28.29260 36,050 327 456 0
2017-09-14 04:11:17 GMT 41.35580 28.30084 36,050 327 456 0
2017-09-14 04:11:15 GMT 41.35128 28.30484 36,050 327 455 -64
2017-09-14 04:11:07 GMT 41.33670 28.31769 36,050 326 455 0
2017-09-14 04:11:05 GMT 41.33482 28.31940 36,050 326 454 0
2017-09-14 04:11:03 GMT 41.33220 28.32182 36,050 326 454 0
2017-09-14 04:10:58 GMT 41.32247 28.33099 36,050 324 453 0
2017-09-14 04:10:53 GMT 41.31459 28.33887 36,050 323 452 0
2017-09-14 04:10:46 GMT 41.30189 28.35228 36,050 321 449 0
2017-09-14 04:10:43 GMT 41.29678 28.35803 36,050 320 448 0
2017-09-14 04:10:38 GMT 41.28923 28.36695 36,050 317 446 0
2017-09-14 04:10:33 GMT 41.28259 28.37512 36,050 317 445 0
2017-09-14 04:10:31 GMT 41.28021 28.37799 36,050 316 445 0
2017-09-14 04:10:25 GMT 41.27033 28.39136 36,050 314 443 0
2017-09-14 04:10:20 GMT 41.26479 28.39905 36,050 314 442 0
2017-09-14 04:10:18 GMT 41.26190 28.40315 36,050 314 442 0
2017-09-14 04:10:13 GMT 41.25403 28.41431 36,050 314 442 0
2017-09-14 04:10:11 GMT 41.25045 28.41938 36,050 314 442 0
2017-09-14 04:10:06 GMT 41.24487 28.42706 36,050 314 442 0
2017-09-14 04:10:03 GMT 41.23943 28.43494 36,050 314 442 0
2017-09-14 04:10:00 GMT 41.23565 28.44023 36,050 314 442 0
2017-09-14 04:09:52 GMT 41.22550 28.45446 36,050 314 442 0
2017-09-14 04:09:48 GMT 41.21991 28.46227 36,050 314 442 0
2017-09-14 04:09:42 GMT 41.20939 28.47687 36,050 314 442 0
2017-09-14 04:09:39 GMT 41.20638 28.48102 36,050 314 442 0
2017-09-14 04:09:36 GMT 41.20152 28.48805 36,050 314 442 0
2017-09-14 04:09:32 GMT 41.19650 28.49504 36,050 314 443 0
2017-09-14 04:09:29 GMT 41.19182 28.50153 36,050 314 443 0
2017-09-14 04:09:27 GMT 41.19035 28.50372 36,050 314 443 0
2017-09-14 04:09:21 GMT 41.18175 28.51562 36,050 314 443 0
2017-09-14 04:09:16 GMT 41.17466 28.52556 36,050 314 443 0
2017-09-14 04:09:12 GMT 41.16660 28.53668 36,050 314 443 0
2017-09-14 04:09:07 GMT 41.15964 28.54639 36,050 314 443 0
2017-09-14 04:09:02 GMT 41.15465 28.55365 36,050 314 443 0
2017-09-14 04:08:59 GMT 41.15039 28.55926 36,050 314 443 0
2017-09-14 04:08:55 GMT 41.14417 28.56811 36,050 314 443 0
2017-09-14 04:08:51 GMT 41.13765 28.57731 36,050 314 443 0
2017-09-14 04:08:49 GMT 41.13616 28.57918 36,050 314 443 0
2017-09-14 04:08:44 GMT 41.12886 28.58942 36,050 314 443 0
2017-09-14 04:08:40 GMT 41.12270 28.59802 36,050 314 444 0
2017-09-14 04:08:35 GMT 41.11489 28.60902 36,050 314 444 0
2017-09-14 04:08:30 GMT 41.10842 28.61807 36,050 314 444 0
2017-09-14 04:08:23 GMT 41.09874 28.63156 36,050 314 444 0
2017-09-14 04:08:19 GMT 41.09226 28.64056 36,050 314 444 0
2017-09-14 04:08:13 GMT 41.08493 28.65082 36,050 314 444 0
2017-09-14 04:08:07 GMT 41.07690 28.66177 36,050 314 444 0
2017-09-14 04:08:02 GMT 41.06882 28.67297 36,050 314 444 0
2017-09-14 04:08:00 GMT 41.06578 28.67719 36,050 314 444 0
2017-09-14 04:07:58 GMT 41.06273 28.68164 36,050 314 444 0
2017-09-14 04:07:51 GMT 41.05302 28.69492 36,050 314 444 0
2017-09-14 04:07:47 GMT 41.04855 28.70097 36,050 314 444 0
2017-09-14 04:07:41 GMT 41.03878 28.71452 36,050 314 444 0
2017-09-14 04:07:38 GMT 41.03435 28.72052 36,050 314 444 0
2017-09-14 04:07:34 GMT 41.02963 28.72705 36,050 314 444 0
2017-09-14 04:07:29 GMT 41.02300 28.73630 36,050 314 444 0
2017-09-14 04:07:27 GMT 41.01865 28.74225 36,050 314 444 0
2017-09-14 04:07:21 GMT 41.01098 28.75284 36,050 314 444 0
2017-09-14 04:07:19 GMT 41.00757 28.75775 36,050 315 444 0
2017-09-14 04:07:16 GMT 41.00478 28.76141 36,050 315 444 0
2017-09-14 04:07:10 GMT 40.99311 28.77638 36,050 318 447 0
2017-09-14 04:07:07 GMT 40.98843 28.78204 36,050 318 448 0
2017-09-14 04:06:59 GMT 40.97758 28.79450 36,050 321 449 0
2017-09-14 04:06:57 GMT 40.97530 28.79694 36,050 321 450 0
2017-09-14 04:06:55 GMT 40.97188 28.80060 36,050 321 450 0
2017-09-14 04:06:47 GMT 40.95796 28.81483 36,050 324 452 0
2017-09-14 04:06:45 GMT 40.95538 28.81726 36,050 325 454 0
2017-09-14 04:06:37 GMT 40.94120 28.83025 36,050 327 456 0
2017-09-14 04:06:35 GMT 40.93483 28.83562 36,050 328 457 0
2017-09-14 04:06:31 GMT 40.93066 28.83911 36,050 328 457 0
2017-09-14 04:06:27 GMT 40.92261 28.84576 36,050 329 457 0
2017-09-14 04:06:24 GMT 40.91872 28.84904 36,050 329 457 0
2017-09-14 04:06:19 GMT 40.90904 28.85690 36,050 329 457 0
2017-09-14 04:06:17 GMT 40.90387 28.86127 36,050 329 457 0
2017-09-14 04:06:15 GMT 40.89922 28.86505 36,050 329 457 0
2017-09-14 04:06:06 GMT 40.88457 28.87714 36,050 328 457 0
2017-09-14 04:06:03 GMT 40.88083 28.88019 36,050 328 457 0
2017-09-14 04:05:55 GMT 40.86416 28.89379 36,050 329 458 0
2017-09-14 04:05:46 GMT 40.84824 28.90690 36,050 329 458 0
2017-09-14 04:05:44 GMT 40.84619 28.90846 36,050 329 458 0
2017-09-14 04:05:38 GMT 40.83316 28.91926 36,050 329 458 0
2017-09-14 04:05:36 GMT 40.83139 28.92070 36,050 329 458 0
2017-09-14 04:05:32 GMT 40.82426 28.92663 36,050 329 458 0
2017-09-14 04:05:26 GMT 40.81342 28.93543 36,050 329 459 0
2017-09-14 04:05:23 GMT 40.80699 28.94067 36,050 329 458 0
2017-09-14 04:05:12 GMT 40.78819 28.95622 36,050 329 459 0
2017-09-14 04:05:09 GMT 40.78198 28.96118 36,050 329 459 0
2017-09-14 04:05:03 GMT 40.77008 28.97101 36,050 329 459 0
2017-09-14 04:04:58 GMT 40.76207 28.97748 36,050 329 459 0
2017-09-14 04:04:49 GMT 40.74634 28.99030 36,050 329 459 0
2017-09-14 04:04:44 GMT 40.73730 28.99780 36,050 329 460 0
2017-09-14 04:04:40 GMT 40.73032 29.00341 36,050 329 460 0
2017-09-14 04:04:31 GMT 40.71162 29.01868 36,050 329 460 0
2017-09-14 04:04:19 GMT 40.69185 29.03485 36,050 329 461 0
2017-09-14 04:04:09 GMT 40.67386 29.04956 36,050 329 461 0
2017-09-14 04:03:58 GMT 40.65388 29.06583 36,050 329 461 0
2017-09-14 04:03:48 GMT 40.63564 29.08063 36,050 329 462 0
2017-09-14 04:03:35 GMT 40.61087 29.10072 36,050 329 462 0
2017-09-14 04:03:25 GMT 40.59346 29.11471 36,050 329 462 0
2017-09-14 04:03:20 GMT 40.58512 29.12145 36,050 329 462 0
2017-09-14 04:03:15 GMT 40.57420 29.13037 36,050 329 462 0
2017-09-14 04:03:09 GMT 40.56492 29.13774 36,050 329 462 0
2017-09-14 04:03:05 GMT 40.55782 29.14362 36,050 329 462 0
2017-09-14 04:02:59 GMT 40.54610 29.15308 36,050 329 462 0
2017-09-14 04:02:52 GMT 40.53360 29.16321 36,050 329 462 0
2017-09-14 04:02:45 GMT 40.51818 29.17557 36,050 329 462 0
2017-09-14 04:02:34 GMT 40.50009 29.19031 36,050 328 462 0
2017-09-14 04:02:23 GMT 40.48099 29.20603 36,050 328 463 0
2017-09-14 04:02:18 GMT 40.47144 29.21405 36,050 328 463 0
2017-09-14 04:02:12 GMT 40.46171 29.22201 36,050 328 463 0
2017-09-14 04:02:04 GMT 40.44690 29.23413 36,050 328 463 0
2017-09-14 04:01:54 GMT 40.42905 29.24884 36,050 328 463 0
2017-09-14 04:01:51 GMT 40.42365 29.25342 36,050 328 463 0
2017-09-14 04:01:41 GMT 40.40390 29.26958 36,050 328 463 0
2017-09-14 04:01:30 GMT 40.38309 29.28662 36,050 328 464 0
2017-09-14 04:01:26 GMT 40.37722 29.29142 36,050 328 464 0
2017-09-14 04:01:18 GMT 40.36242 29.30372 36,050 328 464 0
2017-09-14 04:01:13 GMT 40.35399 29.31059 36,050 328 464 64
2017-09-14 04:01:09 GMT 40.34633 29.31683 36,050 328 464 0
2017-09-14 04:01:01 GMT 40.33221 29.32844 36,050 328 464 0
2017-09-14 04:00:58 GMT 40.32671 29.33287 36,050 328 464 0
2017-09-14 04:00:48 GMT 40.30783 29.34845 36,050 328 464 0
2017-09-14 04:00:38 GMT 40.28828 29.36444 36,050 328 464 0
2017-09-14 04:00:33 GMT 40.28091 29.37039 36,050 328 464 0
2017-09-14 04:00:26 GMT 40.26820 29.38075 36,050 328 463 0
2017-09-14 04:00:15 GMT 40.24818 29.39728 36,050 328 463 0
2017-09-14 04:00:06 GMT 40.22989 29.41215 36,050 328 463 0
2017-09-14 04:00:02 GMT 40.22453 29.41645 36,050 328 463 0
2017-09-14 03:59:56 GMT 40.21170 29.42706 36,050 328 462 0
2017-09-14 03:59:54 GMT 40.20987 29.42859 36,050 328 462 0
2017-09-14 03:59:51 GMT 40.20451 29.43292 36,050 328 462 0
2017-09-14 03:59:47 GMT 40.19710 29.43896 36,050 328 462 64
2017-09-14 03:59:43 GMT 40.19000 29.44482 36,050 328 462 0
2017-09-14 03:59:37 GMT 40.17933 29.45347 36,050 328 462 0
2017-09-14 03:59:34 GMT 40.17211 29.45928 36,050 328 462 0
2017-09-14 03:59:25 GMT 40.15672 29.47199 36,050 328 462 0
2017-09-14 03:59:23 GMT 40.15306 29.47491 36,050 328 462 0
2017-09-14 03:59:13 GMT 40.13594 29.48895 36,050 328 462 0
2017-09-14 03:59:11 GMT 40.13050 29.49336 36,050 328 462 0
2017-09-14 03:59:01 GMT 40.11444 29.50628 36,050 328 462 0
2017-09-14 03:58:51 GMT 40.09526 29.52207 36,050 328 462 0
2017-09-14 03:58:49 GMT 40.09241 29.52423 36,050 328 462 0
2017-09-14 03:58:36 GMT 40.06886 29.54349 36,050 328 461 0
2017-09-14 03:58:33 GMT 40.06360 29.54767 36,050 329 460 0
2017-09-14 03:58:30 GMT 40.05718 29.55297 36,050 329 460 0
2017-09-14 03:58:19 GMT 40.03599 29.57001 36,050 329 460 0
2017-09-14 03:58:08 GMT 40.01683 29.58575 36,050 328 460 0
2017-09-14 03:57:55 GMT 39.99161 29.60614 36,050 329 459 0
2017-09-14 03:57:52 GMT 39.98767 29.60921 36,050 329 459 0
2017-09-14 03:57:46 GMT 39.97801 29.61719 36,050 329 459 0
2017-09-14 03:57:43 GMT 39.97009 29.62354 36,050 329 459 0
2017-09-14 03:57:39 GMT 39.96431 29.62819 36,050 329 459 0
2017-09-14 03:57:37 GMT 39.96172 29.63037 36,050 329 459 0
2017-09-14 03:57:33 GMT 39.95380 29.63678 36,050 329 458 0
2017-09-14 03:57:28 GMT 39.94492 29.64386 36,050 329 458 0
2017-09-14 03:57:26 GMT 39.94149 29.64667 36,050 329 458 0
2017-09-14 03:57:23 GMT 39.93654 29.65064 36,050 329 458 0
2017-09-14 03:57:15 GMT 39.92239 29.66231 36,050 329 458 0
2017-09-14 03:57:06 GMT 39.90353 29.67742 36,050 329 458 0
2017-09-14 03:57:03 GMT 39.90002 29.68024 36,050 329 458 0
2017-09-14 03:56:57 GMT 39.88922 29.68903 36,050 329 458 0
2017-09-14 03:56:54 GMT 39.88380 29.69336 36,050 329 458 0
2017-09-14 03:56:51 GMT 39.87772 29.69825 36,050 329 458 0
2017-09-14 03:56:48 GMT 39.87314 29.70202 36,050 329 458 0
2017-09-14 03:56:43 GMT 39.86133 29.71157 36,050 329 458 0
2017-09-14 03:56:34 GMT 39.84650 29.72351 36,050 329 458 0
2017-09-14 03:56:23 GMT 39.82796 29.73856 36,050 329 458 0
2017-09-14 03:56:20 GMT 39.82325 29.74225 36,050 329 458 0
2017-09-14 03:56:12 GMT 39.80859 29.75402 36,050 329 458 0
2017-09-14 03:56:08 GMT 39.80196 29.75940 36,050 329 458 0
2017-09-14 03:56:02 GMT 39.78913 29.76965 36,050 329 457 0
2017-09-14 03:55:56 GMT 39.77884 29.77789 36,050 329 457 0
2017-09-14 03:55:51 GMT 39.76991 29.78513 36,050 329 457 0
2017-09-14 03:55:43 GMT 39.75626 29.79614 36,050 329 457 0
2017-09-14 03:55:39 GMT 39.74908 29.80185 36,050 329 457 0
2017-09-14 03:55:31 GMT 39.73466 29.81349 36,050 329 457 0
2017-09-14 03:55:29 GMT 39.73122 29.81622 36,050 329 456 0
2017-09-14 03:55:18 GMT 39.71182 29.83176 36,050 329 457 0
2017-09-14 03:55:07 GMT 39.69205 29.84776 36,050 329 456 0
2017-09-14 03:54:58 GMT 39.67433 29.86180 36,050 329 457 0
2017-09-14 03:54:49 GMT 39.65813 29.87493 36,050 329 457 0
2017-09-14 03:54:47 GMT 39.65469 29.87762 36,050 329 457 0
2017-09-14 03:54:37 GMT 39.63467 29.89362 36,050 329 457 0
2017-09-14 03:54:22 GMT 39.60947 29.91386 36,050 329 457 0
2017-09-14 03:54:15 GMT 39.59743 29.92340 36,050 329 458 0
2017-09-14 03:54:09 GMT 39.58667 29.93213 36,050 329 458 0
2017-09-14 03:54:04 GMT 39.57733 29.93942 36,050 329 458 0
2017-09-14 03:53:57 GMT 39.56497 29.94921 36,050 329 458 0
2017-09-14 03:53:53 GMT 39.55772 29.95508 36,050 329 458 0
2017-09-14 03:53:45 GMT 39.54375 29.96625 36,050 329 458 0
2017-09-14 03:53:43 GMT 39.53760 29.97112 36,050 329 458 0
2017-09-14 03:53:34 GMT 39.52300 29.98276 36,050 329 458 0
2017-09-14 03:53:32 GMT 39.51933 29.98575 36,050 329 457 -64
2017-09-14 03:53:21 GMT 39.49965 30.00127 36,075 329 457 -64
2017-09-14 03:53:15 GMT 39.48770 30.01089 36,075 329 457 -128
2017-09-14 03:53:10 GMT 39.47855 30.01811 36,075 329 457 -128
2017-09-14 03:53:05 GMT 39.47086 30.02420 36,075 329 457 -64
2017-09-14 03:53:01 GMT 39.46317 30.03021 36,075 329 457 128
2017-09-14 03:52:51 GMT 39.44511 30.04468 35,975 329 458 1024
2017-09-14 03:52:49 GMT 39.44243 30.04671 35,950 329 458 1024
2017-09-14 03:52:39 GMT 39.42262 30.06256 35,775 329 459 1024
2017-09-14 03:52:34 GMT 39.41350 30.06976 35,700 329 459 960
2017-09-14 03:52:24 GMT 39.39623 30.08344 35,525 329 460 960
2017-09-14 03:52:21 GMT 39.38999 30.08844 35,475 329 460 960
2017-09-14 03:52:14 GMT 39.37719 30.09857 35,375 329 460 960
2017-09-14 03:52:13 GMT 39.37719 30.09857 35,375 329 460 960
2017-09-14 03:52:10 GMT 39.37125 30.10326 35,300 329 460 960
2017-09-14 03:52:06 GMT 39.36356 30.10941 35,250 329 460 960
2017-09-14 03:52:04 GMT 39.35957 30.11257 35,200 329 460 896
2017-09-14 03:52:01 GMT 39.35426 30.11687 35,150 329 460 896
2017-09-14 03:51:54 GMT 39.34318 30.12547 35,075 329 460 896
2017-09-14 03:51:48 GMT 39.33073 30.13532 34,975 329 460 768
2017-09-14 03:51:35 GMT 39.30830 30.15311 34,800 329 458 1152
2017-09-14 03:51:24 GMT 39.28834 30.16899 34,575 329 459 1536
2017-09-14 03:51:22 GMT 39.28492 30.17157 34,525 329 459 1536
2017-09-14 03:51:14 GMT 39.27030 30.18311 34,325 329 463 1664
2017-09-14 03:51:09 GMT 39.25983 30.19141 34,175 329 463 1600
2017-09-14 03:51:03 GMT 39.24977 30.19916 34,075 329 465 448
2017-09-14 03:50:58 GMT 39.23949 30.20746 34,075 329 466 64
2017-09-14 03:50:55 GMT 39.23465 30.21121 34,075 329 466 -64
2017-09-14 03:50:48 GMT 39.22110 30.22186 34,075 329 466 -64
2017-09-14 03:50:39 GMT 39.20508 30.23467 34,050 329 465 448
2017-09-14 03:50:37 GMT 39.20113 30.23767 34,025 329 465 256
2017-09-14 03:50:34 GMT 39.19596 30.24164 34,000 329 465 960
2017-09-14 03:50:30 GMT 39.18846 30.24757 33,925 329 465 1088
2017-09-14 03:50:21 GMT 39.16994 30.26221 33,725 329 465 1152
2017-09-14 03:50:10 GMT 39.15184 30.27647 33,525 329 465 1408
2017-09-14 03:49:59 GMT 39.13000 30.29372 33,250 329 467 1280
2017-09-14 03:49:54 GMT 39.12282 30.29940 33,150 329 467 1344
2017-09-14 03:49:45 GMT 39.10634 30.31259 32,925 329 468 1536
2017-09-14 03:49:37 GMT 39.09126 30.32440 32,700 329 470 1792
2017-09-14 03:49:30 GMT 39.07795 30.33478 32,475 329 473 1728
2017-09-14 03:49:28 GMT 39.07228 30.33940 32,400 329 473 1728
2017-09-14 03:49:17 GMT 39.05370 30.35406 32,125 329 474 1536
2017-09-14 03:49:07 GMT 39.03522 30.36871 31,875 329 475 1408
2017-09-14 03:49:05 GMT 39.03131 30.37183 31,850 329 475 1408
2017-09-14 03:48:55 GMT 39.01305 30.38627 31,600 329 476 1408
2017-09-14 03:48:53 GMT 39.00920 30.38932 31,550 329 476 1472
2017-09-14 03:48:45 GMT 38.99355 30.40168 31,350 329 477 1344
2017-09-14 03:48:40 GMT 38.98366 30.40962 31,225 329 477 1344
2017-09-14 03:48:27 GMT 38.96059 30.42777 30,925 329 477 1536
2017-09-14 03:48:16 GMT 38.93699 30.44653 30,575 329 479 1792
2017-09-14 03:48:01 GMT 38.91087 30.46718 30,225 329 480 1280
2017-09-14 03:47:51 GMT 38.89174 30.48204 30,050 329 480 896
2017-09-14 03:47:49 GMT 38.88755 30.48517 30,000 330 481 832
2017-09-14 03:47:40 GMT 38.87093 30.49768 29,900 330 479 768
2017-09-14 03:47:33 GMT 38.85805 30.50730 29,825 331 479 704
2017-09-14 03:47:29 GMT 38.84975 30.51312 29,775 332 479 768
2017-09-14 03:47:19 GMT 38.82953 30.52635 29,625 335 481 832
2017-09-14 03:47:09 GMT 38.80897 30.53766 29,525 340 482 512
2017-09-14 03:47:06 GMT 38.80273 30.54053 29,500 340 483 512
2017-09-14 03:46:58 GMT 38.78588 30.54755 29,425 345 484 704
2017-09-14 03:46:46 GMT 38.75888 30.55560 29,225 350 487 960
2017-09-14 03:46:40 GMT 38.74650 30.55798 29,150 352 487 960
2017-09-14 03:46:38 GMT 38.73947 30.55945 29,100 352 487 704
2017-09-14 03:46:36 GMT 38.73688 30.55996 29,100 352 487 704
2017-09-14 03:46:29 GMT 38.72201 30.56268 29,000 352 486 832
2017-09-14 03:46:24 GMT 38.71115 30.56468 28,925 352 485 960
2017-09-14 03:46:18 GMT 38.69710 30.56719 28,825 352 484 1152
2017-09-14 03:46:14 GMT 38.68895 30.56886 28,750 352 484 1152
2017-09-14 03:46:05 GMT 38.66789 30.57262 28,575 352 483 1024
2017-09-14 03:46:03 GMT 38.66457 30.57336 28,575 352 482 960
2017-09-14 03:45:55 GMT 38.64492 30.57690 28,400 352 481 1152
2017-09-14 03:45:53 GMT 38.64171 30.57745 28,375 352 481 1216
2017-09-14 03:45:43 GMT 38.61855 30.58188 28,150 352 480 1344
2017-09-14 03:45:34 GMT 38.59693 30.58582 27,950 352 480 1216
2017-09-14 03:45:32 GMT 38.59584 30.58606 27,925 352 480 1216
2017-09-14 03:45:28 GMT 38.58600 30.58779 27,850 352 479 1152
2017-09-14 03:45:21 GMT 38.57174 30.59051 27,725 352 479 1152
2017-09-14 03:45:14 GMT 38.55596 30.59338 27,575 352 478 1280
2017-09-14 03:45:12 GMT 38.55139 30.59430 27,525 352 478 1344
2017-09-14 03:45:10 GMT 38.54688 30.59497 27,475 352 478 1344
2017-09-14 03:44:59 GMT 38.52267 30.59955 27,250 352 477 1088
2017-09-14 03:44:50 GMT 38.50346 30.60301 27,100 352 476 1024
2017-09-14 03:44:48 GMT 38.49889 30.60385 27,075 352 475 1024
2017-09-14 03:44:38 GMT 38.47668 30.60797 26,900 352 473 960
2017-09-14 03:44:27 GMT 38.45299 30.61230 26,725 352 471 1088
2017-09-14 03:44:24 GMT 38.44624 30.61364 26,650 352 470 1088
2017-09-14 03:44:16 GMT 38.42926 30.61675 26,525 352 469 1152
2017-09-14 03:44:07 GMT 38.40994 30.62036 26,325 352 467 1024
2017-09-14 03:44:04 GMT 38.40355 30.62140 26,275 352 467 1024
2017-09-14 03:43:56 GMT 38.38516 30.62481 26,150 352 465 1024
2017-09-14 03:43:44 GMT 38.36105 30.62935 25,925 352 464 1280
2017-09-14 03:43:34 GMT 38.33870 30.63341 25,700 352 462 1280
2017-09-14 03:43:23 GMT 38.31555 30.63754 25,450 352 461 1280
2017-09-14 03:43:12 GMT 38.29257 30.64180 25,225 352 459 1280
2017-09-14 03:43:01 GMT 38.26982 30.64595 25,000 352 458 1280
2017-09-14 03:42:51 GMT 38.24780 30.65004 24,800 352 456 1152
2017-09-14 03:42:42 GMT 38.23056 30.65311 24,650 352 454 1088
2017-09-14 03:42:40 GMT 38.22597 30.65396 24,600 352 454 1088
2017-09-14 03:42:32 GMT 38.20808 30.65729 24,450 352 452 1216
2017-09-14 03:42:30 GMT 38.20388 30.65812 24,400 352 451 1280
2017-09-14 03:42:21 GMT 38.18683 30.66121 24,225 352 450 1216
2017-09-14 03:42:18 GMT 38.18005 30.66243 24,150 352 449 1216
2017-09-14 03:42:12 GMT 38.16506 30.66511 24,000 352 448 1280
2017-09-14 03:42:07 GMT 38.15757 30.66654 23,925 352 448 1280
2017-09-14 03:42:01 GMT 38.14449 30.66892 23,800 352 446 1344
2017-09-14 03:41:57 GMT 38.13602 30.67032 23,700 352 446 1408
2017-09-14 03:41:51 GMT 38.12177 30.67311 23,525 352 445 1472
2017-09-14 03:41:46 GMT 38.11350 30.67459 23,425 352 445 1408
2017-09-14 03:41:38 GMT 38.09743 30.67751 23,250 352 443 1344
2017-09-14 03:41:29 GMT 38.07866 30.68078 23,025 352 442 1600
2017-09-14 03:41:19 GMT 38.05733 30.68470 22,750 352 441 1536
2017-09-14 03:39:56 GMT 37.89292 30.71455 20,625 352 434 1600
2017-09-14 03:39:45 GMT 37.87127 30.71837 20,350 352 433 1408
2017-09-14 03:39:35 GMT 37.85124 30.72204 20,100 352 430 1536
2017-09-14 03:39:24 GMT 37.82975 30.72595 19,800 352 429 1600
2017-09-14 03:39:14 GMT 37.80895 30.72975 19,525 352 427 1536
2017-09-14 03:39:03 GMT 37.78830 30.73349 19,275 352 425 1472
2017-09-14 03:39:00 GMT 37.78171 30.73455 19,200 352 419 1408
2017-09-14 03:38:53 GMT 37.76752 30.73712 19,000 352 423 1536
2017-09-14 03:38:40 GMT 37.74423 30.74124 18,725 352 420 1408
2017-09-14 03:38:38 GMT 37.73840 30.74226 18,650 352 419 1408
2017-09-14 03:38:29 GMT 37.71950 30.74565 18,400 352 417 1536
2017-09-14 03:38:20 GMT 37.70419 30.74840 18,225 352 415 1152
2017-09-14 03:38:09 GMT 37.68357 30.75222 18,025 352 410 1088
2017-09-14 03:37:58 GMT 37.66286 30.75587 17,750 352 406 1728
2017-09-14 03:37:47 GMT 37.64363 30.75927 17,450 352 405 1792
2017-09-14 03:37:37 GMT 37.62440 30.76285 17,150 352 403 1728
2017-09-14 03:37:25 GMT 37.60290 30.76662 16,800 352 400 1792
2017-09-14 03:37:10 GMT 37.57455 30.77163 16,325 352 398 1792
2017-09-14 03:37:00 GMT 37.55611 30.77503 16,000 352 396 1920
2017-09-14 03:36:49 GMT 37.53619 30.77862 15,625 352 396 2176
2017-09-14 03:36:38 GMT 37.51640 30.78208 15,250 352 396 2112
2017-09-14 03:36:27 GMT 37.49735 30.78550 14,875 352 395 2048
2017-09-14 03:36:17 GMT 37.47771 30.78895 14,525 352 394 1984
2017-09-14 03:36:06 GMT 37.45912 30.79234 14,175 352 393 1984
2017-09-14 03:35:55 GMT 37.43852 30.79602 13,775 352 392 1984
2017-09-14 03:35:44 GMT 37.41860 30.79940 13,425 352 391 1984
2017-09-14 03:35:33 GMT 37.39980 30.80286 13,075 353 389 1984
2017-09-14 03:35:29 GMT 37.38908 30.80477 12,875 353 388 2112
2017-09-14 03:35:21 GMT 37.37823 30.80666 12,650 353 388 2112
2017-09-14 03:35:16 GMT 37.36780 30.80853 12,450 352 387 1984
2017-09-14 03:35:12 GMT 37.36152 30.80954 12,350 352 386 1920
2017-09-14 03:35:01 GMT 37.34276 30.81285 12,000 353 384 1984
2017-09-14 03:34:57 GMT 37.33273 30.81466 11,825 353 382 1856
2017-09-14 03:34:51 GMT 37.32391 30.81623 11,675 353 381 1792
2017-09-14 03:34:45 GMT 37.31355 30.81799 11,525 352 379 1472
2017-09-14 03:34:40 GMT 37.30486 30.81951 11,425 353 376 1152
2017-09-14 03:34:36 GMT 37.29607 30.82107 11,325 352 372 1024
2017-09-14 03:34:30 GMT 37.28737 30.82256 11,250 353 367 1024
2017-09-14 03:34:19 GMT 37.26888 30.82588 11,050 353 358 1024
2017-09-14 03:34:08 GMT 37.25111 30.82898 10,875 353 350 1024
2017-09-14 03:33:56 GMT 37.23248 30.83223 10,650 353 341 1088
2017-09-14 03:33:53 GMT 37.22621 30.83325 10,600 353 337 1024
2017-09-14 03:33:46 GMT 37.21724 30.83482 10,500 353 332 1024
2017-09-14 03:33:41 GMT 37.20999 30.83600 10,425 353 325 832
2017-09-14 03:33:36 GMT 37.20152 30.83755 10,325 353 322 1024
2017-09-14 03:33:32 GMT 37.19477 30.83856 10,225 353 317 1664
2017-09-14 03:33:25 GMT 37.18602 30.84012 10,050 353 315 1856
2017-09-14 03:33:20 GMT 37.17883 30.84131 9,900 353 313 1728
2017-09-14 03:33:14 GMT 37.17080 30.84268 9,725 353 310 1792
2017-09-14 03:33:10 GMT 37.16451 30.84394 9,575 353 308 1984
2017-09-14 03:33:04 GMT 37.15548 30.84543 9,375 352 307 2048
2017-09-14 03:32:59 GMT 37.14752 30.84680 9,175 352 305 2048
2017-09-14 03:32:52 GMT 37.13928 30.84836 8,975 352 304 2048
2017-09-14 03:32:48 GMT 37.13420 30.84920 8,875 352 303 1920
2017-09-14 03:32:42 GMT 37.12490 30.85092 8,650 352 301 1792
2017-09-14 03:32:38 GMT 37.11885 30.85200 8,525 352 298 2048
2017-09-14 03:32:30 GMT 37.10926 30.85385 8,250 352 297 2304
2017-09-14 03:32:20 GMT 37.09534 30.85659 7,875 351 294 2304
2017-09-14 03:32:10 GMT 37.08114 30.85952 7,500 350 292 2176
2017-09-14 03:31:59 GMT 37.06737 30.86276 7,150 349 288 1792
2017-09-14 03:31:49 GMT 37.05359 30.86667 6,900 347 280 1280
2017-09-14 03:31:38 GMT 37.03990 30.87082 6,700 347 269 1088
2017-09-14 03:31:27 GMT 37.02667 30.87410 6,500 353 257 960
2017-09-14 03:31:16 GMT 37.01372 30.87486 6,275 1 248 1536
2017-09-14 03:31:13 GMT 37.01088 30.87468 6,200 3 246 1728
2017-09-14 03:31:05 GMT 37.00139 30.87290 5,900 13 242 2304
2017-09-14 03:31:02 GMT 36.99747 30.87164 5,775 17 240 2176
2017-09-14 03:30:55 GMT 36.99097 30.86842 5,550 24 234 2112
2017-09-14 03:30:44 GMT 36.98071 30.86159 5,175 30 222 1792
2017-09-14 03:30:33 GMT 36.97188 30.85504 4,850 31 207 1984
2017-09-14 03:30:31 GMT 36.96927 30.85331 4,750 31 204 2240
2017-09-14 03:30:21 GMT 36.96141 30.84716 4,350 31 196 2560
2017-09-14 03:30:20 GMT 36.96103 30.84692 4,325 31 196 2560
2017-09-14 03:30:10 GMT 36.95325 30.84067 3,850 32 191 2752
2017-09-14 03:29:59 GMT 36.94511 30.83397 3,325 34 188 2944
2017-09-14 03:29:49 GMT 36.93800 30.82787 2,825 34 186 3072
2017-09-14 03:29:39 GMT 36.93004 30.82074 2,250 34 184 3072
2017-09-14 03:29:28 GMT 36.92277 30.81552 1,725 22 183 3392
2017-09-14 03:24:46 GMT 36.88917 30.80432 0 0 17 0
2017-09-14 03:24:36 GMT 36.88917 30.80328 0 0 17 0
2017-09-14 03:24:04 GMT 36.88952 30.80035 0 0 15 0
2017-09-14 03:23:26 GMT 36.89002 30.79811 0 0 11 0
2017-09-14 03:22:55 GMT 36.89173 30.79829 0 0 12 0
2017-09-14 03:22:19 GMT 36.89329 30.79811 0 0 9 0
2017-09-14 03:22:13 GMT 36.89329 30.79778 0 0 8 0
2017-09-14 03:22:02 GMT 36.89329 30.79742 0 0 2 0
2017-09-14 03:19:26 GMT 36.89329 30.79725 0 0 3 0
2017-09-14 03:19:13 GMT 36.89329 30.79742 0 0 3 0
2017-09-14 03:18:53 GMT 36.89329 30.79794 0 0 3 0
2017-09-14 03:18:48 GMT 36.89329 30.79794 0 0 3 0
2017-09-14 03:18:19 GMT 36.89329 30.79845 0 0 4 0
2017-09-14 03:17:56 GMT 36.89329 30.79880 0 0 3 0
2017-09-14 03:17:45 GMT 36.89313 30.79896 0 0 2 0
2017-09-14 03:17:27 GMT 36.89295 30.79897 0 0 3 0
2017-09-14 03:17:16 GMT 36.89278 30.79897 0 0 3 0

Making use of Plane Finder data

You are free to use the raw flight data, aircraft information and images provided in this report for your own purposes provided the data is correctly attributed to Plane Finder. We ask that you please credit Plane Finder and link to planefinder.net in close proximity to the content.

Optionally one of the following logos (no smaller then 150x24px) can be used and must link to planefinder.net

Embedding the Plane Finder map

You are welcome to embed the Plane Finder playback map on your website to offer visitors a more interactive experience. We suggest using the following HTML code:

<iframe src="//planefinder.net/data/report/XC49-EC-HDS-7700-squawk-2017-09-14/map" width="800" height="600" seamless="seamless"></iframe>

Where our data comes from

Plane Finder has a global network of data feeds and antenna radars that receive data broadcast directly from aircraft. The primary technologies used are ADS-B and MLAT. We also show feeds from the FAA and a FLARM glider feed.

Click here to find out more about the Plane Finder network.

How we collect our data